[[{"header":{"parameterUnit":"m.s-1","parameterCategory":1,"la1":31.0,"la2":29.5877,"lo1":-88.7671,"lo2":-86.6584,"dy":0.0162,"dx":0.0185,"nx":115,"ny":88,"refTime":"2023-06-20T06:00:00:Z","depth":0,"parameterNumber":2,"parameterNumberName":"U-component_of_WINDS"},"data":[0.0,0.0,0.0,0.0,0.0,0.0,0.0,0.0,0.0,0.0,0.0,0.0,0.0,0.0,0.0,0.0,0.0,0.0,0.0,0.0,0.0,0.0,0.0,0.0,0.0,0.0,0.0,0.0,0.0,0.0,0.0,0.0,0.0,0.0,0.0,0.0,0.0,0.0,0.0,0.0,0.0,0.0,0.0,0.0,0.0,0.0,0.0,0.0,0.0,0.0,0.0,0.0,0.0,0.0,0.0,0.0,0.0,0.0,0.0,0.0,0.0,0.0,0.0,0.0,0.0,0.0,0.0,0.0,0.0,0.0,0.0,0.0,0.0,0.0,0.0,0.0,0.0,0.0,0.0,0.0,0.0,0.0,0.0,0.0,0.0,0.0,0.0,0.0,0.0,0.0,0.0,0.0,0.0,0.0,0.0,0.0,0.0,0.0,0.0,0.0,0.0,0.0,0.0,0.0,0.0,0.0,0.0,0.0,0.0,0.0,0.0,0.0,0.0,0.0,0.0,0.0,0.0,0.0,0.0,0.0,0.0,0.0,0.0,0.0,0.0,0.0,0.0,0.0,0.0,0.0,0.0,0.0,0.0,0.0,0.0,0.0,0.0,0.0,0.0,0.0,0.0,0.0,0.0,0.0,0.0,0.0,0.0,0.0,0.0,0.0,0.0,0.0,0.0,0.0,0.0,0.0,0.0,0.0,0.0,0.0,0.0,0.0,0.0,0.0,0.0,0.0,0.0,0.0,0.0,0.0,0.0,0.0,0.0,0.0,0.0,0.0,0.0,0.0,0.0,0.0,0.0,0.0,0.0,0.0,0.0,0.0,0.0,0.0,0.0,0.0,0.0,0.0,0.0,0.0,0.0,0.0,0.0,0.0,0.0,0.0,0.0,0.0,0.0,0.0,0.0,0.0,0.0,0.0,0.0,0.0,0.0,0.0,0.0,0.0,0.0,0.0,0.0,0.0,0.0,0.0,0.0,0.0,0.0,0.0,0.0,0.0,0.0,0.0,0.0,0.0,0.0,0.0,0.0,0.0,0.0,0.0,0.0,0.0,0.0,0.0,0.0,0.0,0.0,0.0,0.0,0.0,0.0,0.0,0.0,0.0,0.0,0.0,0.0,0.0,0.0,0.0,0.0,0.0,0.0,0.0,0.0,0.0,0.0,0.0,0.0,0.0,0.0,0.0,0.0,0.0,0.0,0.0,0.0,0.0,0.0,0.0,0.0,0.0,0.0,0.0,0.0,0.0,0.0,0.0,0.0,0.0,0.0,0.0,0.0,0.0,0.0,0.0,0.0,0.0,0.0,0.0,0.0,0.0,0.0,0.0,0.0,0.0,0.0,0.0,0.0,0.0,0.0,0.0,0.0,0.0,0.0,0.0,0.0,0.0,0.0,0.0,0.0,0.0,0.0,0.0,0.0,0.0,0.0,0.0,0.0,0.0,0.0,0.0,0.0,0.0,0.0,0.0,0.0,0.0,0.0,0.0,0.0,0.0,0.0,0.0,0.0,0.0,0.0,0.0,0.0,0.0,0.0,0.0,0.0,0.0,0.0,0.0,0.0,0.0,0.0,0.0,0.0,0.0,0.0,0.0,0.0,0.0,0.0,0.0,0.0,0.0,0.0,0.0,0.0,0.0,0.0,0.0,0.0,0.0,0.0,0.0,0.0,0.0,0.0,0.0,0.0,0.0,0.0,0.0,0.0,0.0,0.0,0.0,0.0,0.0,0.0,0.0,0.0,0.0,0.0,0.0,0.0,0.0,0.0,0.0,0.0,0.0,0.0,0.0,0.0,0.0,0.0,0.0,0.0,0.0,0.0,0.0,0.0,0.0,0.0,0.0,0.0,0.0,0.0,0.0,0.0,0.0,0.0,0.0,0.0,0.0,0.0,0.0,0.0,0.0,0.0,0.0,0.0,0.0,0.0,0.0,0.0,0.0,0.0,0.0,0.0,0.0,0.0,0.0,0.0,0.0,0.0,0.0,0.0,0.0,0.0,0.0,0.0,0.0,0.0,0.0,0.0,0.0,0.0,0.0,0.0,0.0,0.0,0.0,0.0,0.0,0.0,0.0,0.0,0.0,0.0,0.0,0.0,0.0,0.0,0.0,0.0,0.0,0.0,0.0,0.0,0.0,0.0,0.0,0.0,0.0,0.0,0.0,0.0,0.0,0.0,0.0,0.0,0.0,0.0,0.0,0.0,0.0,0.0,0.0,0.0,0.0,0.0,0.0,0.0,0.0,0.0,0.0,0.0,0.0,0.0,0.0,0.0,0.0,0.0,0.0,0.0,0.0,0.0,0.0,0.0,0.0,0.0,0.0,0.0,0.0,0.0,0.0,0.0,0.0,0.0,0.0,0.0,0.0,0.0,0.0,0.0,0.0,0.0,0.0,0.0,0.0,0.0,0.0,0.0,0.0,0.0,0.0,0.0,0.0,0.0,0.0,0.0,0.0,0.0,0.0,0.0,0.0,0.0,0.0,0.0,0.0,0.0,0.0,0.0,0.0,0.0,0.0,0.0,0.0,0.0,0.0,0.0,0.0,0.0,0.0,0.0,0.0,0.0,0.0,0.0,0.0,0.0,0.0,0.0,0.0,0.0,0.0,0.0,0.0,0.0,0.0,0.0,0.0,0.0,0.0,0.0,0.0,0.0,0.0,0.0,0.0,0.0,0.0,0.0,0.0,0.0,0.0,0.0,0.0,0.0,0.0,0.0,0.0,0.0,0.0,0.0,0.0,0.0,0.0,0.0,0.0,0.0,0.0,0.0,0.0,0.0,0.0,0.0,0.0,0.0,0.0,0.0,0.0,0.0,0.0,0.0,0.0,0.0,0.0,0.0,0.0,0.0,0.0,0.0,0.0,0.0,0.0,0.0,0.0,0.0,0.0,0.0,0.0,0.0,0.0,0.0,0.0,0.0,0.0,0.0,0.0,0.0,0.0,0.0,0.0,0.0,0.0,0.0,0.0,0.0,0.0,0.0,0.0,0.0,0.0,0.0,0.0,0.0,0.0,0.0,0.0,0.0,0.0,0.0,0.0,0.0,0.0,0.0,0.0,0.0,0.0,0.0,0.0,0.0,0.0,0.0,0.0,0.0,0.0,0.0,0.0,0.0,0.0,0.0,0.0,0.0,0.0,0.0,0.0,0.0,0.0,0.0,0.0,0.0,0.0,0.0,0.0,0.0,0.0,0.0,0.0,0.0,0.0,0.0,0.0,0.0,0.0,0.0,0.0,0.0,0.0,0.0,0.0,0.0,0.0,0.0,0.0,0.0,0.0,0.0,0.0,0.0,0.0,0.0,0.0,0.0,0.0,0.0,0.0,0.0,0.0,0.0,0.0,0.0,0.0,0.0,0.0,0.0,0.0,0.0,0.0,0.0,0.0,0.0,0.0,0.0,0.0,0.0,0.0,0.0,0.0,0.0,0.0,0.0,0.0,0.0,0.0,0.0,0.0,0.0,0.0,0.0,0.0,0.0,0.0,0.0,0.0,0.0,0.0,0.0,0.0,0.0,0.0,0.0,0.0,0.0,0.0,0.0,0.0,0.0,0.0,0.0,0.0,0.0,0.0,0.0,0.0,0.0,0.0,0.0,0.0,0.0,0.0,0.0,0.0,0.0,0.0,0.0,0.0,0.0,0.0,0.0,0.0,0.0,0.0,0.0,0.0,0.0,0.0,0.0,0.0,0.0,0.0,0.0,0.0,0.0,0.0,0.0,0.0,0.0,0.0,0.0,0.0,0.0,0.0,0.0,0.0,0.0,0.0,0.0,0.0,0.0,0.0,0.0,0.0,0.0,0.0,0.0,0.0,0.0,0.0,0.0,0.0,0.0,0.0,0.0,0.0,0.0,0.0,0.0,0.0,0.0,0.0,0.0,0.0,0.0,0.0,0.0,0.0,0.0,0.0,0.0,0.0,0.0,0.0,0.0,0.0,0.0,0.0,0.0,0.0,0.0,0.0,0.0,0.0,0.0,0.0,0.0,0.0,0.0,0.0,0.0,0.0,0.0,0.0,0.0,0.0,0.0,0.0,0.0,0.0,0.0,0.0,0.0,0.0,0.0,0.0,0.0,0.0,0.0,0.0,0.0,0.0,0.0,0.0,0.0,0.0,0.0,0.0,0.0,0.0,0.0,0.0,0.0,0.0,0.0,0.0,0.0,0.0,0.0,0.0,0.0,0.0,0.0,0.0,0.0,0.0,0.0,0.0,0.0,0.0,0.0,0.0,0.0,0.0,0.0,0.0,0.0,0.0,0.0,0.0,0.0,0.0,0.0,0.0,-2.1385,0.0,0.0,0.0,0.0,0.0,0.0,0.0,0.0,0.0,0.0,0.0,0.0,0.0,0.0,0.0,0.0,0.0,0.0,0.0,0.0,0.0,0.0,0.0,0.0,0.0,0.0,0.0,0.0,0.0,0.0,0.0,0.0,0.0,0.0,0.0,0.0,0.0,0.0,0.0,0.0,0.0,0.0,0.0,0.0,0.0,0.0,0.0,0.0,0.0,0.0,0.0,0.0,0.0,0.0,0.0,0.0,0.0,0.0,0.0,0.0,0.0,0.0,0.0,0.0,0.0,0.0,0.0,0.0,0.0,0.0,0.0,0.0,0.0,0.0,0.0,0.0,0.0,0.0,0.0,0.0,0.0,0.0,0.0,0.0,0.0,0.0,0.0,0.0,0.0,0.0,0.0,0.0,0.0,0.0,0.0,0.0,0.0,0.0,0.0,0.0,0.0,0.0,0.0,0.0,0.0,0.0,0.0,0.0,0.0,0.0,-2.1385,-2.1385,-2.1385,-2.1385,-2.1385,0.0,0.0,0.0,0.0,0.0,0.0,0.0,0.0,0.0,0.0,0.0,0.0,0.0,0.0,0.0,0.0,0.0,0.0,0.0,0.0,0.0,0.0,0.0,0.0,0.0,0.0,0.0,0.0,0.0,0.0,0.0,0.0,0.0,0.0,0.0,0.0,0.0,0.0,0.0,0.0,0.0,0.0,0.0,0.0,0.0,0.0,0.0,0.0,0.0,0.0,0.0,0.0,0.0,0.0,0.0,0.0,0.0,0.0,0.0,0.0,0.0,0.0,0.0,0.0,0.0,0.0,0.0,0.0,0.0,0.0,0.0,0.0,0.0,0.0,0.0,0.0,0.0,0.0,0.0,0.0,0.0,0.0,0.0,0.0,0.0,0.0,0.0,0.0,0.0,0.0,0.0,0.0,0.0,0.0,0.0,0.0,0.0,0.0,0.0,0.0,0.0,0.0,0.0,0.0,0.0,0.0,0.0,0.0,0.0,0.0,0.0,0.0,-2.1313,-2.1264,-2.1264,0.0,0.0,0.0,0.0,0.0,0.0,0.0,0.0,0.0,0.0,0.0,0.0,0.0,0.0,0.0,0.0,0.0,0.0,0.0,0.0,0.0,0.0,0.0,0.0,0.0,0.0,0.0,0.0,0.0,0.0,0.0,0.0,0.0,0.0,0.0,0.0,0.0,0.0,0.0,0.0,0.0,0.0,0.0,0.0,0.0,0.0,0.0,0.0,0.0,0.0,0.0,0.0,0.0,0.0,0.0,0.0,0.0,0.0,0.0,0.0,0.0,0.0,0.0,0.0,0.0,0.0,0.0,0.0,0.0,0.0,0.0,0.0,0.0,0.0,0.0,0.0,0.0,0.0,0.0,0.0,0.0,0.0,0.0,0.0,0.0,0.0,0.0,0.0,0.0,0.0,0.0,0.0,0.0,0.0,0.0,0.0,0.0,0.0,0.0,0.0,0.0,0.0,0.0,0.0,0.0,0.0,0.0,0.0,0.0,0.0,-2.1385,-2.1399,-2.1031,0.0,-2.0883,0.0,0.0,0.0,0.0,0.0,0.0,0.0,0.0,0.0,0.0,0.0,0.0,0.0,0.0,0.0,0.0,0.0,0.0,0.0,0.0,0.0,0.0,0.0,0.0,0.0,0.0,0.0,0.0,0.0,0.0,0.0,0.0,0.0,0.0,0.0,0.0,0.0,0.0,0.0,0.0,0.0,0.0,0.0,0.0,0.0,0.0,0.0,0.0,0.0,0.0,0.0,0.0,0.0,0.0,0.0,0.0,0.0,0.0,0.0,0.0,0.0,0.0,0.0,0.0,0.0,0.0,0.0,0.0,0.0,0.0,0.0,0.0,0.0,0.0,0.0,0.0,0.0,0.0,0.0,0.0,0.0,0.0,0.0,0.0,0.0,0.0,0.0,0.0,0.0,0.0,0.0,0.0,0.0,0.0,0.0,0.0,0.0,0.0,0.0,0.0,0.0,0.0,0.0,0.0,0.0,0.0,0.0,0.0,0.0,0.0,-2.0522,-2.0696,-2.0833,-2.097,0.0,0.0,0.0,0.0,0.0,0.0,0.0,0.0,0.0,0.0,0.0,0.0,0.0,0.0,0.0,0.0,0.0,0.0,0.0,0.0,0.0,0.0,0.0,0.0,0.0,0.0,0.0,0.0,0.0,0.0,0.0,0.0,0.0,0.0,0.0,0.0,0.0,0.0,0.0,0.0,0.0,0.0,0.0,0.0,0.0,0.0,0.0,0.0,0.0,0.0,0.0,0.0,0.0,0.0,0.0,0.0,0.0,0.0,0.0,0.0,0.0,0.0,0.0,0.0,0.0,0.0,0.0,0.0,0.0,0.0,0.0,0.0,0.0,0.0,0.0,0.0,0.0,0.0,0.0,0.0,0.0,0.0,0.0,0.0,0.0,0.0,0.0,0.0,0.0,0.0,0.0,0.0,0.0,0.0,0.0,0.0,0.0,0.0,0.0,0.0,0.0,0.0,0.0,0.0,0.0,0.0,0.0,0.0,0.0,0.0,-1.9695,-1.9734,-1.9812,-2.0359,-2.0673,-2.0673,0.0,0.0,0.0,0.0,0.0,0.0,0.0,0.0,0.0,0.0,0.0,0.0,0.0,0.0,0.0,0.0,0.0,0.0,0.0,0.0,0.0,0.0,0.0,0.0,0.0,0.0,0.0,0.0,0.0,0.0,0.0,0.0,0.0,0.0,0.0,0.0,0.0,0.0,0.0,0.0,0.0,0.0,0.0,0.0,0.0,0.0,0.0,0.0,0.0,0.0,0.0,0.0,0.0,0.0,0.0,0.0,0.0,0.0,0.0,0.0,0.0,0.0,0.0,0.0,0.0,0.0,0.0,0.0,0.0,0.0,0.0,0.0,0.0,0.0,0.0,0.0,0.0,0.0,0.0,0.0,0.0,0.0,0.0,0.0,0.0,0.0,0.0,0.0,0.0,0.0,0.0,0.0,0.0,0.0,0.0,0.0,0.0,0.0,0.0,0.0,0.0,0.0,0.0,0.0,0.0,0.0,0.0,0.0,-1.941,-1.941,-1.9202,-1.8806,-1.9475,-1.9669,0.0,0.0,0.0,0.0,0.0,0.0,0.0,0.0,0.0,0.0,0.0,0.0,0.0,0.0,0.0,0.0,0.0,0.0,0.0,0.0,0.0,0.0,0.0,0.0,0.0,0.0,0.0,0.0,0.0,0.0,0.0,0.0,0.0,0.0,0.0,0.0,0.0,0.0,0.0,0.0,0.0,0.0,0.0,0.0,0.0,0.0,0.0,0.0,0.0,0.0,0.0,0.0,0.0,0.0,0.0,0.0,0.0,0.0,0.0,0.0,0.0,0.0,0.0,0.0,0.0,0.0,0.0,0.0,0.0,0.0,0.0,0.0,0.0,0.0,0.0,0.0,0.0,0.0,0.0,0.0,0.0,0.0,0.0,0.0,0.0,0.0,0.0,0.0,0.0,0.0,0.0,0.0,0.0,0.0,0.0,0.0,0.0,0.0,0.0,0.0,0.0,0.0,0.0,0.0,0.0,0.0,0.0,0.0,0.0,-1.8758,-1.9471,-1.9499,-1.8848,-1.9603,-1.9779,0.0,0.0,0.0,0.0,0.0,0.0,0.0,0.0,0.0,0.0,0.0,0.0,0.0,0.0,0.0,0.0,0.0,0.0,0.0,0.0,0.0,0.0,0.0,0.0,0.0,0.0,0.0,0.0,0.0,0.0,0.0,0.0,0.0,0.0,0.0,0.0,0.0,0.0,0.0,0.0,0.0,0.0,0.0,0.0,0.0,0.0,0.0,0.0,0.0,0.0,0.0,0.0,0.0,0.0,0.0,0.0,0.0,0.0,0.0,0.0,0.0,0.0,0.0,0.0,0.0,0.0,0.0,0.0,0.0,0.0,0.0,0.0,0.0,0.0,0.0,0.0,0.0,0.0,0.0,0.0,0.0,0.0,0.0,0.0,0.0,0.0,0.0,0.0,0.0,0.0,0.0,0.0,0.0,0.0,0.0,0.0,0.0,0.0,0.0,0.0,0.0,0.0,0.0,0.0,0.0,0.0,0.0,0.0,0.0,-1.8507,0.0,-1.9342,-1.882,-1.9457,-1.9686,0.0,0.0,0.0,0.0,0.0,0.0,0.0,0.0,0.0,0.0,0.0,0.0,0.0,0.0,0.0,0.0,0.0,0.0,0.0,0.0,0.0,0.0,0.0,0.0,0.0,0.0,0.0,0.0,0.0,0.0,0.0,0.0,0.0,0.0,0.0,0.0,0.0,0.0,0.0,0.0,0.0,0.0,0.0,0.0,0.0,0.0,0.0,0.0,0.0,0.0,0.0,0.0,0.0,0.0,0.0,0.0,0.0,0.0,0.0,0.0,0.0,0.0,0.0,0.0,0.0,0.0,0.0,0.0,0.0,0.0,0.0,0.0,0.0,0.0,0.0,0.0,0.0,0.0,0.0,0.0,0.0,0.0,0.0,0.0,0.0,0.0,0.0,0.0,0.0,0.0,0.0,0.0,0.0,0.0,0.0,0.0,0.0,0.0,0.0,0.0,0.0,0.0,0.0,0.0,0.0,0.0,0.0,0.0,-1.8291,-1.8695,-1.878,-1.8822,-1.8728,-1.9018,-1.9264,0.0,0.0,0.0,0.0,0.0,0.0,0.0,0.0,0.0,0.0,0.0,0.0,0.0,0.0,0.0,0.0,0.0,0.0,0.0,0.0,0.0,0.0,0.0,0.0,0.0,0.0,0.0,0.0,0.0,0.0,0.0,0.0,0.0,0.0,0.0,0.0,0.0,0.0,0.0,0.0,0.0,0.0,0.0,0.0,0.0,0.0,0.0,0.0,0.0,0.0,0.0,0.0,0.0,0.0,0.0,0.0,0.0,0.0,0.0,0.0,0.0,0.0,0.0,0.0,0.0,0.0,0.0,0.0,0.0,0.0,0.0,0.0,0.0,0.0,0.0,0.0,0.0,0.0,0.0,0.0,0.0,0.0,0.0,0.0,0.0,0.0,0.0,0.0,0.0,0.0,0.0,0.0,0.0,0.0,0.0,0.0,0.0,0.0,0.0,0.0,0.0,0.0,0.0,0.0,0.0,0.0,0.0,0.0,0.0,-1.92,-1.9726,-1.9749,-1.92,-1.9488,-1.9432,0.0,0.0,0.0,0.0,0.0,0.0,0.0,0.0,0.0,0.0,0.0,0.0,0.0,0.0,0.0,0.0,0.0,0.0,0.0,0.0,0.0,0.0,0.0,0.0,0.0,0.0,0.0,0.0,0.0,0.0,0.0,0.0,0.0,0.0,0.0,0.0,0.0,0.0,0.0,0.0,0.0,0.0,0.0,0.0,0.0,0.0,0.0,0.0,0.0,0.0,0.0,0.0,0.0,0.0,0.0,0.0,0.0,0.0,0.0,0.0,0.0,0.0,0.0,0.0,0.0,0.0,0.0,0.0,0.0,0.0,0.0,0.0,0.0,0.0,0.0,0.0,0.0,0.0,0.0,0.0,0.0,0.0,0.0,0.0,0.0,0.0,0.0,0.0,0.0,0.0,0.0,0.0,0.0,0.0,0.0,0.0,0.0,0.0,0.0,0.0,0.0,0.0,0.0,0.0,0.0,0.0,0.0,0.0,0.0,-1.9682,-2.0137,-2.018,-1.966,-1.986,-1.9811,-1.9419,0.0,0.0,0.0,0.0,0.0,0.0,0.0,0.0,0.0,0.0,0.0,0.0,0.0,0.0,0.0,0.0,0.0,0.0,0.0,0.0,0.0,0.0,0.0,0.0,0.0,0.0,0.0,0.0,0.0,0.0,0.0,0.0,0.0,0.0,0.0,0.0,0.0,0.0,0.0,0.0,0.0,0.0,0.0,0.0,0.0,0.0,0.0,0.0,0.0,0.0,0.0,0.0,0.0,0.0,0.0,0.0,0.0,0.0,0.0,0.0,0.0,0.0,0.0,0.0,0.0,0.0,0.0,0.0,0.0,0.0,0.0,0.0,0.0,0.0,0.0,0.0,0.0,0.0,0.0,0.0,0.0,0.0,0.0,0.0,0.0,0.0,0.0,0.0,0.0,0.0,0.0,0.0,0.0,0.0,0.0,0.0,0.0,0.0,0.0,0.0,0.0,0.0,0.0,0.0,0.0,0.0,0.0,0.0,-2.0118,-2.0118,-2.0118,-2.0107,-2.0107,-2.0237,0.0,0.0,0.0,0.0,0.0,0.0,0.0,0.0,0.0,0.0,0.0,0.0,0.0,0.0,0.0,0.0,0.0,0.0,0.0,0.0,0.0,0.0,0.0,0.0,0.0,0.0,0.0,0.0,0.0,0.0,0.0,0.0,0.0,0.0,0.0,0.0,0.0,0.0,0.0,0.0,0.0,0.0,0.0,0.0,0.0,0.0,0.0,0.0,0.0,0.0,0.0,0.0,0.0,0.0,0.0,0.0,0.0,0.0,0.0,0.0,0.0,0.0,0.0,0.0,0.0,0.0,0.0,0.0,0.0,0.0,0.0,0.0,0.0,0.0,0.0,0.0,0.0,0.0,0.0,0.0,0.0,0.0,0.0,0.0,0.0,0.0,0.0,0.0,0.0,0.0,0.0,0.0,0.0,0.0,0.0,0.0,0.0,0.0,0.0,0.0,0.0,0.0,0.0,0.0,0.0,0.0,0.0,0.0,0.0,-2.0118,-2.0118,-2.0118,-2.0118,-2.0118,-2.0151,0.0,0.0,0.0,0.0,0.0,0.0,0.0,0.0,0.0,0.0,0.0,0.0,0.0,0.0,0.0,0.0,0.0,0.0,0.0,0.0,0.0,0.0,0.0,0.0,0.0,0.0,0.0,0.0,0.0,0.0,0.0,0.0,0.0,0.0,0.0,0.0,0.0,0.0,0.0,0.0,0.0,0.0,0.0,0.0,0.0,0.0,0.0,0.0,0.0,0.0,0.0,0.0,0.0,0.0,0.0,0.0,0.0,0.0,0.0,0.0,0.0,0.0,0.0,0.0,0.0,0.0,0.0,0.0,0.0,0.0,0.0,0.0,0.0,0.0,0.0,0.0,0.0,0.0,0.0,0.0,0.0,0.0,0.0,0.0,0.0,0.0,0.0,0.0,0.0,0.0,0.0,0.0,0.0,0.0,0.0,0.0,0.0,0.0,0.0,0.0,0.0,0.0,0.0,0.0,0.0,0.0,0.0,0.0,-2.0118,-2.0118,-2.0118,-2.0118,-2.0118,-2.0118,-2.0118,0.0,0.0,0.0,0.0,0.0,0.0,0.0,0.0,0.0,0.0,0.0,0.0,0.0,0.0,0.0,0.0,0.0,0.0,0.0,0.0,0.0,0.0,0.0,0.0,0.0,0.0,0.0,0.0,0.0,0.0,0.0,0.0,0.0,0.0,0.0,0.0,0.0,0.0,0.0,0.0,0.0,0.0,0.0,0.0,0.0,0.0,0.0,0.0,0.0,0.0,0.0,0.0,0.0,0.0,0.0,0.0,0.0,0.0,0.0,0.0,0.0,0.0,0.0,0.0,0.0,0.0,0.0,0.0,0.0,0.0,0.0,0.0,0.0,0.0,0.0,0.0,0.0,0.0,0.0,0.0,0.0,0.0,0.0,0.0,0.0,0.0,0.0,0.0,0.0,0.0,0.0,0.0,0.0,0.0,0.0,0.0,0.0,0.0,0.0,0.0,0.0,0.0,0.0,0.0,0.0,0.0,0.0,0.0,-2.0118,-2.0118,-2.0118,-2.0118,-2.0118,-2.0118,-2.0118,0.0,0.0,0.0,0.0,0.0,0.0,0.0,0.0,0.0,0.0,0.0,0.0,0.0,0.0,0.0,0.0,0.0,0.0,0.0,0.0,0.0,0.0,0.0,0.0,0.0,0.0,0.0,0.0,0.0,0.0,0.0,0.0,0.0,0.0,0.0,0.0,0.0,0.0,0.0,0.0,0.0,0.0,0.0,0.0,0.0,0.0,0.0,0.0,0.0,0.0,0.0,0.0,0.0,0.0,0.0,0.0,0.0,0.0,0.0,0.0,0.0,0.0,0.0,0.0,0.0,0.0,0.0,0.0,0.0,0.0,0.0,0.0,0.0,0.0,0.0,0.0,0.0,0.0,0.0,0.0,0.0,0.0,0.0,0.0,0.0,0.0,0.0,0.0,0.0,0.0,0.0,0.0,0.0,0.0,0.0,0.0,0.0,0.0,0.0,0.0,0.0,0.0,0.0,0.0,0.0,0.0,0.0,0.0,-2.0118,-2.0118,-2.0118,-2.0118,-2.0118,-2.0118,-2.0118,0.0,0.0,0.0,0.0,0.0,0.0,0.0,0.0,0.0,0.0,0.0,0.0,0.0,0.0,0.0,0.0,0.0,0.0,0.0,0.0,0.0,0.0,0.0,0.0,0.0,0.0,0.0,0.0,0.0,0.0,0.0,0.0,0.0,0.0,0.0,0.0,0.0,0.0,0.0,0.0,0.0,0.0,0.0,0.0,0.0,0.0,0.0,0.0,-1.9266,0.0,0.0,0.0,0.0,0.0,0.0,0.0,0.0,0.0,0.0,0.0,0.0,0.0,0.0,0.0,0.0,0.0,0.0,0.0,0.0,0.0,0.0,0.0,0.0,0.0,0.0,0.0,0.0,0.0,0.0,0.0,0.0,0.0,0.0,0.0,0.0,0.0,0.0,0.0,0.0,0.0,0.0,0.0,0.0,0.0,0.0,0.0,0.0,0.0,0.0,0.0,0.0,0.0,0.0,0.0,0.0,0.0,0.0,0.0,-2.0118,-2.0118,-2.0118,-2.0118,-2.0118,-2.0118,-2.0118,0.0,0.0,0.0,0.0,0.0,0.0,0.0,0.0,0.0,0.0,0.0,0.0,0.0,0.0,0.0,0.0,0.0,0.0,0.0,0.0,0.0,0.0,0.0,0.0,0.0,0.0,0.0,0.0,0.0,0.0,0.0,0.0,0.0,0.0,0.0,0.0,0.0,0.0,0.0,0.0,0.0,0.0,0.0,0.0,0.0,0.0,0.0,0.0,0.0,0.0,0.0,0.0,0.0,0.0,0.0,0.0,0.0,0.0,0.0,0.0,0.0,0.0,0.0,0.0,0.0,0.0,0.0,0.0,0.0,0.0,0.0,0.0,0.0,0.0,0.0,0.0,0.0,0.0,0.0,0.0,0.0,0.0,0.0,0.0,0.0,0.0,0.0,0.0,0.0,0.0,0.0,0.0,0.0,0.0,0.0,0.0,0.0,0.0,0.0,0.0,0.0,0.0,0.0,0.0,0.0,0.0,0.0,-1.9791,-2.0009,-2.0085,-2.0118,-2.0118,-2.0118,-2.0118,-2.0118,-2.0118,0.0,0.0,0.0,0.0,0.0,0.0,0.0,0.0,0.0,0.0,0.0,0.0,0.0,0.0,0.0,0.0,0.0,0.0,0.0,0.0,0.0,0.0,0.0,0.0,0.0,0.0,0.0,0.0,0.0,0.0,0.0,0.0,0.0,0.0,0.0,0.0,0.0,0.0,-1.8549,-1.8801,0.0,0.0,0.0,0.0,0.0,0.0,0.0,0.0,-2.0324,0.0,0.0,0.0,0.0,0.0,0.0,0.0,0.0,0.0,0.0,0.0,0.0,0.0,0.0,0.0,0.0,0.0,0.0,0.0,0.0,0.0,0.0,0.0,0.0,0.0,0.0,0.0,0.0,0.0,0.0,0.0,0.0,0.0,0.0,0.0,0.0,0.0,0.0,0.0,0.0,0.0,0.0,0.0,0.0,0.0,0.0,0.0,0.0,0.0,0.0,0.0,0.0,0.0,0.0,0.0,0.0,-1.9976,-1.9627,-1.966,-2.0085,-2.0118,-2.0118,-2.0118,-2.0118,-2.0118,-2.0118,0.0,0.0,0.0,0.0,0.0,0.0,0.0,0.0,0.0,0.0,0.0,0.0,0.0,0.0,0.0,0.0,0.0,0.0,0.0,0.0,0.0,0.0,0.0,0.0,0.0,0.0,0.0,0.0,0.0,0.0,0.0,0.0,0.0,0.0,0.0,0.0,0.0,0.0,0.0,-1.935,-1.99,0.0,0.0,0.0,0.0,0.0,0.0,0.0,0.0,-2.0161,0.0,0.0,0.0,0.0,0.0,0.0,0.0,0.0,0.0,0.0,0.0,0.0,0.0,0.0,0.0,0.0,0.0,0.0,0.0,0.0,0.0,0.0,0.0,0.0,0.0,0.0,0.0,0.0,0.0,0.0,0.0,0.0,0.0,0.0,0.0,0.0,0.0,0.0,0.0,0.0,0.0,0.0,0.0,0.0,0.0,0.0,0.0,0.0,0.0,0.0,0.0,0.0,0.0,0.0,0.0,-2.0012,-2.0123,-2.0386,-2.0849,-2.0859,-2.0893,-2.0859,-2.0859,-2.0724,0.0,0.0,0.0,0.0,0.0,0.0,0.0,0.0,0.0,0.0,0.0,0.0,0.0,0.0,0.0,0.0,0.0,0.0,0.0,0.0,0.0,0.0,0.0,0.0,0.0,0.0,0.0,0.0,0.0,0.0,0.0,0.0,0.0,0.0,0.0,0.0,0.0,0.0,0.0,0.0,-1.9565,-2.0183,-2.0324,0.0,0.0,0.0,0.0,0.0,0.0,-2.0118,-2.0118,0.0,0.0,0.0,0.0,0.0,0.0,0.0,0.0,0.0,0.0,0.0,0.0,0.0,0.0,0.0,0.0,0.0,0.0,0.0,0.0,0.0,0.0,0.0,0.0,0.0,0.0,0.0,0.0,0.0,0.0,0.0,0.0,0.0,0.0,0.0,0.0,0.0,0.0,0.0,0.0,0.0,0.0,0.0,0.0,0.0,0.0,0.0,0.0,0.0,0.0,0.0,0.0,0.0,0.0,0.0,-2.0128,-2.0617,-2.112,-2.157,-2.1603,-2.1603,-2.1603,-2.1603,-2.1371,0.0,0.0,0.0,0.0,0.0,0.0,0.0,0.0,0.0,0.0,0.0,0.0,0.0,0.0,0.0,0.0,0.0,0.0,0.0,0.0,0.0,0.0,0.0,0.0,0.0,0.0,0.0,0.0,0.0,0.0,0.0,0.0,0.0,0.0,0.0,0.0,0.0,0.0,0.0,0.0,0.0,-2.002,-2.0302,-2.0085,0.0,0.0,0.0,0.0,-2.0085,-2.0118,0.0,0.0,0.0,0.0,0.0,0.0,0.0,0.0,0.0,0.0,0.0,0.0,0.0,0.0,0.0,0.0,0.0,0.0,0.0,0.0,0.0,0.0,0.0,0.0,0.0,0.0,0.0,0.0,0.0,0.0,0.0,0.0,0.0,0.0,0.0,0.0,0.0,0.0,0.0,0.0,0.0,0.0,0.0,0.0,0.0,0.0,0.0,0.0,0.0,0.0,0.0,0.0,0.0,0.0,0.0,0.0,-2.0621,-2.0737,-2.1072,-2.1557,-2.1603,-2.1603,-2.1603,-2.1603,-2.1592,0.0,0.0,0.0,0.0,0.0,0.0,0.0,0.0,0.0,0.0,0.0,0.0,0.0,0.0,0.0,0.0,0.0,0.0,0.0,0.0,0.0,0.0,0.0,0.0,0.0,0.0,0.0,0.0,0.0,0.0,0.0,0.0,0.0,0.0,0.0,0.0,0.0,0.0,0.0,0.0,0.0,-1.9408,-1.9441,-1.9398,-1.9551,0.0,0.0,-1.9551,-2.0009,-2.0118,0.0,0.0,0.0,0.0,0.0,0.0,0.0,0.0,0.0,0.0,0.0,0.0,0.0,0.0,0.0,0.0,0.0,0.0,0.0,0.0,0.0,0.0,0.0,0.0,0.0,0.0,0.0,0.0,0.0,0.0,0.0,0.0,0.0,0.0,0.0,0.0,0.0,0.0,0.0,0.0,0.0,0.0,0.0,0.0,0.0,0.0,0.0,0.0,0.0,0.0,0.0,0.0,0.0,0.0,0.0,-2.0887,-2.1093,-2.1449,-2.1876,-2.2379,-2.239,-2.239,-2.239,-2.24,-2.2244,0.0,0.0,0.0,0.0,0.0,0.0,0.0,0.0,0.0,0.0,0.0,0.0,0.0,0.0,0.0,0.0,0.0,0.0,0.0,0.0,0.0,0.0,0.0,0.0,0.0,0.0,0.0,0.0,0.0,0.0,0.0,0.0,0.0,0.0,0.0,0.0,0.0,0.0,0.0,0.0,0.0,0.0,-1.9299,-1.9551,0.0,0.0,0.0,-1.9835,-2.0074,0.0,0.0,0.0,0.0,0.0,0.0,0.0,0.0,0.0,0.0,0.0,0.0,0.0,0.0,0.0,0.0,0.0,0.0,0.0,0.0,0.0,0.0,0.0,0.0,0.0,0.0,0.0,0.0,0.0,0.0,0.0,0.0,0.0,0.0,0.0,0.0,0.0,0.0,0.0,0.0,0.0,0.0,0.0,0.0,0.0,0.0,0.0,0.0,0.0,0.0,0.0,0.0,0.0,0.0,0.0,0.0,0.0,-2.1613,-2.2185,-2.2652,-2.2979,-2.3001,-2.3001,-2.3001,-2.3001,0.0,0.0,0.0,0.0,0.0,0.0,0.0,0.0,0.0,0.0,0.0,0.0,0.0,0.0,0.0,0.0,0.0,0.0,0.0,0.0,0.0,0.0,0.0,0.0,0.0,0.0,0.0,-1.8307,0.0,0.0,0.0,0.0,0.0,0.0,0.0,0.0,0.0,0.0,0.0,0.0,0.0,0.0,-1.9166,-1.9266,-1.966,-1.9944,0.0,0.0,-1.9944,-2.0074,-2.0216,-2.0292,0.0,0.0,0.0,0.0,0.0,0.0,0.0,0.0,0.0,0.0,0.0,0.0,0.0,0.0,0.0,0.0,0.0,0.0,0.0,0.0,0.0,0.0,0.0,0.0,0.0,0.0,0.0,0.0,0.0,0.0,0.0,0.0,0.0,0.0,0.0,0.0,0.0,0.0,0.0,0.0,0.0,0.0,0.0,0.0,0.0,0.0,0.0,0.0,0.0,0.0,0.0,0.0,0.0,0.0,0.0,-2.2096,-2.266,-2.2957,-2.3001,-2.3001,-2.3001,-2.3001,-2.3001,-2.2703,0.0,0.0,0.0,0.0,0.0,0.0,0.0,0.0,0.0,0.0,0.0,0.0,0.0,0.0,0.0,0.0,0.0,0.0,0.0,0.0,0.0,0.0,0.0,0.0,0.0,0.0,0.0,0.0,0.0,0.0,0.0,0.0,0.0,0.0,0.0,0.0,0.0,0.0,0.0,0.0,0.0,-1.8744,-1.9233,-1.9342,-1.9551,0.0,0.0,-1.9518,-2.0053,-2.0522,-2.0839,-2.085,0.0,0.0,0.0,0.0,0.0,0.0,0.0,0.0,0.0,0.0,0.0,0.0,0.0,0.0,0.0,0.0,0.0,0.0,0.0,0.0,0.0,0.0,0.0,0.0,0.0,0.0,0.0,0.0,0.0,0.0,0.0,0.0,0.0,0.0,0.0,0.0,0.0,0.0,0.0,0.0,0.0,0.0,0.0,0.0,0.0,0.0,0.0,0.0,0.0,0.0,0.0,0.0,0.0,-2.2703,-2.2101,-2.2703,-2.3001,-2.3001,-2.3001,-2.3001,-2.3001,-2.3001,-2.2889,0.0,0.0,0.0,0.0,0.0,0.0,0.0,0.0,0.0,0.0,0.0,0.0,0.0,0.0,0.0,0.0,0.0,0.0,0.0,0.0,0.0,0.0,0.0,0.0,0.0,0.0,0.0,0.0,-1.7501,-1.727,-1.6943,0.0,0.0,0.0,0.0,0.0,0.0,0.0,0.0,0.0,0.0,-1.917,-1.9653,-2.0043,0.0,0.0,-2.0843,-2.0786,-2.1001,-2.1188,-2.1343,-2.1343,-2.1507,0.0,0.0,0.0,0.0,0.0,0.0,0.0,0.0,0.0,0.0,0.0,0.0,0.0,0.0,0.0,0.0,0.0,0.0,0.0,0.0,0.0,0.0,0.0,0.0,0.0,0.0,0.0,0.0,0.0,0.0,0.0,0.0,0.0,0.0,0.0,0.0,0.0,0.0,0.0,0.0,0.0,0.0,0.0,0.0,0.0,0.0,0.0,0.0,0.0,0.0,0.0,0.0,-2.2777,-2.2402,-2.2777,-2.3001,-2.3001,-2.3001,-2.3001,-2.3001,-2.3001,-2.2927,0.0,0.0,0.0,0.0,0.0,0.0,0.0,0.0,0.0,0.0,0.0,0.0,0.0,0.0,0.0,0.0,0.0,0.0,0.0,0.0,0.0,0.0,0.0,0.0,0.0,0.0,0.0,0.0,-1.7442,-1.7351,-1.7099,0.0,0.0,0.0,0.0,0.0,0.0,0.0,0.0,0.0,0.0,-1.9923,-2.0411,-2.0818,-2.1244,-2.1538,-2.1603,-2.1603,-2.1603,-2.1723,-2.18,-2.1811,0.0,0.0,0.0,0.0,0.0,0.0,0.0,0.0,0.0,0.0,0.0,0.0,0.0,0.0,0.0,0.0,0.0,0.0,0.0,0.0,0.0,0.0,0.0,0.0,0.0,0.0,0.0,0.0,0.0,0.0,-1.8036,0.0,0.0,0.0,0.0,0.0,0.0,0.0,0.0,0.0,0.0,0.0,0.0,0.0,0.0,0.0,0.0,0.0,0.0,0.0,0.0,0.0,0.0,-2.3001,-2.3001,-2.3001,-2.3001,-2.3001,-2.3001,-2.3001,-2.3001,-2.3001,-2.2729,-2.2187,0.0,0.0,0.0,0.0,0.0,0.0,0.0,0.0,0.0,0.0,0.0,0.0,0.0,0.0,0.0,0.0,0.0,0.0,0.0,0.0,0.0,0.0,0.0,0.0,0.0,0.0,-1.7005,-1.6917,-1.7108,0.0,0.0,0.0,0.0,0.0,0.0,0.0,0.0,0.0,0.0,-2.074,-2.0952,-2.1466,-2.1581,-2.1592,-2.1649,-2.1625,-2.1614,-2.1636,-2.2007,-2.2313,0.0,0.0,0.0,0.0,0.0,0.0,0.0,0.0,0.0,0.0,0.0,0.0,0.0,0.0,0.0,0.0,0.0,0.0,0.0,0.0,0.0,0.0,0.0,0.0,0.0,0.0,0.0,-1.8719,-1.8719,0.0,0.0,0.0,0.0,0.0,0.0,0.0,0.0,0.0,0.0,0.0,-2.1426,-2.2157,0.0,0.0,0.0,0.0,0.0,0.0,0.0,0.0,0.0,0.0,0.0,0.0,-2.3001,-2.3001,-2.3001,-2.3001,-2.3001,-2.3001,-2.3001,-2.3001,-2.3001,-2.2889,-2.2703,0.0,0.0,0.0,0.0,0.0,0.0,0.0,0.0,0.0,0.0,0.0,0.0,0.0,0.0,0.0,0.0,0.0,0.0,0.0,0.0,0.0,0.0,0.0,0.0,0.0,-1.7582,0.0,0.0,0.0,0.0,0.0,0.0,0.0,0.0,0.0,0.0,0.0,-2.0194,-2.0705,-2.1125,-2.1526,-2.1993,-2.2073,-2.2182,0.0,0.0,0.0,0.0,0.0,0.0,0.0,0.0,0.0,0.0,0.0,0.0,0.0,0.0,-2.3001,-2.3001,-2.3001,-2.3001,-2.3001,0.0,0.0,0.0,0.0,0.0,0.0,0.0,0.0,0.0,0.0,0.0,0.0,0.0,0.0,0.0,0.0,-1.9781,0.0,0.0,0.0,0.0,0.0,0.0,0.0,0.0,-2.1793,-2.2413,-2.244,-2.2815,-2.3001,0.0,-2.3001,-2.2815,0.0,0.0,0.0,0.0,0.0,0.0,0.0,0.0,-2.3001,-2.3001,-2.3001,-2.3001,-2.3001,-2.3001,-2.3001,-2.3001,-2.3001,-2.3001,-2.3001,-2.3001,-2.3001,0.0,0.0,0.0,0.0,0.0,0.0,0.0,0.0,0.0,0.0,0.0,0.0,0.0,0.0,0.0,0.0,0.0,0.0,0.0,0.0,0.0,0.0,0.0,-1.8198,0.0,0.0,0.0,0.0,0.0,0.0,0.0,0.0,0.0,-1.9612,-2.0442,-2.1163,-2.1513,-2.1858,-2.2193,-2.251,0.0,0.0,0.0,0.0,0.0,0.0,0.0,-2.3001,-2.3001,-2.3001,-2.3001,-2.3001,-2.3001,-2.3001,-2.3001,0.0,0.0,-2.3001,-2.3001,-2.3001,-2.3001,-2.275,-2.2615,-2.2936,-2.2772,-2.2641,0.0,0.0,0.0,0.0,0.0,0.0,0.0,0.0,-2.1375,-2.1211,0.0,-2.1201,0.0,0.0,0.0,0.0,0.0,-2.0924,0.0,0.0,-2.2692,-2.3001,-2.3001,-2.3001,-2.3012,-2.3023,-2.3034,-2.3056,-2.3067,-2.3067,0.0,0.0,0.0,0.0,0.0,0.0,-2.3001,-2.3001,-2.3001,-2.3001,-2.3001,-2.3001,-2.3001,-2.3001,-2.3001,-2.3001,-2.3001,-2.3001,-2.3001,-2.3001,-2.2478,0.0,0.0,0.0,0.0,0.0,0.0,0.0,0.0,0.0,0.0,0.0,0.0,0.0,0.0,0.0,0.0,0.0,0.0,0.0,0.0,-1.9031,0.0,0.0,0.0,0.0,0.0,0.0,0.0,0.0,0.0,0.0,-2.0778,-2.1198,-2.1907,-2.285,0.0,0.0,0.0,0.0,-2.299,-2.3001,-2.3001,-2.3001,-2.3001,-2.3001,-2.3001,-2.3001,0.0,0.0,-2.3001,-2.3001,-2.3012,-2.3023,-2.3045,-2.3023,-2.3067,-2.3045,-2.3001,-2.3001,-2.2979,-2.299,-2.3001,-2.2979,-2.2968,-2.1432,0.0,0.0,0.0,0.0,-2.1134,-2.1433,-2.2022,-2.1897,-2.1825,-2.1825,-2.1825,0.0,0.0,0.0,0.0,0.0,0.0,-2.1949,-2.2138,-2.2703,-2.3001,-2.3001,-2.3001,-2.3187,-2.3514,-2.3487,-2.37,-2.4061,-2.4061,-2.37,-2.3012,0.0,0.0,0.0,0.0,-2.3001,-2.3001,-2.3001,-2.3001,-2.3001,-2.3001,-2.3001,-2.3001,-2.3001,-2.3001,-2.3001,-2.3001,-2.3001,-2.3001,-2.2852,0.0,0.0,0.0,0.0,0.0,0.0,0.0,0.0,0.0,0.0,0.0,0.0,0.0,0.0,0.0,0.0,0.0,0.0,0.0,-1.8769,-1.9886,-2.0442,0.0,0.0,0.0,0.0,0.0,0.0,0.0,0.0,0.0,-2.1734,-2.22,-2.27,0.0,0.0,-2.3001,-2.3001,-2.3001,-2.3001,-2.3001,0.0,0.0,0.0,-2.3001,-2.3001,-2.3001,-2.3001,-2.3001,-2.3001,-2.3001,-2.311,-2.3449,-2.3525,-2.3596,-2.3951,-2.3471,-2.3045,-2.3001,-2.3001,-2.3001,-2.3001,-2.3001,-2.3012,-2.2981,-2.2777,-2.1669,-2.1458,-2.1804,-2.1853,-2.2314,-2.3054,-2.3043,-2.3054,-2.3054,-2.3054,-2.2696,-2.208,-2.1845,0.0,0.0,0.0,-2.2812,-2.3054,-2.3438,-2.3602,-2.3591,-2.3591,-2.3744,-2.4017,-2.4028,-2.4181,-2.4526,-2.4526,-2.4192,-2.3613,0.0,0.0,-2.3591,-2.3591,-2.3591,-2.3591,-2.3591,-2.3591,-2.3591,-2.3591,-2.3591,-2.3591,-2.3394,-2.3285,-2.3285,-2.3099,-2.3001,-2.3001,-2.3001,-2.3001,0.0,0.0,0.0,0.0,0.0,0.0,0.0,0.0,0.0,0.0,0.0,-2.0168,0.0,0.0,0.0,0.0,-1.9748,-1.978,-2.0032,-2.0976,0.0,0.0,0.0,0.0,0.0,0.0,0.0,-2.1516,-2.2072,-2.244,-2.244,-2.2777,-2.3001,-2.3001,-2.3001,-2.3001,-2.3001,0.0,-2.3001,-2.3001,-2.3001,-2.3001,-2.3001,-2.3001,-2.3067,-2.3252,-2.346,-2.3591,-2.358,-2.3591,-2.3689,-2.3951,-2.4028,-2.4126,-2.4432,-2.3984,-2.3591,-2.3591,-2.3591,-2.3591,-2.3591,-2.3591,-2.3591,-2.4585,-2.4385,-2.2382,-2.2082,-2.2931,-2.2942,-2.352,-2.4476,-2.4476,-2.4526,-2.4526,-2.4526,-2.4147,-2.3545,-2.2991,0.0,-2.3585,-2.3585,-2.3876,-2.4486,-2.4526,-2.4526,-2.4526,-2.4476,-2.4508,-2.4541,-2.4541,-2.4574,-2.4618,-2.4618,-2.4596,-2.4607,-2.4607,-2.4574,-2.4497,-2.4515,-2.4526,-2.4486,-2.4476,-2.4515,-2.4526,-2.4526,-2.4526,-2.4515,-2.4039,-2.3749,-2.3738,-2.3362,-2.3099,-2.3067,-2.3056,-2.3045,-2.3012,0.0,0.0,0.0,0.0,0.0,0.0,0.0,0.0,0.0,0.0,0.0,0.0,0.0,0.0,0.0,-2.1825,0.0,-2.2025,-2.2063,0.0,0.0,0.0,-2.1433,-2.2101,-2.2138,-2.2327,-2.2927,0.0,0.0,-2.3001,0.0,-2.3001,-2.3001,-2.3001,-2.3001,-2.3001,-2.3001,-2.3001,-2.3001,-2.3045,-2.3067,-2.311,-2.3154,-2.3351,-2.3733,-2.4181,-2.441,-2.4432,-2.4432,-2.4515,-2.4541,-2.4541,-2.4574,-2.4596,-2.4628,-2.4596,-2.4607,-2.4508,-2.4454,-2.441,-2.441,-2.4388,-2.5349,-2.4989,-2.4468,-2.4201,-2.4093,-2.4093,-2.4248,-2.4486,-2.4526,-2.4526,-2.4526,-2.4526,-2.4396,-2.4238,-2.4118,-2.4118,-2.4266,-2.4277,-2.4357,-2.4486,-2.4526,-2.4526,-2.4526,-2.4526,-2.4672,-2.5,-2.5051,-2.5237,-2.5546,-2.5568,-2.5557,-2.5568,-2.5568,-2.5207,-2.4519,-2.4526,-2.4526,-2.4526,-2.4526,-2.4526,-2.4526,-2.4526,-2.4526,-2.4526,-2.4377,-2.4312,-2.4301,-2.4203,-2.3962,-2.358,-2.352,-2.3346,-2.3023,-2.3001,0.0,0.0,0.0,0.0,0.0,0.0,0.0,0.0,0.0,-2.2203,-2.128,0.0,-2.1711,0.0,-2.2429,-2.2392,-2.151,-2.1835,0.0,0.0,-2.1558,-2.1624,-2.2654,-2.2402,-2.2327,-2.2927,-2.3001,-2.3001,-2.3001,-2.3001,-2.3001,-2.3001,-2.3001,-2.3001,-2.3001,-2.3001,-2.3001,-2.3034,-2.3329,-2.352,-2.3591,-2.3897,-2.417,-2.429,-2.4421,-2.4526,-2.4486,-2.4526,-2.4585,-2.4923,-2.5051,-2.5153,-2.5469,-2.5557,-2.5557,-2.5513,-2.5,-2.4526,-2.4526,-2.4537,-2.4537,-2.6376,-2.6125,-2.6125,-2.5972,-2.5699,-2.5106,-2.4923,-2.512,-2.512,-2.512,-2.512,-2.5131,-2.512,-2.5109,-2.512,-2.512,-2.512,-2.5109,-2.512,-2.512,-2.512,-2.512,-2.512,-2.512,-2.5251,-2.5491,-2.5491,-2.5633,-2.5884,-2.5895,-2.5895,-2.5895,-2.5895,-2.5644,-2.5142,-2.512,-2.512,-2.5109,-2.512,-2.512,-2.512,-2.5109,-2.512,-2.512,-2.4902,-2.4792,-2.4803,-2.4596,-2.4355,-2.4082,-2.4071,-2.3842,-2.3362,-2.3329,-2.322,0.0,0.0,0.0,0.0,0.0,0.0,0.0,0.0,0.0,0.0,0.0,-2.1987,0.0,-2.2467,-2.2617,-2.17,-2.2166,-2.2515,-2.2515,-2.2203,-2.2279,-2.2916,-2.2703,-2.2639,-2.2964,-2.3001,-2.3001,-2.3001,-2.3001,-2.3088,-2.3296,-2.3329,-2.3241,-2.3067,-2.3138,-2.3329,-2.334,-2.3705,-2.4071,-2.4071,-2.4476,-2.4832,-2.4814,-2.4989,-2.512,-2.512,-2.512,-2.5207,-2.5437,-2.5532,-2.5579,-2.5841,-2.5895,-2.5895,-2.583,-2.5491,-2.5164,-2.512,-2.512,-2.5131,-2.7643,-2.7588,-2.7588,-2.7555,-2.7392,-2.6092,-2.5753,-2.6081,-2.6081,-2.6092,-2.6081,-2.6081,-2.6081,-2.6081,-2.6092,-2.6081,-2.6081,-2.6081,-2.6081,-2.6092,-2.6081,-2.6081,-2.6081,-2.6081,-2.6081,-2.6081,-2.6026,-2.5994,-2.5994,-2.5928,-2.5895,-2.5895,-2.5895,-2.5895,-2.5895,-2.5895,-2.5895,-2.5895,-2.5895,-2.5895,-2.5895,-2.5895,-2.5895,-2.5884,-2.548,-2.5314,-2.5292,-2.4891,-2.4639,-2.4625,-2.4574,-2.4355,-2.3825,-2.3831,-2.3635,0.0,-2.3132,0.0,0.0,0.0,0.0,0.0,0.0,0.0,0.0,-2.2515,-2.1977,-2.1471,-2.2392,-2.2777,-2.2252,-2.2703,-2.3001,-2.3001,-2.3001,-2.3001,-2.3001,-2.3001,-2.3001,-2.3001,-2.3056,-2.3099,-2.311,-2.3143,-2.3372,-2.3705,-2.3831,-2.37,-2.3351,-2.358,-2.3793,-2.3793,-2.4257,-2.4596,-2.4716,-2.5022,-2.5262,-2.5317,-2.5557,-2.5895,-2.5841,-2.5852,-2.5884,-2.5884,-2.5863,-2.5884,-2.5895,-2.5895,-2.5895,-2.5895,-2.5852,-2.583,-2.583,-2.5819,-2.5895,-2.9434,-2.9074,-2.9063,-2.8891,-2.8475,-2.7785,-2.7326,-2.7042,-2.7042,-2.7042,-2.7042,-2.7053,-2.7053,-2.7042,-2.7053,-2.7042,-2.7053,-2.7042,-2.7042,-2.7042,-2.7042,-2.7042,-2.7042,-2.7053,-2.7053,-2.702,-2.6671,-2.6485,-2.6442,-2.6092,-2.5895,-2.5895,-2.5895,-2.5895,-2.5895,0.0,0.0,0.0,-2.5895,-2.5895,-2.5895,-2.5895,-2.5895,-2.5895,-2.5808,0.0,-2.5764,-2.5677,-2.5448,-2.5106,-2.5084,0.0,0.0,0.0,0.0,0.0,0.0,0.0,0.0,0.0,0.0,0.0,-2.3001,-2.3001,-2.3001,-2.2889,-2.2777,-2.2703,-2.2889,-2.2964,-2.2852,-2.2927,-2.3001,-2.3001,-2.3001,-2.3001,-2.3001,-2.3001,-2.3001,-2.3001,-2.334,-2.3591,-2.3613,-2.394,-2.4224,-2.4312,-2.4344,-2.4312,-2.4235,-2.429,-2.4344,-2.4377,-2.476,-2.5226,-2.5579,-2.5677,-2.571,-2.5786,-2.5808,-2.5895,-2.5895,-2.5895,-2.5895,-2.5895,-2.5895,-2.5895,-2.5895,-2.5895,-2.5895,-2.5895,-2.5895,-2.5895,-2.5895,-2.5895,-2.5895,-3.0067,0.0,-2.9838,-2.9707,0.0,-2.9216,-2.8975,-2.8634,-2.773,-2.7315,-2.7315,-2.7315,-2.7315,-2.7315,-2.7315,-2.7315,-2.7315,-2.7315,-2.7315,-2.7315,-2.7315,-2.7315,-2.7315,-2.7315,-2.7315,-2.7304,-2.7086,-2.6922,-2.6955,-2.6715,-2.6485,-2.6267,-2.6267,-2.6136,-2.5906,-2.5895,-2.5895,-2.5895,-2.5895,-2.5895,-2.5895,-2.5895,-2.5895,-2.5895,0.0,0.0,0.0,0.0,0.0,0.0,0.0,0.0,0.0,0.0,0.0,-2.4497,-2.4246,-2.4104,-2.4104,-2.3886,-2.3733,-2.3733,-2.3733,-2.3525,-2.3045,-2.3001,-2.3001,-2.3001,-2.3001,-2.3001,-2.3001,-2.3001,-2.3001,-2.3001,-2.3001,-2.3088,-2.3307,-2.3362,-2.346,-2.3711,-2.3951,-2.4104,-2.4115,-2.4301,-2.4585,-2.4792,-2.4865,-2.4912,-2.5109,-2.4967,-2.4931,-2.5131,-2.5349,-2.5611,-2.583,-2.5895,-2.5895,-2.5895,-2.5895,-2.5895,-2.5895,-2.5895,-2.5895,-2.5895,-2.5895,-2.5895,-2.5895,-2.5895,-2.5895,-2.5895,-2.5895,-2.5895,-2.5895,-2.5895,-2.6063,-3.022,-3.022,-3.022,-3.022,-3.022,-3.022,-3.022,-3.01,0.0,0.0,0.0,-2.7687,-2.7643,-2.7566,-2.7566,-2.7566,-2.7566,-2.7566,-2.7566,-2.7566,-2.7577,-2.7566,-2.7566,-2.7566,-2.7566,-2.7566,-2.7479,-2.7435,-2.7435,-2.7359,-2.7075,-2.6737,-2.6628,-2.6387,-2.5928,-2.5895,-2.5895,-2.5895,-2.5895,-2.5895,-2.5895,-2.5895,-2.5895,-2.5895,-2.5895,-2.5895,-2.5895,-2.5895,-2.5895,-2.5895,-2.5895,-2.5721,-2.5327,-2.5347,-2.5131,-2.477,-2.4701,-2.4607,-2.4607,-2.453,-2.4526,-2.4526,-2.4526,-2.4148,-2.3318,-2.3263,-2.3263,-2.3263,-2.3263,-2.3263,-2.3263,-2.3263,-2.3263,-2.3263,-2.3263,-2.3438,-2.376,-2.3864,-2.4017,-2.441,-2.4541,-2.4607,-2.4607,-2.4716,-2.4869,-2.5207,-2.5306,-2.5437,-2.5742,-2.5535,-2.5456,-2.5742,-2.5819,-2.5884,-2.5895,-2.5895,-2.5895,-2.5895,-2.5895,-2.5895,-2.5895,-2.5895,-2.5895,-2.5895,-2.5895,-2.5895,-2.5895,-2.5895,-2.5895,-2.5895,-2.5895,-2.5895,-2.5895,-2.5895,-2.6104,-3.022,-3.022,-3.022,-3.022,-3.022,-3.022,-3.022,-3.0199,-2.9915,-2.9565,-2.9183,-2.9172,-2.8953,-2.8606,-2.8606,-2.8596,-2.8596,-2.8596,-2.8596,0.0,-2.8596,-2.8596,-2.8596,-2.8596,-2.8596,-2.8563,-2.8134,-2.7893,-2.7849,-2.7478,-2.7282,-2.7184,-2.678,-2.6387,-2.595,-2.5895,-2.5895,-2.5895,-2.5895,-2.5895,-2.5895,-2.5895,-2.5895,-2.5895,-2.5895,-2.5895,-2.5895,-2.5895,-2.5895,-2.5895,-2.5895,-2.5874,-2.5808,-2.5797,-2.5764,-2.5688,-2.5347,-2.5117,-2.5065,-2.4716,-2.4526,-2.4526,-2.4526,-2.446,-2.4301,-2.4279,-2.4279,-2.4279,-2.4235,-2.4279,-2.4279,-2.4246,-2.4213,-2.4274,-2.4268,-2.4312,-2.4366,-2.4388,-2.4421,-2.4541,-2.4887,-2.5117,-2.515,-2.5404,-2.5633,-2.5753,-2.5721,-2.5808,-2.5852,-2.5841,-2.583,-2.5884,-2.5895,-2.5895,-2.5895,-2.5895,-2.5895,-2.5895,-2.5895,-2.5895,-2.5895,-2.5895,-2.5895,-2.5895,-2.5895,-2.5895,-2.5895,-2.5895,-2.5895,-2.5895,-2.5895,-2.5895,-2.5895,-2.5937,-2.6032,-3.022,-3.022,-3.022,-3.022,-3.0231,-3.0472,-3.0581,-3.0603,-3.0876,-3.0559,-2.9904,-2.9882,-2.9751,-2.9532,-2.9307,-2.9197,-2.9186,-2.8924,-2.8803,-2.8803,-2.8803,-2.8803,-2.8803,-2.8803,-2.8803,-2.8792,-2.8549,-2.8429,-2.8396,-2.82,-2.796,-2.7631,-2.6955,-2.6475,-2.6299,-2.6026,-2.5895,-2.5895,-2.5895,-2.5895,-2.5895,-2.5895,-2.5895,-2.5895,-2.5895,-2.5895,-2.5895,-2.5895,-2.5895,-2.5895,-2.5895,-2.5895,-2.5895,-2.5895,-2.5895,-2.5895,-2.5699,-2.5568,-2.5568,-2.5382,-2.5251,-2.5262,-2.5251,-2.5251,-2.5251,-2.4781,-2.4486,-2.4526,-2.4526,-2.4526,-2.4526,-2.4526,-2.4526,-2.4526,-2.4526,-2.4596,-2.4843,-2.4898,-2.4956,-2.5207,-2.5426,-2.5568,-2.5568,-2.5764,-2.5895,-2.5895,-2.5895,-2.5895,-2.5895,-2.5895,-2.5895,-2.5895,-2.5895,-2.5895,-2.5895,-2.5895,-2.5895,-2.5895,-2.5895,-2.5895,-2.5895,-2.5895,-2.5895,-2.5895,-2.5895,-2.5895,-2.5895,-2.5895,-2.5895,-2.5895,-2.5895,-2.5895,-2.5948,-2.6229,-2.6745,-2.9882,-2.9882,-2.9882,-2.9947,-3.0078,-3.0428,-3.0635,-3.0788,-3.1247,-3.105,-3.0417,-3.0362,-3.0308,-3.0177,-2.9816,-2.9652,-2.9587,-2.9186,-2.8967,-2.8957,-2.8847,-2.8803,-2.8803,-2.8803,-2.8803,-2.8803,-2.8803,-2.8803,-2.8803,-2.8803,-2.8506,-2.7969,-2.726,-2.6846,-2.6769,-2.6299,-2.607,-2.6059,-2.5961,-2.5895,-2.5895,-2.5895,-2.5895,-2.5895,-2.5895,-2.5895,-2.5895,-2.5895,-2.5895,-2.5895,-2.5895,-2.5895,-2.5895,-2.5895,-2.5895,-2.5895,-2.5895,-2.5895,-2.5895,-2.5895,-2.5895,-2.5895,-2.5895,-2.5895,-2.5841,-2.524,-2.4803,-2.4814,-2.4847,-2.4836,-2.4847,-2.4825,-2.4803,-2.4803,-2.4803,-2.5018,-2.5314,-2.5368,-2.5469,-2.5841,-2.5895,-2.5884,-2.5895,-2.5895,-2.5895,-2.5895,-2.5895,-2.5895,-2.5895,-2.5895,-2.5895,-2.5895,-2.5895,-2.5895,-2.5895,-2.5895,-2.5895,-2.5895,-2.5895,-2.5895,-2.5895,-2.5895,-2.5895,-2.5895,-2.5895,-2.5895,-2.5895,-2.5895,-2.5895,-2.5895,-2.5895,-2.5939,-2.6081,-2.7032,-2.7574,-2.8957,-2.8935,-2.8978,-2.9197,-2.9543,-2.962,-2.9882,-3.0308,-3.0766,-3.093,-3.081,-3.0832,-3.0603,-3.0242,-3.0166,-3.0144,-3.01,-2.9642,-2.9423,-2.9358,-2.9,-2.8803,-2.8825,-2.8803,-2.8803,-2.8803,-2.8803,-2.8803,-2.8803,-2.8803,-2.8517,-2.8045,-2.7903,-2.762,-2.7239,-2.6748,-2.6508,-2.6508,-2.6125,-2.5895,-2.5895,-2.5895,-2.5895,-2.5895,-2.5895,-2.5895,-2.5895,-2.5895,-2.5895,-2.5895,-2.5895,-2.5895,-2.5895,-2.5895,-2.5895,-2.5895,-2.5895,-2.5895,-2.5895,-2.5895,-2.5895,-2.5895,-2.5895,-2.5895,-2.5895,-2.5808,-2.5764,-2.5721,-2.5732,-2.5699,-2.5764,-2.5721,-2.5666,-2.5644,-2.5677,-2.5797,-2.5786,-2.583,-2.5852,-2.5884,-2.5895,-2.5895,-2.5895,-2.5895,-2.5895,-2.5895,-2.5895,-2.5895,-2.5895,-2.5895,-2.5895,-2.5895,-2.5895,-2.5895,-2.5895,-2.5895,-2.5895,-2.5895,-2.5895,-2.5895,-2.5895,-2.5895,-2.5895,-2.5895,-2.5895,-2.5895,-2.5895,-2.5906,-2.5939,-2.6058,-2.6079,-2.6154,-2.6622,-2.7946,-2.8673,-2.8803,-2.8803,-2.8803,-2.8902,-2.9121,-2.9405,-2.9598,-2.9827,-3.0297,-3.0635,-3.0876,-3.0908,-3.0941,-3.1018,-3.0756,-3.0614,-3.0581,-3.0133,-2.9915,-2.986,-2.9412,-2.9241,-2.9161,-2.8924,-2.8803,-2.8803,-2.8803,-2.8803,-2.8803,-2.8803,-2.8694,-2.844,-2.82,-2.7893,-2.7674,-2.7227,-2.7031,-2.6977,-2.6835,-2.6736,-2.6671,-2.619,-2.5895,-2.5895,-2.5895,-2.5895,-2.5895,-2.5895,-2.5895,-2.5895,-2.5895,-2.5895,-2.5895,-2.5895,-2.5895,-2.5895,-2.5895,-2.5895,-2.5895,-2.5895,-2.5895,-2.5895,-2.5895,-2.5895,-2.5895,-2.5895,-2.5895,-2.5895,-2.5895,-2.5895,-2.5895,-2.5895,-2.5895,-2.5895,-2.5895,-2.5895,-2.5895,-2.5895,-2.5895,-2.5895,-2.5895,-2.5895,-2.5895,-2.5895,-2.5895,-2.5895,-2.5895,-2.5895,-2.5895,-2.5895,-2.5895,-2.5895,-2.5895,-2.5895,-2.5895,-2.5895,-2.5895,-2.5895,-2.5895,-2.5895,-2.5895,-2.5895,-2.5895,-2.5906,-2.5939,-2.5939,-2.5895,-2.6179,-2.6343,-2.6524,-2.7267,-2.7768,-2.8568,-2.9701,-3.0061,-2.8803,-2.8803,-2.8803,-2.8803,-2.8836,-2.9175,-2.9328,-2.9347,-2.9794,-3.0199,-3.0526,-3.0766,-3.1083,-3.1356,-3.1181,-3.1094,-3.1029,-3.0603,-3.0406,-3.0341,-2.9893,-2.962,-2.9456,-2.9186,-2.8924,-2.8814,-2.8803,-2.8803,-2.8803,-2.8803,-2.8803,-2.8749,-2.8407,-2.8244,-2.8143,-2.7752,-2.7467,-2.7456,-2.7403,-2.7315,-2.7217,-2.6649,-2.6223,-2.6103,-2.5972,-2.5895,-2.5895,-2.5895,-2.5895,-2.5895,-2.5895,-2.5895,-2.5895,-2.5895,-2.5895,-2.5895,-2.5895,-2.5895,-2.5895,-2.5895,-2.5895,-2.5895,-2.5895,-2.5895,-2.5895,-2.5895,-2.5895,-2.5895,-2.5895,-2.5895,-2.5895,-2.5895,-2.5895,-2.5895,-2.5895,-2.5895,-2.5895,-2.5895,-2.5895,-2.5895,-2.5895,-2.5895,-2.5895,-2.5895,-2.5895,-2.5895,-2.5895,-2.5895,-2.5895,-2.5895,-2.5895,-2.5895,-2.5895,-2.5895,-2.5895,-2.5895,-2.5895,-2.5895,-2.5895,-2.5895,-2.5895,-2.5895,-2.6048,-2.6136,-2.6092,-2.6265,-2.6527,-2.679,-2.7491,-2.7836,-2.8541,-2.9536,-3.0079,-3.1096,-3.165,-2.8803,-2.8803,-2.8803,-2.8803,-2.8814,-2.8836,-2.8847,-2.8913,-2.9361,-2.9543,-2.9729,-3.0472,-3.0887,-3.0952,-3.1313,-3.1564,-3.1458,-3.1083,-3.0876,-3.0821,-3.0395,-2.9936,-2.95,-2.9456,-2.9274,-2.8957,-2.8946,-2.8891,-2.8847,-2.8814,-2.8803,-2.8792,-2.8749,-2.876,-2.8672,-2.8233,-2.7969,-2.7925,-2.7632,-2.7359,-2.7348,-2.7293,-2.7031,-2.6595,-2.6168,-2.5972,-2.5928,-2.5906,-2.5906,-2.5906,-2.5895,-2.5895,-2.5895,-2.5895,-2.5895,-2.5895,-2.5895,-2.5895,-2.5895,-2.5895,-2.5895,-2.5895,-2.5895,-2.5895,-2.5895,-2.5895,-2.5895,-2.5895,-2.5895,-2.5895,-2.5895,-2.5895,-2.5895,-2.5895,-2.5895,-2.5895,-2.5895,-2.5895,-2.5895,-2.5895,-2.5895,-2.5895,-2.5895,-2.5895,-2.5895,-2.5895,-2.5895,-2.5895,-2.5895,-2.5895,-2.5917,-2.595,-2.5961,-2.5917,-2.5917,-2.5906,-2.5906,-2.6005,-2.6059,-2.5994,-2.5928,-2.595,-2.6212,-2.6516,-2.6732,-2.6995,-2.7348,-2.807,-2.9126,-2.9755,-3.0307,-3.1095,-3.1771,-3.2127,-3.2603,-2.8803,-2.8803,-2.8803,-2.8803,-2.8803,-2.8803,-2.8803,-2.8814,-2.8978,-2.9252,-2.95,-2.9849,-3.0155,-3.0472,-3.0941,-3.1334,-3.1597,-3.1433,-3.1356,-3.1313,-3.0865,-3.0559,-3.0373,-3.01,-2.9882,-2.9718,-2.9674,-2.9521,-2.9252,-2.8967,-2.8803,-2.8803,-2.8803,-2.8803,-2.8771,-2.8628,-2.8495,-2.8484,-2.8298,-2.8289,-2.8178,-2.7938,-2.7642,-2.7478,-2.7053,-2.6671,-2.6376,-2.6365,-2.6234,-2.5917,-2.5906,-2.5895,-2.5895,-2.5895,-2.5895,-2.5895,-2.5895,-2.5895,-2.5895,-2.5895,-2.5895,-2.5895,-2.5895,-2.5895,-2.5895,-2.5895,-2.5895,-2.5895,-2.5895,-2.5895,-2.5895,-2.5895,-2.5895,-2.5895,-2.5895,-2.5895,-2.5895,-2.5895,-2.5895,-2.5895,-2.5895,-2.5895,-2.5895,-2.5906,-2.5895,-2.5895,-2.5906,-2.5928,-2.5917,-2.5906,-2.6037,-2.6246,-2.6376,-2.6463,-2.6802,-2.6223,-2.5983,-2.6256,-2.6409,-2.6594,-2.6627,-2.6789,-2.702,-2.7508,-2.7727,-2.8322,-2.8902,-2.9812,-3.0822,-3.1967,-3.2507,-3.2743,-3.3591,-3.3597,-3.3822,-2.8803,-2.8803,-2.8803,-2.8803,-2.8803,-2.8803,-2.8803,-2.8803,-2.8803,-2.8989,-2.9226,-2.9401,-2.9674,-3.0024,-3.0472,-3.093,-3.1389,-3.1542,-3.1567,-3.1545,-3.128,-3.104,-3.0865,-3.0581,-3.0351,-3.022,-3.022,-3.0035,-2.9729,-2.9379,-2.9197,-2.9044,-2.9033,-2.8957,-2.8836,-2.8803,-2.8803,-2.8803,-2.8803,-2.8792,-2.876,-2.844,-2.8276,-2.8222,-2.7938,-2.7479,-2.6878,-2.6813,-2.6715,-2.6398,-2.6212,-2.6059,-2.5928,-2.5895,-2.5895,-2.5895,-2.5895,-2.5895,-2.5895,-2.5895,-2.5895,-2.5895,-2.5895,-2.5895,-2.5895,-2.5895,-2.5895,-2.5895,-2.5895,-2.5895,-2.5895,-2.5895,-2.5895,-2.5895,-2.5895,-2.5895,-2.5895,-2.5895,-2.5895,-2.5895,-2.5895,-2.5895,-2.5928,-2.6059,-2.6136,-2.6147,-2.6245,-2.6354,-2.6354,-2.6365,-2.6441,-2.6769,-2.6802,-2.6955,-2.7108,-2.6812,-2.6594,-2.6823,-2.6976,-2.7206,-2.7678,-2.7766,-2.8075,-2.8525,-2.9147,-2.9839,-3.0689,-3.1563,-3.2672,-3.3933,-3.4243,-3.4304,-3.4734,-3.4896,-3.4799,-2.8803,-2.8803,-2.8803,-2.8803,-2.8803,-2.8803,-2.8803,-2.8803,-2.8803,-2.8836,-2.8946,-2.9248,-2.9434,-2.9576,-2.9991,-3.045,-3.0843,-3.1258,-3.148,-3.1597,-3.1534,-3.1334,-3.0974,-3.093,-3.0712,-3.0362,-3.0264,-3.0231,-3.0209,-3.01,-2.986,-2.9543,-2.9434,-2.9252,-2.8836,-2.8836,-2.8803,-2.8803,-2.8803,-2.8803,-2.8803,-2.876,-2.8738,-2.876,-2.8705,-2.8289,-2.7392,-2.7337,-2.7227,-2.7184,-2.6802,-2.6377,-2.6092,-2.6026,-2.595,-2.5972,-2.5939,-2.5928,-2.5895,-2.5895,-2.5895,-2.5895,-2.5895,-2.5895,-2.5895,-2.5895,-2.5895,-2.5895,-2.5906,-2.5917,-2.595,-2.5983,-2.595,-2.5895,-2.5895,-2.5895,-2.5895,-2.5917,-2.5928,-2.6005,-2.6059,-2.595,-2.6037,-2.6354,-2.6616,-2.6693,-2.69,-2.7119,-2.713,-2.7195,-2.7305,-2.7437,-2.7755,-2.8151,-2.7778,-2.737,-2.7459,-2.7525,-2.7646,-2.7822,-2.8758,-2.9178,-2.9622,-3.0107,-3.0857,-3.1612,-3.2713,-3.3524,-3.3934,-3.4868,-3.5209,-3.5332,-3.5345,-3.5318,-3.5154,-2.8803,-2.8803,-2.8803,-2.8803,-2.8803,-2.8803,-2.8803,-2.8803,-2.8803,-2.8803,-2.8836,-2.8957,-2.9033,-2.9142,-2.9489,-2.9794,-2.9958,-3.0428,-3.0985,-3.1458,-3.1556,-3.152,-3.14,-3.1389,-3.1273,-3.1149,-3.0832,-3.0679,-3.0635,-3.0373,-3.0111,-2.9958,-2.9652,-2.9423,-2.9274,-2.8989,-2.8803,-2.8803,-2.8803,-2.8803,-2.8803,-2.8803,-2.8803,-2.8803,-2.8803,-2.8628,-2.8309,-2.7992,-2.762,-2.7359,-2.7173,-2.702,-2.6889,-2.6878,-2.6725,-2.6441,-2.6366,-2.6223,-2.595,-2.5917,-2.5939,-2.5917,-2.5917,-2.5895,-2.5895,-2.5928,-2.5939,-2.5928,-2.5917,-2.6016,-2.631,-2.6398,-2.6278,-2.5939,-2.5895,-2.5961,-2.6016,-2.6223,-2.6529,-2.6813,-2.6867,-2.6867,-2.6878,-2.7108,-2.7261,-2.7239,-2.7393,-2.7502,-2.7481,-2.8096,-2.8415,-2.8719,-2.9215,-2.9593,-2.9487,-2.9433,-2.9489,-2.932,-2.912,-2.9196,-2.9992,-3.0565,-3.1036,-3.1724,-3.2506,-3.3338,-3.4515,-3.5073,-3.525,-3.5372,-3.5507,-3.5548,-3.5588,-3.548,-3.5318,-2.9325,-2.9325,-2.9681,-2.9818,-2.9863,-2.9863,-2.9818,-2.9863,-2.9863,-2.9863,-2.9818,-2.9474,-2.9325,-2.9311,-2.9308,-2.9361,-2.951,-2.9816,-3.0351,-3.1007,-3.1094,-3.1181,-3.1356,-3.1513,-3.1874,-3.2123,-3.1895,-3.1751,-3.1728,-3.1461,-3.1031,-3.0526,-3.0533,-3.0179,-2.9653,-2.9584,-2.9455,-2.8929,-2.8803,-2.8803,-2.8803,-2.8803,-2.8803,-2.8803,-2.8803,-2.8803,-2.8771,-2.8462,-2.8167,-2.7872,-2.7697,-2.7512,-2.7348,-2.7282,-2.7173,-2.6922,-2.6867,-2.6693,-2.6463,-2.6474,-2.6431,-2.642,-2.6431,-2.6431,-2.6431,-2.642,-2.642,-2.6431,-2.6452,-2.6551,-2.6824,-2.6889,-2.6725,-2.6485,-2.6463,-2.6431,-2.6474,-2.6693,-2.6944,-2.7239,-2.7557,-2.7766,-2.7821,-2.846,-2.8581,-2.8627,-2.8807,-2.8876,-2.8997,-2.9459,-2.9887,-3.0214,-3.0505,-3.0934,-3.138,-3.1517,-3.1616,-3.1297,-3.091,-3.1085,-3.1593,-3.1834,-3.2192,-3.3204,-3.4035,-3.4354,-3.5372,-3.5453,-3.5588,-3.571,-3.571,-3.5669,-3.5629,-3.5588,-3.548,-3.0306,-3.0384,-3.1178,-3.1444,-3.1444,-3.1444,-3.1356,-3.1488,-3.1444,-3.1412,-3.1267,-3.0609,-3.026,-3.0079,-2.9622,-2.9533,-2.9595,-2.9828,-3.0024,-3.0255,-3.0339,-3.0536,-3.0854,-3.1366,-3.2035,-3.2826,-3.3051,-3.3208,-3.3197,-3.3162,-3.2562,-3.1539,-3.2048,-3.1695,-3.0586,-3.0763,-3.0352,-2.9318,-2.9022,-2.8978,-2.885,-2.8803,-2.8803,-2.8803,-2.8803,-2.8803,-2.8792,-2.8749,-2.876,-2.8716,-2.8265,-2.7905,-2.7534,-2.7403,-2.7479,-2.7381,-2.7359,-2.7249,-2.7293,-2.7151,-2.7173,-2.7162,-2.7151,-2.7315,-2.7173,-2.7119,-2.7119,-2.7151,-2.7173,-2.725,-2.7315,-2.7525,-2.7558,-2.7591,-2.7568,-2.7447,-2.7403,-2.7558,-2.7943,-2.8021,-2.8336,-2.8887,-2.9026,-3.0024,-3.0536,-3.0754,-3.0918,-3.0961,-3.1097,-3.1081,-3.1536,-3.1736,-3.1857,-3.221,-3.2636,-3.2636,-3.2766,-3.2728,-3.2457,-3.2678,-3.2943,-3.3139,-3.3365,-3.44,-3.5046,-3.5467,-3.5669,-3.571,-3.571,-3.571,-3.571,-3.571,-3.5669,-3.5629,-3.5629,-3.1223,-3.1267,-3.1488,-3.1577,-3.1577,-3.1577,-3.1621,-3.1621,-3.1621,-3.1709,-3.1533,-3.1368,-3.1223,-3.1178,-3.0968,-3.096,-3.0955,-3.0966,-3.0627,-3.0284,-3.0215,-3.0276,-3.0524,-3.1229,-3.1976,-3.2739,-3.3369,-3.3945,-3.435,-3.4301,-3.4083,-3.3781,-3.3575,-3.3375,-3.2877,-3.2308,-3.1539,-3.0513,-3.0022,-2.9463,-2.8932,-2.8885,-2.8803,-2.8803,-2.885,-2.885,-2.8803,-2.8803,-2.8803,-2.8803,-2.8694,-2.8574,-2.8377,-2.8355,-2.8156,-2.7849,-2.7794,-2.7631,-2.7413,-2.7359,-2.7337,-2.7315,-2.7413,-2.7315,-2.7315,-2.7326,-2.7315,-2.7315,-2.7326,-2.7534,-2.7898,-2.85,-2.9257,-3.0094,-2.9291,-2.8623,-2.894,-2.9546,-3.0087,-3.0429,-3.0628,-3.0735,-3.0846,-3.116,-3.1554,-3.1547,-3.1676,-3.1797,-3.2059,-3.2364,-3.2636,-3.2907,-3.3114,-3.3479,-3.3729,-3.3729,-3.3814,-3.3953,-3.3956,-3.4053,-3.4288,-3.4454,-3.4716,-3.5263,-3.5345,-3.5669,-3.571,-3.571,-3.571,-3.571,-3.571,-3.571,-3.571,-3.5669,-3.5669,-3.2202,-3.2234,-3.2636,-3.2766,-3.2766,-3.2766,-3.2766,-3.2766,-3.2766,-3.2766,-3.2679,-3.2333,-3.2202,-3.2159,-3.1753,-3.1577,-3.1577,-3.1577,-3.1279,-3.0878,-3.0824,-3.0525,-3.0359,-3.0999,-3.2001,-3.2805,-3.335,-3.4123,-3.476,-3.4666,-3.4595,-3.4727,-3.4929,-3.4661,-3.3861,-3.3683,-3.2587,-3.1286,-3.0798,-3.0351,-2.9463,-2.9772,-2.9681,-2.9635,-2.9681,-2.9852,-2.9509,-2.9428,-2.9244,-2.8932,-2.8803,-2.8803,-2.8803,-2.8803,-2.8672,-2.8342,-2.8342,-2.82,-2.8003,-2.7916,-2.7916,-2.7927,-2.7916,-2.7916,-2.7949,-2.7916,-2.8006,-2.8511,-2.8522,-2.8891,-2.943,-3.0045,-3.0717,-3.1233,-3.0937,-3.045,-3.042,-3.0838,-3.1264,-3.1624,-3.1928,-3.219,-3.2234,-3.2494,-3.2722,-3.2796,-3.2943,-3.2938,-3.298,-3.3335,-3.356,-3.3687,-3.3827,-3.3995,-3.4092,-3.4092,-3.4176,-3.4397,-3.4605,-3.488,-3.5044,-3.5236,-3.5318,-3.544,-3.5588,-3.571,-3.571,-3.571,-3.571,-3.571,-3.571,-3.571,-3.571,-3.571,-3.571,-3.3164,-3.3194,-3.4037,-3.4397,-3.4314,-3.4356,-3.4176,-3.4314,-3.4217,-3.4217,-3.4092,-3.3475,-3.3164,-3.3079,-3.2494,-3.1972,-3.1972,-3.219,-3.1928,-3.1753,-3.1524,-3.0991,-3.0289,-3.132,-3.2369,-3.323,-3.3346,-3.4296,-3.5107,-3.4767,-3.4698,-3.5301,-3.6053,-3.5762,-3.5056,-3.4802,-3.3539,-3.2057,-3.1744,-3.1291,-3.0609,-3.0923,-3.0911,-3.0519,-3.0911,-3.0777,-3.0339,-3.0227,-2.9954,-2.8978,-2.8932,-2.9024,-2.9024,-2.8978,-2.9095,-2.92,-2.9293,-2.9247,-2.9154,-2.9226,-2.912,-2.9214,-2.919,-2.9059,-2.9202,-2.9249,-2.9511,-3.011,-3.0328,-3.0639,-3.1348,-3.1716,-3.1879,-3.2166,-3.2703,-3.2611,-3.2159,-3.1884,-3.1884,-3.1928,-3.2722,-3.3066,-3.3335,-3.3784,-3.4314,-3.3645,-3.3784,-3.3729,-3.3729,-3.3911,-3.405,-3.4176,-3.4272,-3.4314,-3.4356,-3.4356,-3.4439,-3.4564,-3.4825,-3.5072,-3.5236,-3.5358,-3.544,-3.5521,-3.5642,-3.5723,-3.571,-3.571,-3.571,-3.571,-3.571,-3.571,-3.571,-3.571,-3.571,-3.4092,-3.4134,-3.4301,-3.4397,-3.4397,-3.4397,-3.4397,-3.4397,-3.4397,-3.4397,-3.4356,-3.4134,-3.405,-3.4037,-3.3729,-3.3771,-3.3645,-3.3602,-3.342,-3.2636,-3.1896,-3.1536,-3.138,-3.2273,-3.3037,-3.3676,-3.4488,-3.519,-3.5729,-3.5929,-3.6379,-3.6513,-3.6898,-3.7394,-3.6939,-3.5897,-3.5238,-3.3961,-3.3133,-3.2215,-3.1533,-3.1577,-3.1665,-3.14,-3.1533,-3.1101,-3.0564,-3.0923,-3.0833,-3.017,-2.9954,-3.0,-2.9897,-2.9897,-3.0158,-3.0643,-3.0866,-3.0923,-3.0956,-3.0833,-3.0956,-3.0789,-3.0744,-3.0989,-3.1,-3.0878,-3.1012,-3.1323,-3.1311,-3.1753,-3.2537,-3.271,-3.298,-3.3475,-3.3827,-3.3966,-3.3827,-3.3729,-3.3602,-3.3742,-3.3827,-3.4092,-3.4037,-3.4134,-3.4397,-3.4397,-3.4397,-3.4397,-3.4397,-3.4397,-3.4397,-3.4397,-3.4397,-3.4397,-3.4397,-3.4439,-3.4564,-3.4701,-3.4949,-3.5236,-3.5399,-3.5521,-3.5562,-3.5602,-3.5683,-3.5723,-3.571,-3.571,-3.571,-3.571,-3.571,-3.571,-3.571,-3.571,-3.571,-3.4494,-3.4397,-3.4397,-3.4397,-3.4397,-3.4397,-3.4397,-3.4397,-3.4397,-3.4397,-3.4397,-3.4397,-3.4397,-3.4397,-3.4397,-3.4356,-3.4397,-3.4397,-3.4134,-3.3602,-3.3122,-3.298,-3.2938,-3.3305,-3.3709,-3.3662,-3.389,-3.4684,-3.5505,-3.5719,-3.5878,-3.694,-3.7338,-3.7521,-3.7704,-3.6724,-3.5607,-3.4711,-3.4061,-3.3207,-3.2407,-3.2722,-3.2907,-3.2636,-3.2147,-3.1444,-3.1621,-3.1984,-3.1721,-3.1235,-3.1279,-3.1267,-3.0911,-3.0833,-3.1134,-3.1444,-3.1577,-3.1577,-3.1577,-3.1577,-3.1533,-3.1621,-3.1621,-3.1577,-3.1577,-3.1577,-3.1884,-3.2159,-3.2333,-3.2636,-3.3505,-3.3645,-3.4008,-3.423,-3.4397,-3.4397,-3.4397,-3.4397,-3.4397,-3.4397,-3.4314,-3.4356,-3.4397,-3.4397,-3.4397,-3.4397,-3.4397,-3.4397,-3.4397,-3.4397,-3.4397,-3.4397,-3.4397,-3.4397,-3.4397,-3.4481,-3.4647,-3.4825,-3.5031,-3.5318,-3.5548,-3.5629,-3.5669,-3.5723,-3.5723,-3.5723,-3.571,-3.571,-3.571,-3.571,-3.571,-3.571,-3.571,-3.571,-3.571,-3.4673,-3.4439,-3.4397,-3.4397,-3.4397,-3.4397,-3.4397,-3.4397,-3.4397,-3.4397,-3.4397,-3.4397,-3.4397,-3.4397,-3.4397,-3.4397,-3.4397,-3.4397,-3.4272,-3.4217,-3.4134,-3.4092,-3.4134,-3.4147,-3.3979,-3.3262,-3.3496,-3.42,-3.471,-3.4627,-3.5355,-3.6517,-3.6985,-3.726,-3.7403,-3.6823,-3.5997,-3.5309,-3.4779,-3.4228,-3.3573,-3.3972,-3.4134,-3.3869,-3.3066,-3.2407,-3.2722,-3.2938,-3.2766,-3.1972,-3.2722,-3.2679,-3.2234,-3.184,-3.194,-3.2016,-3.2234,-3.2321,-3.2364,-3.2234,-3.2202,-3.2016,-3.2059,-3.2103,-3.2147,-3.2277,-3.2636,-3.295,-3.325,-3.3518,-3.4314,-3.4272,-3.4314,-3.4397,-3.4397,-3.4397,-3.4397,-3.4397,-3.4397,-3.4397,-3.4397,-3.4397,-3.4397,-3.4397,-3.4397,-3.4397,-3.4397,-3.4397,-3.4397,-3.4397,-3.4397,-3.4397,-3.4397,-3.4481,-3.4535,-3.4577,-3.4743,-3.499,-3.5154,-3.5358,-3.5588,-3.5669,-3.571,-3.571,-3.571,-3.571,-3.571,-3.571,-3.571,-3.571,-3.571,-3.571,-3.571,-3.571,-3.571,-3.4756,-3.4714,-3.4494,-3.4397,-3.4397,-3.4397,-3.4397,-3.4397,-3.4397,-3.4397,-3.4397,-3.4397,-3.4397,-3.4397,-3.4397,-3.4397,-3.4397,-3.4397,-3.4397,-3.4397,-3.4397,-3.4397,-3.4397,-3.4397,-3.4272,-3.4217,-3.4092,-3.4279,-3.4614,-3.491,-3.5163,-3.5739,-3.6475,-3.6998,-3.7103,-3.6907,-3.6622,-3.6224,-3.5574,-3.4985,-3.4747,-3.4464,-3.4397,-3.4384,-3.3814,-3.3518,-3.325,-3.3729,-3.3729,-3.298,-3.3687,-3.3953,-3.3658,-3.3122,-3.3122,-3.3518,-3.3658,-3.356,-3.3602,-3.3784,-3.3869,-3.3953,-3.3742,-3.3771,-3.3784,-3.3784,-3.3742,-3.3869,-3.405,-3.4217,-3.4356,-3.4397,-3.4397,-3.4397,-3.4397,-3.4397,-3.4397,-3.4397,-3.4397,-3.4397,-3.4397,-3.4397,-3.4397,-3.4397,-3.4397,-3.4397,-3.4397,-3.4397,-3.4397,-3.4397,-3.4452,-3.441,-3.4397,-3.4535,-3.4701,-3.4743,-3.488,-3.5154,-3.5318,-3.5399,-3.5588,-3.5669,-3.571,-3.571,-3.571,-3.571,-3.571,-3.571,-3.571,-3.571,-3.571,-3.571,-3.571,-3.571,-3.571,-3.5003,-3.4797,-3.466,-3.4535,-3.4397,-3.4397,-3.4397,-3.4397,-3.4397,-3.4397,-3.4397,-3.4397,-3.4397,-3.4397,-3.4397,-3.4397,-3.4397,-3.4397,-3.4397,-3.4397,-3.4397,-3.4397,-3.4397,-3.4397,-3.4397,-3.4397,-3.4397,-3.4397,-3.4424,-3.4659,-3.4999,-3.5378,-3.5913,-3.6384,-3.6789,-3.6671,-3.6802,-3.6711,-3.6188,-3.5561,-3.5273,-3.4711,-3.445,-3.4397,-3.4397,-3.4134,-3.3966,-3.405,-3.4176,-3.3911,-3.4147,-3.4356,-3.4272,-3.4092,-3.3911,-3.4314,-3.4397,-3.4397,-3.4397,-3.4397,-3.4356,-3.4356,-3.4397,-3.4397,-3.4397,-3.4314,-3.4397,-3.4397,-3.4397,-3.4397,-3.4397,-3.4397,-3.4397,-3.4397,-3.4397,-3.4397,-3.4397,-3.4397,-3.4397,-3.4439,-3.4439,-3.4439,-3.4397,-3.4397,-3.4397,-3.4397,-3.4397,-3.4397,-3.4439,-3.4535,-3.4577,-3.4535,-3.4535,-3.4743,-3.4867,-3.4949,-3.5044,-3.5318,-3.544,-3.5507,-3.5588,-3.5669,-3.571,-3.571,-3.571,-3.571,-3.571,-3.571,-3.571,-3.571,-3.571,-3.571,-3.571,-3.571,-3.571,-3.5195,-3.4839,-3.481,-3.4673,-3.441,-3.4397,-3.4397,-3.4397,-3.4397,-3.4397,-3.4397,-3.4397,-3.4397,-3.4397,-3.4397,-3.4397,-3.4397,-3.4397,-3.4397,-3.4397,-3.4397,-3.4397,-3.4397,-3.4397,-3.4397,-3.4397,-3.4397,-3.4397,-3.4397,-3.4463,-3.4685,-3.5064,-3.5247,-3.5835,-3.6515,-3.675,-3.6776,-3.6828,-3.658,-3.6005,-3.5325,-3.4842,-3.4489,-3.441,-3.4397,-3.4384,-3.4314,-3.4356,-3.4397,-3.4314,-3.4356,-3.4397,-3.4397,-3.4397,-3.4397,-3.4397,-3.4397,-3.4397,-3.4397,-3.4397,-3.4397,-3.4397,-3.4397,-3.4397,-3.4397,-3.4397,-3.4397,-3.4397,-3.4397,-3.4397,-3.4397,-3.4397,-3.4397,-3.4397,-3.4397,-3.4397,-3.4494,-3.4535,-3.4577,-3.4577,-3.4522,-3.4481,-3.4481,-3.4397,-3.4397,-3.4481,-3.4481,-3.4577,-3.4618,-3.4756,-3.4797,-3.4701,-3.4743,-3.4908,-3.5072,-3.5154,-3.5277,-3.544,-3.5548,-3.5588,-3.5629,-3.571,-3.571,-3.571,-3.571,-3.571,-3.571,-3.571,-3.571,-3.571,-3.571,-3.571,-3.571,-3.571,-3.571,-3.5277,-3.5044,-3.488,-3.466,-3.4397,-3.4397,-3.4397,-3.4397,-3.4397,-3.4397,-3.4397,-3.4397,-3.4397,-3.4397,-3.4397,-3.4397,-3.4397,-3.4397,-3.4397,-3.4397,-3.4397,-3.4397,-3.4397,-3.4397,-3.4397,-3.4397,-3.4397,-3.4397,-3.4397,-3.4397,-3.4463,-3.475,-3.5482,-3.6136,-3.6449,-3.6998,-3.7717,-3.7665,-3.7155,-3.6345,-3.5495,-3.5195,-3.4816,-3.4528,-3.4397,-3.4397,-3.4397,-3.4397,-3.4397,-3.4397,-3.4397,-3.4397,-3.4397,-3.4397,-3.4397,-3.4397,-3.4397,-3.4397,-3.4397,-3.4397,-3.4397,-3.4397,-3.4397,-3.4397,-3.4397,-3.4397,-3.4397,-3.4397,-3.4397,-3.4397,-3.4397,-3.4397,-3.4397,-3.4439,-3.4439,-3.4577,-3.466,-3.4743,-3.4784,-3.4825,-3.4825,-3.4647,-3.4564,-3.4481,-3.4397,-3.4494,-3.4577,-3.466,-3.4756,-3.4921,-3.5127,-3.5072,-3.499,-3.5113,-3.5277,-3.5358,-3.544,-3.5588,-3.5629,-3.5629,-3.5669,-3.571,-3.571,-3.571,-3.571,-3.571,-3.571,-3.571,-3.571,-3.571,-3.571,-3.571,-3.571,-3.571,-3.571,-3.5399,-3.5086,-3.5003,-3.4743,-3.4397,-3.4397,-3.4397,-3.4397,-3.4397,-3.4397,-3.4397,-3.4397,-3.4397,-3.4397,-3.4397,-3.4397,-3.4397,-3.4397,-3.4397,-3.4397,-3.4397,-3.4397,-3.4397,-3.4397,-3.4397,-3.4397,-3.4397,-3.4397,-3.4397,-3.445,-3.4515,-3.4946,-3.543,-3.6031,-3.6488,-3.7116,-3.7547,-3.7508,-3.7011,-3.6279,-3.573,-3.5155,-3.4672,-3.441,-3.4397,-3.4397,-3.4397,-3.4397,-3.4397,-3.4397,-3.4397,-3.4397,-3.4397,-3.4397,-3.4397,-3.4397,-3.4397,-3.4397,-3.4397,-3.4397,-3.4397,-3.4397,-3.4397,-3.4397,-3.4397,-3.4397,-3.4397,-3.4397,-3.4397,-3.4397,-3.4397,-3.4397,-3.4494,-3.4577,-3.4564,-3.4743,-3.4908,-3.4949,-3.5003,-3.5072,-3.5113,-3.4949,-3.4867,-3.4825,-3.4784,-3.4784,-3.4867,-3.4949,-3.4949,-3.5003,-3.5236,-3.544,-3.5358,-3.5358,-3.548,-3.5562,-3.5562,-3.5669,-3.5669,-3.5669,-3.5669,-3.571,-3.571,-3.571,-3.571,-3.571,-3.571,-3.571,-3.571,-3.571,-3.571,-3.571,-3.571,-3.571,-3.571,-3.548,-3.5168,-3.5113,-3.4825,-3.4397,-3.4397,-3.4397,-3.4397,-3.4494,-3.4481,-3.4481,-3.4494,-3.4535,-3.4522,-3.4535,-3.4535,-3.4494,-3.4564,-3.4481,-3.4439,-3.4439,-3.4494,-3.4439,-3.4397,-3.4397,-3.4397,-3.4397,-3.4397,-3.445,-3.4593,-3.4907,-3.5312,-3.577,-3.6214,-3.6802,-3.7233,-3.7521,-3.7469,-3.6658,-3.607,-3.5717,-3.509,-3.4672,-3.4463,-3.4397,-3.4397,-3.4397,-3.4397,-3.4397,-3.4397,-3.4397,-3.4397,-3.4397,-3.4397,-3.4397,-3.4397,-3.4397,-3.4452,-3.4439,-3.4439,-3.4397,-3.4397,-3.4397,-3.4397,-3.4397,-3.4397,-3.4397,-3.4397,-3.4397,-3.4397,-3.4397,-3.4439,-3.459,-3.4714,-3.4797,-3.5003,-3.5113,-3.5154,-3.5236,-3.5358,-3.5358,-3.5331,-3.5249,-3.5249,-3.5208,-3.5113,-3.5113,-3.5195,-3.5195,-3.5236,-3.5358,-3.5588,-3.5588,-3.5521,-3.5602,-3.5683,-3.571,-3.571,-3.571,-3.571,-3.571,-3.571,-3.571,-3.571,-3.571,-3.571,-3.571,-3.571,-3.571,-3.571,-3.571,-3.571,-3.571,-3.571,-3.571,-3.5548,-3.5358,-3.5208,-3.4825,-3.4439,-3.4397,-3.4397,-3.4494,-3.466,-3.4756,-3.4756,-3.4756,-3.488,-3.4921,-3.4839,-3.4756,-3.4797,-3.4962,-3.4784,-3.4618,-3.4618,-3.4618,-3.4577,-3.4481,-3.4439,-3.4481,-3.4481,-3.4452,-3.4528,-3.4949,-3.5142,-3.5391,-3.6149,-3.6698,-3.7116,-3.7403,-3.7351,-3.7142,-3.6371,-3.5809,-3.5534,-3.5142,-3.4868,-3.4489,-3.4397,-3.4397,-3.4397,-3.4397,-3.4439,-3.4439,-3.4439,-3.4481,-3.4522,-3.4522,-3.4522,-3.4535,-3.4522,-3.4618,-3.466,-3.4535,-3.4397,-3.4397,-3.4397,-3.4439,-3.4481,-3.4439,-3.4397,-3.4481,-3.4535,-3.4481,-3.4522,-3.4618,-3.4797,-3.4921,-3.5044,-3.5154,-3.5318,-3.5358,-3.548,-3.5602,-3.5602,-3.5521,-3.5521,-3.548,-3.5399,-3.5318,-3.5318,-3.5399,-3.5521,-3.5521,-3.5548,-3.5669,-3.5669,-3.5669,-3.5669,-3.571,-3.571,-3.571,-3.571,-3.571,-3.571,-3.571,-3.571,-3.571,-3.571,-3.571,-3.571,-3.571,-3.571,-3.571,-3.571,-3.571,-3.571,-3.571,-3.571,-3.5602,-3.5399,-3.5318,-3.5113,-3.4825,-3.4825,-3.4825,-3.4867,-3.4962,-3.5003,-3.5003,-3.5003,-3.5044,-3.5086,-3.5044,-3.4962,-3.5003,-3.5044,-3.4949,-3.4908,-3.4908,-3.4908,-3.4825,-3.4784,-3.4825,-3.4784,-3.4701,-3.4673,-3.4739,-3.5139,-3.5263,-3.5639,-3.6467,-3.7129,-3.7469,-3.7312,-3.7116,-3.6802,-3.6123,-3.5469,-3.5325,-3.4894,-3.4633,-3.445,-3.4397,-3.4397,-3.4397,-3.4397,-3.4481,-3.4577,-3.4618,-3.4701,-3.4784,-3.4771,-3.4784,-3.4784,-3.4784,-3.4867,-3.488,-3.466,-3.4397,-3.4439,-3.4535,-3.4673,-3.466,-3.4743,-3.4825,-3.4825,-3.4825,-3.4771,-3.4867,-3.4921,-3.5044,-3.5168,-3.5277,-3.5399,-3.548,-3.5521,-3.5562,-3.5683,-3.5683,-3.5683,-3.5669,-3.5669,-3.5602,-3.5521,-3.5548,-3.5588,-3.5669,-3.571,-3.571,-3.571,-3.571,-3.571,-3.571,-3.571,-3.571,-3.571,-3.571,-3.571,-3.571,-3.571,-3.571,-3.571,-3.571,-3.571,-3.571,-3.571,-3.571,-3.571,-3.571,-3.571,-3.571,-3.571,-3.571,-3.5602,-3.548,-3.5494,-3.5318,-3.5113,-3.5072,-3.5072,-3.5113,-3.5168,-3.5236,-3.5277,-3.5236,-3.5236,-3.5236,-3.5195,-3.5195,-3.5236,-3.5236,-3.5195,-3.5168,-3.5127,-3.5154,-3.5113,-3.5072,-3.5031,-3.5044,-3.5003,-3.488,-3.4906,-3.5265,-3.5489,-3.5831,-3.6376,-3.7033,-3.6998,-3.6828,-3.6515,-3.624,-3.5639,-3.5093,-3.5031,-3.4714,-3.452,-3.4481,-3.4452,-3.4397,-3.4397,-3.4397,-3.4535,-3.466,-3.4797,-3.4893,-3.5003,-3.5072,-3.5072,-3.5113,-3.5113,-3.5113,-3.5072,-3.4867,-3.4605,-3.4688,-3.4784,-3.488,-3.4921,-3.5003,-3.5044,-3.5044,-3.5072,-3.5113,-3.5113,-3.5168,-3.5208,-3.5318,-3.544,-3.5562,-3.5588,-3.5629,-3.5669,-3.571,-3.571,-3.571,-3.571,-3.571,-3.5669,-3.5629,-3.5629,-3.5629,-3.5669,-3.571,-3.571,-3.571,-3.571,-3.571,-3.571,-3.571,-3.571,-3.571,-3.571,-3.571,-3.571,-3.571,-3.571,-3.571,-3.571,-3.571,-3.571,-3.571,-3.571,-3.571,-3.571,-3.571,-3.571,-3.571,-3.571,-3.5723,-3.571,-3.5669,-3.548,-3.5154,-3.5127,-3.5113,-3.5195,-3.5318,-3.548,-3.5602,-3.548,-3.548,-3.5548,-3.544,-3.5399,-3.544,-3.5548,-3.548,-3.5277,-3.5318,-3.5277,-3.5195,-3.5154,-3.5236,-3.5113,-3.5072,-3.5072,-3.5086,-3.54,-3.5679,-3.5838,-3.6207,-3.6554,-3.6153,-3.5639,-3.5378,-3.5286,-3.4832,-3.4789,-3.482,-3.4616,-3.4632,-3.466,-3.4618,-3.4522,-3.4522,-3.4535,-3.4701,-3.488,-3.4921,-3.5003,-3.5154,-3.5195,-3.5195,-3.5154,-3.5154,-3.5236,-3.5318,-3.5154,-3.5072,-3.499,-3.5044,-3.5072,-3.5086,-3.5127,-3.5154,-3.5236,-3.5208,-3.5154,-3.5195,-3.5277,-3.5399,-3.544,-3.5602,-3.5629,-3.5669,-3.571,-3.571,-3.571,-3.571,-3.571,-3.571,-3.571,-3.571,-3.571,-3.571,-3.571,-3.571,-3.571,-3.571,-3.571,-3.571,-3.571,-3.571,-3.571,-3.571,-3.571,-3.571,-3.571,-3.571,-3.571,-3.571,-3.571,-3.571,-3.571,-3.571,-3.571,-3.571,-3.571,-3.571,-3.571,-3.571,-3.571,-3.571,-3.571,-3.571,-3.571,-3.5629,-3.5521,-3.548,-3.548,-3.5521,-3.5548,-3.5629,-3.5683,-3.5602,-3.5629,-3.5629,-3.5629,-3.5602,-3.5602,-3.5629,-3.5548,-3.5521,-3.5548,-3.5548,-3.5521,-3.544,-3.5494,-3.544,-3.5399,-3.5277,-3.529,-3.5489,-3.5393,-3.5459,-3.5767,-3.6013,-3.6244,-3.6029,-3.5711,-3.5619,-3.5224,-3.4921,-3.4962,-3.4908,-3.4867,-3.5003,-3.4867,-3.4825,-3.4812,-3.4784,-3.4908,-3.5113,-3.5154,-3.5236,-3.544,-3.548,-3.548,-3.548,-3.548,-3.5521,-3.5548,-3.548,-3.5372,-3.5277,-3.5236,-3.5277,-3.5277,-3.544,-3.548,-3.548,-3.544,-3.544,-3.5548,-3.5548,-3.5588,-3.5602,-3.5683,-3.5669,-3.571,-3.571,-3.571,-3.571,-3.571,-3.571,-3.571,-3.571,-3.571,-3.571,-3.571,-3.571,-3.571,-3.571,-3.571,-3.571,-3.571,-3.571,-3.571,-3.571,-3.571,-3.571,-3.571,-3.571,-3.571,-3.571,-3.571,-3.571,-3.571,-3.571,-3.571,-3.571,-3.571,-3.571,-3.571,-3.571,-3.571,-3.571,-3.571,-3.571,-3.571,-3.571,-3.571,-3.571,-3.571,-3.571,-3.571,-3.571,-3.571,-3.571,-3.571,-3.571,-3.571,-3.571,-3.571,-3.571,-3.571,-3.571,-3.571,-3.571,-3.5669,-3.5669,-3.571,-3.5642,-3.5669,-3.5588,-3.548,-3.5521,-3.5399,-3.5385,-3.5358,-3.5331,-3.576,-3.6026,-3.5835,-3.5563,-3.5457,-3.5151,-3.5113,-3.5154,-3.5113,-3.5127,-3.5168,-3.5113,-3.5072,-3.5072,-3.5113,-3.5195,-3.5358,-3.544,-3.5521,-3.5642,-3.571,-3.571,-3.571,-3.571,-3.5669,-3.5669,-3.5669,-3.5521,-3.5413,-3.544,-3.548,-3.5521,-3.5588,-3.5629,-3.5669,-3.571,-3.571,-3.5669,-3.571,-3.571,-3.5723,-3.5723,-3.571,-3.571,-3.571,-3.571,-3.571,-3.571,-3.571,-3.571,-3.571,-3.571,-3.571,-3.571,-3.571,-3.571,-3.571,-3.571,-3.571,-3.571,-3.571,-3.571,-3.571,-3.571,-3.571,-3.571,-3.571,-3.571,-3.571,-3.571,-3.571,-3.571,-3.571,-3.571,-3.571,-3.571,-3.571,-3.571,-3.571,-3.571,-3.571,-3.571,-3.571,-3.571,-3.571,-3.571,-3.571,-3.571,-3.571,-3.5723,-3.575,-3.5778,-3.5764,-3.5873,-3.5927,-3.5805,-3.5778,-3.5764,-3.571,-3.571,-3.571,-3.571,-3.571,-3.571,-3.571,-3.571,-3.571,-3.571,-3.5669,-3.5629,-3.5669,-3.5588,-3.5588,-3.5629,-3.5588,-3.5764,-3.5669,-3.556,-3.5397,-3.5356,-3.533,-3.5318,-3.5358,-3.5277,-3.5318,-3.5318,-3.5277,-3.5236,-3.5236,-3.5236,-3.5277,-3.5399,-3.544,-3.5562,-3.5642,-3.571,-3.571,-3.571,-3.571,-3.571,-3.571,-3.571,-3.571,-3.5602,-3.5629,-3.5669,-3.5669,-3.5669,-3.571,-3.571,-3.571,-3.571,-3.571,-3.571,-3.571,-3.571,-3.571,-3.571,-3.571,-3.571,-3.571,-3.571,-3.571,-3.571,-3.571,-3.571,-3.571,-3.571,-3.571,-3.571,-3.571,-3.571,-3.571,-3.571,-3.571,-3.571,-3.571,-3.571,-3.571,-3.571,-3.571,-3.571,-3.571,-3.571,-3.571,-3.571,-3.571,-3.571,-3.571,-3.571,-3.571,-3.571,-3.571,-3.571,-3.571,-3.571,-3.571,-3.571,-3.571,-3.571,-3.571,-3.571,-3.571,-3.571,-3.5764,-3.613,-3.6347,-3.6375,-3.6767,-3.6687,-3.6361,-3.6347,-3.6076,-3.5859,-3.571,-3.571,-3.571,-3.571,-3.571,-3.571,-3.571,-3.571,-3.571,-3.571,-3.571,-3.571,-3.571,-3.571,-3.571,-3.571,-3.571,-3.5669,-3.5588,-3.5521,-3.548,-3.548,-3.5521,-3.5548,-3.5521,-3.5548,-3.5521,-3.5521,-3.548,-3.548,-3.548,-3.5548,-3.5588,-3.5588,-3.5683,-3.5683,-3.571,-3.571,-3.571,-3.571,-3.571,-3.571,-3.571,-3.571,-3.571,-3.571,-3.571,-3.571,-3.571,-3.571,-3.571,-3.571,-3.571,-3.571,-3.571,-3.571,-3.571,-3.571,-3.571,-3.571,-3.571,-3.571,-3.571,-3.571,-3.571,-3.571,-3.571,-3.571,-3.571,-3.571,-3.571,-3.571,-3.571,-3.571,-3.571,-3.571,-3.571,-3.571,-3.571,-3.571,-3.571,-3.571,-3.571,-3.571,-3.571,-3.571,-3.571,-3.571,-3.571,-3.571,-3.571,-3.571,-3.571,-3.571,-3.571,-3.571,-3.571,-3.571,-3.571,-3.571,-3.571,-3.571,-3.571,-3.571,-3.571,-3.5832,-3.6347,-3.6592,-3.6673,-3.7174,-3.7282,-3.6958,-3.67,-3.6402,-3.6103,-3.5818,-3.571,-3.571,-3.571,-3.571,-3.571,-3.571,-3.571,-3.571,-3.571,-3.571,-3.571,-3.571,-3.571,-3.571,-3.571,-3.571,-3.5669,-3.5669,-3.5669,-3.5669,-3.5669,-3.571,-3.571,-3.571,-3.571,-3.571,-3.571,-3.571,-3.571,-3.571,-3.571,-3.571,-3.571,-3.571,-3.571,-3.571,-3.571,-3.571,-3.571,-3.571,-3.571,-3.571,-3.571,-3.571,-3.571,-3.571,-3.571,-3.571,-3.571,-3.571,-3.571,-3.571,-3.571,-3.571,-3.571,-3.571,-3.571,-3.571,-3.571,-3.571,-3.571,-3.571,-3.571,-3.571,-3.571,-3.571,-3.571,-3.571,-3.571,-3.571,-3.571,-3.571,-3.571,-3.571,-3.571,-3.571,-3.571,-3.571,-3.571,-3.571,-3.571,-3.571,-3.571,-3.571,-3.571,-3.571,-3.571,-3.571,-3.571,-3.571,-3.571,-3.571,-3.571,-3.571,-3.571,-3.571,-3.571,-3.5588,-3.5628,-3.5656,-3.571,-3.571,-3.571,-3.571,-3.5791,-3.6347,-3.6646,-3.6809,-3.7309,-3.765,-3.7514,-3.7202,-3.6795,-3.6442,-3.609,-3.5832,-3.5737,-3.571,-3.571,-3.571,-3.571,-3.571,-3.571,-3.571,-3.571,-3.571,-3.571,-3.571,-3.571,-3.571,-3.571,-3.571,-3.571,-3.571,-3.571,-3.571,-3.571,-3.571,-3.571,-3.571,-3.571,-3.571,-3.571,-3.571,-3.571,-3.571,-3.571,-3.571,-3.571,-3.571,-3.571,-3.571,-3.571,-3.571,-3.571,-3.571,-3.571,-3.571,-3.571,-3.571,-3.571,-3.571,-3.571,-3.571,-3.571,-3.571,-3.571,-3.571,-3.571,-3.571,-3.571,-3.571,-3.571,-3.571,-3.571,-3.571,-3.571,-3.571,-3.571,-3.571,-3.571,-3.571,-3.571,-3.571,-3.571,-3.571,-3.571,-3.571,-3.571,-3.571,-3.571,-3.571,-3.571,-3.571,-3.571,-3.571,-3.571,-3.571,-3.571,-3.571,-3.571,-3.571,-3.571,-3.571,-3.571,-3.571,-3.571,-3.571,-3.571,-3.571,-3.571,-3.571,-3.4599,-3.5086,-3.5493,-3.571,-3.571,-3.571,-3.5696,-3.5764,-3.6347,-3.6836,-3.7309,-3.7824,-3.8149,-3.8138,-3.7962,-3.7501,-3.6741,-3.6429,-3.6117,-3.5873,-3.575,-3.571,-3.571,-3.571,-3.571,-3.571,-3.571,-3.571,-3.571,-3.571,-3.571,-3.571,-3.571,-3.571,-3.571,-3.571,-3.571,-3.571,-3.571,-3.571,-3.571,-3.571,-3.571,-3.571,-3.571,-3.571,-3.571,-3.571,-3.571,-3.571,-3.571,-3.571,-3.571,-3.571,-3.571,-3.571,-3.571,-3.571,-3.571,-3.571,-3.571,-3.571,-3.571,-3.571,-3.571,-3.571,-3.571,-3.571,-3.571,-3.571,-3.571,-3.571,-3.571,-3.571,-3.571,-3.571,-3.571,-3.571,-3.571,-3.571,-3.571,-3.571,-3.571,-3.571,-3.571,-3.571,-3.571,-3.571,-3.571,-3.571,-3.571,-3.571,-3.571,-3.571,-3.571,-3.571,-3.571,-3.571,-3.571,-3.571,-3.571,-3.571,-3.571,-3.571,-3.571,-3.571,-3.571,-3.571,-3.571,-3.571,-3.571,-3.571,-3.571,-3.571,-3.571,-3.4097,-3.4436,-3.4748,-3.4897,-3.4938,-3.5168,-3.533,-3.5398,-3.5954,-3.6551,-3.7216,-3.7946,-3.8545,-3.8654,-3.8559,-3.8206,-3.7297,-3.6795,-3.6483,-3.6157,-3.5845,-3.5723,-3.571,-3.571,-3.571,-3.571,-3.571,-3.571,-3.571,-3.571,-3.571,-3.571,-3.571,-3.571,-3.571,-3.571,-3.571,-3.571,-3.571,-3.571,-3.571,-3.571,-3.571,-3.571,-3.571,-3.571,-3.571,-3.571,-3.571,-3.571,-3.571,-3.571,-3.571,-3.571,-3.571,-3.571,-3.571,-3.571,-3.571,-3.571,-3.571,-3.571,-3.571,-3.571,-3.571,-3.571,-3.571,-3.571,-3.571,-3.571,-3.571,-3.571,-3.571,-3.571,-3.571,-3.571,-3.571,-3.571,-3.571,-3.571,-3.571,-3.571,-3.571,-3.571,-3.571,-3.571,-3.571,-3.571,-3.571,-3.571,-3.571,-3.571,-3.571,-3.571,-3.571,-3.571,-3.571,-3.571,-3.571,-3.571,-3.571,-3.571,-3.571,-3.571,-3.571,-3.571,-3.571,-3.571,-3.571,-3.571,-3.571,-3.571,-3.571,-3.571,-3.571,-3.3704,-3.3786,-3.3894,-3.3921,-3.3975,-3.445,-3.468,-3.4761,-3.5262,-3.5791,-3.6415,-3.7473,-3.841,-3.8817,-3.8817,-3.8586,-3.8165,-3.7487,-3.6999,-3.6442,-3.6076,-3.5886,-3.5764,-3.571,-3.571,-3.571,-3.571,-3.571,-3.571,-3.571,-3.571,-3.571,-3.571,-3.571,-3.571,-3.571,-3.571,-3.571,-3.571,-3.571,-3.571,-3.571,-3.571,-3.571,-3.571,-3.571,-3.571,-3.571,-3.571,-3.571,-3.571,-3.571,-3.571,-3.571,-3.571,-3.571,-3.571,-3.571,-3.571,-3.571,-3.571,-3.571,-3.571,-3.571,-3.571,-3.571,-3.571,-3.571,-3.571,-3.571,-3.571,-3.571,-3.571,-3.571,-3.571,-3.571,-3.571,-3.571,-3.571,-3.571,-3.571,-3.571,-3.571,-3.571,-3.571,-3.571,-3.571,-3.571,-3.571,-3.571,-3.571,-3.571,-3.571,-3.571,-3.571,-3.571,-3.571,-3.571,-3.571,-3.571,-3.571,-3.571,-3.571,-3.571,-3.571,-3.571,-3.571,-3.571,-3.571,-3.571,-3.571,-3.571,-3.571,-3.571,-3.571,-3.2793,-3.3305,-3.3691,-3.3894,-3.3908,-3.403,-3.4084,-3.4097,-3.4206,-3.4572,-3.5303,-3.5967,-3.7012,-3.86,-3.9047,-3.8952,-3.8491,-3.7975,-3.7311,-3.6659,-3.6442,-3.613,-3.5859,-3.5764,-3.5723,-3.571,-3.571,-3.571,-3.571,-3.571,-3.571,-3.571,-3.571,-3.571,-3.571,-3.571,-3.571,-3.571,-3.571,-3.571,-3.571,-3.571,-3.571,-3.571,-3.571,-3.571,-3.571,-3.571,-3.571,-3.571,-3.571,-3.571,-3.571,-3.571,-3.571,-3.571,-3.571,-3.571,-3.571,-3.571,-3.571,-3.571,-3.571,-3.571,-3.571,-3.571,-3.571,-3.571,-3.571,-3.571,-3.571,-3.571,-3.571,-3.571,-3.571,-3.571,-3.571,-3.571,-3.571,-3.571,-3.571,-3.571,-3.571,-3.571,-3.571,-3.571,-3.571,-3.571,-3.571,-3.571,-3.571,-3.571,-3.571,-3.571,-3.571,-3.571,-3.571,-3.571,-3.571,-3.571,-3.571,-3.571,-3.571,-3.571,-3.571,-3.571,-3.571,-3.571,-3.571,-3.571,-3.571,-3.571,-3.571,-3.571,-3.571]},{"header":{"parameterUnit":"m.s-1","parameterCategory":1,"la1":31.0,"la2":29.5877,"lo1":-88.7671,"lo2":-86.6584,"dy":0.0162,"dx":0.0185,"nx":115,"ny":88,"refTime":"2023-06-20T06:00:00:Z","depth":0,"parameterNumber":3,"parameterNumberName":"V-component_of_WINDS"},"data":[0.0,0.0,0.0,0.0,0.0,0.0,0.0,0.0,0.0,0.0,0.0,0.0,0.0,0.0,0.0,0.0,0.0,0.0,0.0,0.0,0.0,0.0,0.0,0.0,0.0,0.0,0.0,0.0,0.0,0.0,0.0,0.0,0.0,0.0,0.0,0.0,0.0,0.0,0.0,0.0,0.0,0.0,0.0,0.0,0.0,0.0,0.0,0.0,0.0,0.0,0.0,0.0,0.0,0.0,0.0,0.0,0.0,0.0,0.0,0.0,0.0,0.0,0.0,0.0,0.0,0.0,0.0,0.0,0.0,0.0,0.0,0.0,0.0,0.0,0.0,0.0,0.0,0.0,0.0,0.0,0.0,0.0,0.0,0.0,0.0,0.0,0.0,0.0,0.0,0.0,0.0,0.0,0.0,0.0,0.0,0.0,0.0,0.0,0.0,0.0,0.0,0.0,0.0,0.0,0.0,0.0,0.0,0.0,0.0,0.0,0.0,0.0,0.0,0.0,0.0,0.0,0.0,0.0,0.0,0.0,0.0,0.0,0.0,0.0,0.0,0.0,0.0,0.0,0.0,0.0,0.0,0.0,0.0,0.0,0.0,0.0,0.0,0.0,0.0,0.0,0.0,0.0,0.0,0.0,0.0,0.0,0.0,0.0,0.0,0.0,0.0,0.0,0.0,0.0,0.0,0.0,0.0,0.0,0.0,0.0,0.0,0.0,0.0,0.0,0.0,0.0,0.0,0.0,0.0,0.0,0.0,0.0,0.0,0.0,0.0,0.0,0.0,0.0,0.0,0.0,0.0,0.0,0.0,0.0,0.0,0.0,0.0,0.0,0.0,0.0,0.0,0.0,0.0,0.0,0.0,0.0,0.0,0.0,0.0,0.0,0.0,0.0,0.0,0.0,0.0,0.0,0.0,0.0,0.0,0.0,0.0,0.0,0.0,0.0,0.0,0.0,0.0,0.0,0.0,0.0,0.0,0.0,0.0,0.0,0.0,0.0,0.0,0.0,0.0,0.0,0.0,0.0,0.0,0.0,0.0,0.0,0.0,0.0,0.0,0.0,0.0,0.0,0.0,0.0,0.0,0.0,0.0,0.0,0.0,0.0,0.0,0.0,0.0,0.0,0.0,0.0,0.0,0.0,0.0,0.0,0.0,0.0,0.0,0.0,0.0,0.0,0.0,0.0,0.0,0.0,0.0,0.0,0.0,0.0,0.0,0.0,0.0,0.0,0.0,0.0,0.0,0.0,0.0,0.0,0.0,0.0,0.0,0.0,0.0,0.0,0.0,0.0,0.0,0.0,0.0,0.0,0.0,0.0,0.0,0.0,0.0,0.0,0.0,0.0,0.0,0.0,0.0,0.0,0.0,0.0,0.0,0.0,0.0,0.0,0.0,0.0,0.0,0.0,0.0,0.0,0.0,0.0,0.0,0.0,0.0,0.0,0.0,0.0,0.0,0.0,0.0,0.0,0.0,0.0,0.0,0.0,0.0,0.0,0.0,0.0,0.0,0.0,0.0,0.0,0.0,0.0,0.0,0.0,0.0,0.0,0.0,0.0,0.0,0.0,0.0,0.0,0.0,0.0,0.0,0.0,0.0,0.0,0.0,0.0,0.0,0.0,0.0,0.0,0.0,0.0,0.0,0.0,0.0,0.0,0.0,0.0,0.0,0.0,0.0,0.0,0.0,0.0,0.0,0.0,0.0,0.0,0.0,0.0,0.0,0.0,0.0,0.0,0.0,0.0,0.0,0.0,0.0,0.0,0.0,0.0,0.0,0.0,0.0,0.0,0.0,0.0,0.0,0.0,0.0,0.0,0.0,0.0,0.0,0.0,0.0,0.0,0.0,0.0,0.0,0.0,0.0,0.0,0.0,0.0,0.0,0.0,0.0,0.0,0.0,0.0,0.0,0.0,0.0,0.0,0.0,0.0,0.0,0.0,0.0,0.0,0.0,0.0,0.0,0.0,0.0,0.0,0.0,0.0,0.0,0.0,0.0,0.0,0.0,0.0,0.0,0.0,0.0,0.0,0.0,0.0,0.0,0.0,0.0,0.0,0.0,0.0,0.0,0.0,0.0,0.0,0.0,0.0,0.0,0.0,0.0,0.0,0.0,0.0,0.0,0.0,0.0,0.0,0.0,0.0,0.0,0.0,0.0,0.0,0.0,0.0,0.0,0.0,0.0,0.0,0.0,0.0,0.0,0.0,0.0,0.0,0.0,0.0,0.0,0.0,0.0,0.0,0.0,0.0,0.0,0.0,0.0,0.0,0.0,0.0,0.0,0.0,0.0,0.0,0.0,0.0,0.0,0.0,0.0,0.0,0.0,0.0,0.0,0.0,0.0,0.0,0.0,0.0,0.0,0.0,0.0,0.0,0.0,0.0,0.0,0.0,0.0,0.0,0.0,0.0,0.0,0.0,0.0,0.0,0.0,0.0,0.0,0.0,0.0,0.0,0.0,0.0,0.0,0.0,0.0,0.0,0.0,0.0,0.0,0.0,0.0,0.0,0.0,0.0,0.0,0.0,0.0,0.0,0.0,0.0,0.0,0.0,0.0,0.0,0.0,0.0,0.0,0.0,0.0,0.0,0.0,0.0,0.0,0.0,0.0,0.0,0.0,0.0,0.0,0.0,0.0,0.0,0.0,0.0,0.0,0.0,0.0,0.0,0.0,0.0,0.0,0.0,0.0,0.0,0.0,0.0,0.0,0.0,0.0,0.0,0.0,0.0,0.0,0.0,0.0,0.0,0.0,0.0,0.0,0.0,0.0,0.0,0.0,0.0,0.0,0.0,0.0,0.0,0.0,0.0,0.0,0.0,0.0,0.0,0.0,0.0,0.0,0.0,0.0,0.0,0.0,0.0,0.0,0.0,0.0,0.0,0.0,0.0,0.0,0.0,0.0,0.0,0.0,0.0,0.0,0.0,0.0,0.0,0.0,0.0,0.0,0.0,0.0,0.0,0.0,0.0,0.0,0.0,0.0,0.0,0.0,0.0,0.0,0.0,0.0,0.0,0.0,0.0,0.0,0.0,0.0,0.0,0.0,0.0,0.0,0.0,0.0,0.0,0.0,0.0,0.0,0.0,0.0,0.0,0.0,0.0,0.0,0.0,0.0,0.0,0.0,0.0,0.0,0.0,0.0,0.0,0.0,0.0,0.0,0.0,0.0,0.0,0.0,0.0,0.0,0.0,0.0,0.0,0.0,0.0,0.0,0.0,0.0,0.0,0.0,0.0,0.0,0.0,0.0,0.0,0.0,0.0,0.0,0.0,0.0,0.0,0.0,0.0,0.0,0.0,0.0,0.0,0.0,0.0,0.0,0.0,0.0,0.0,0.0,0.0,0.0,0.0,0.0,0.0,0.0,0.0,0.0,0.0,0.0,0.0,0.0,0.0,0.0,0.0,0.0,0.0,0.0,0.0,0.0,0.0,0.0,0.0,0.0,0.0,0.0,0.0,0.0,0.0,0.0,0.0,0.0,0.0,0.0,0.0,0.0,0.0,0.0,0.0,0.0,0.0,0.0,0.0,0.0,0.0,0.0,0.0,0.0,0.0,0.0,0.0,0.0,0.0,0.0,0.0,0.0,0.0,0.0,0.0,0.0,0.0,0.0,0.0,0.0,0.0,0.0,0.0,0.0,0.0,0.0,0.0,0.0,0.0,0.0,0.0,0.0,0.0,0.0,0.0,0.0,0.0,0.0,0.0,0.0,0.0,0.0,0.0,0.0,0.0,0.0,0.0,0.0,0.0,0.0,0.0,0.0,0.0,0.0,0.0,0.0,0.0,0.0,0.0,0.0,0.0,0.0,0.0,0.0,0.0,0.0,0.0,0.0,0.0,0.0,0.0,0.0,0.0,0.0,0.0,0.0,0.0,0.0,0.0,0.0,0.0,0.0,0.0,0.0,0.0,0.0,0.0,0.0,0.0,0.0,0.0,0.0,0.0,0.0,0.0,0.0,0.0,0.0,0.0,0.0,0.0,0.0,0.0,0.0,0.0,0.0,0.0,0.0,0.0,0.0,0.0,0.0,0.0,0.0,0.0,0.0,0.0,0.0,0.0,0.0,0.0,0.0,0.0,0.0,0.0,0.0,0.0,0.0,0.0,0.0,0.0,0.0,0.0,0.0,0.0,0.0,0.0,0.0,0.0,0.0,0.0,0.0,0.0,0.0,0.0,0.0,0.0,0.0,0.0,0.0,0.0,0.0,0.0,0.0,0.0,0.0,0.0,0.0,0.0,0.0,0.0,0.0,0.0,0.0,0.0,0.0,0.0,0.0,0.0,-2.2194,0.0,0.0,0.0,0.0,0.0,0.0,0.0,0.0,0.0,0.0,0.0,0.0,0.0,0.0,0.0,0.0,0.0,0.0,0.0,0.0,0.0,0.0,0.0,0.0,0.0,0.0,0.0,0.0,0.0,0.0,0.0,0.0,0.0,0.0,0.0,0.0,0.0,0.0,0.0,0.0,0.0,0.0,0.0,0.0,0.0,0.0,0.0,0.0,0.0,0.0,0.0,0.0,0.0,0.0,0.0,0.0,0.0,0.0,0.0,0.0,0.0,0.0,0.0,0.0,0.0,0.0,0.0,0.0,0.0,0.0,0.0,0.0,0.0,0.0,0.0,0.0,0.0,0.0,0.0,0.0,0.0,0.0,0.0,0.0,0.0,0.0,0.0,0.0,0.0,0.0,0.0,0.0,0.0,0.0,0.0,0.0,0.0,0.0,0.0,0.0,0.0,0.0,0.0,0.0,0.0,0.0,0.0,0.0,0.0,0.0,-2.2194,-2.2194,-2.2194,-2.2194,-2.2194,0.0,0.0,0.0,0.0,0.0,0.0,0.0,0.0,0.0,0.0,0.0,0.0,0.0,0.0,0.0,0.0,0.0,0.0,0.0,0.0,0.0,0.0,0.0,0.0,0.0,0.0,0.0,0.0,0.0,0.0,0.0,0.0,0.0,0.0,0.0,0.0,0.0,0.0,0.0,0.0,0.0,0.0,0.0,0.0,0.0,0.0,0.0,0.0,0.0,0.0,0.0,0.0,0.0,0.0,0.0,0.0,0.0,0.0,0.0,0.0,0.0,0.0,0.0,0.0,0.0,0.0,0.0,0.0,0.0,0.0,0.0,0.0,0.0,0.0,0.0,0.0,0.0,0.0,0.0,0.0,0.0,0.0,0.0,0.0,0.0,0.0,0.0,0.0,0.0,0.0,0.0,0.0,0.0,0.0,0.0,0.0,0.0,0.0,0.0,0.0,0.0,0.0,0.0,0.0,0.0,0.0,0.0,0.0,0.0,0.0,0.0,0.0,-2.2263,-2.231,-2.231,0.0,0.0,0.0,0.0,0.0,0.0,0.0,0.0,0.0,0.0,0.0,0.0,0.0,0.0,0.0,0.0,0.0,0.0,0.0,0.0,0.0,0.0,0.0,0.0,0.0,0.0,0.0,0.0,0.0,0.0,0.0,0.0,0.0,0.0,0.0,0.0,0.0,0.0,0.0,0.0,0.0,0.0,0.0,0.0,0.0,0.0,0.0,0.0,0.0,0.0,0.0,0.0,0.0,0.0,0.0,0.0,0.0,0.0,0.0,0.0,0.0,0.0,0.0,0.0,0.0,0.0,0.0,0.0,0.0,0.0,0.0,0.0,0.0,0.0,0.0,0.0,0.0,0.0,0.0,0.0,0.0,0.0,0.0,0.0,0.0,0.0,0.0,0.0,0.0,0.0,0.0,0.0,0.0,0.0,0.0,0.0,0.0,0.0,0.0,0.0,0.0,0.0,0.0,0.0,0.0,0.0,0.0,0.0,0.0,0.0,-2.2194,-2.2208,-2.2503,0.0,-2.264,0.0,0.0,0.0,0.0,0.0,0.0,0.0,0.0,0.0,0.0,0.0,0.0,0.0,0.0,0.0,0.0,0.0,0.0,0.0,0.0,0.0,0.0,0.0,0.0,0.0,0.0,0.0,0.0,0.0,0.0,0.0,0.0,0.0,0.0,0.0,0.0,0.0,0.0,0.0,0.0,0.0,0.0,0.0,0.0,0.0,0.0,0.0,0.0,0.0,0.0,0.0,0.0,0.0,0.0,0.0,0.0,0.0,0.0,0.0,0.0,0.0,0.0,0.0,0.0,0.0,0.0,0.0,0.0,0.0,0.0,0.0,0.0,0.0,0.0,0.0,0.0,0.0,0.0,0.0,0.0,0.0,0.0,0.0,0.0,0.0,0.0,0.0,0.0,0.0,0.0,0.0,0.0,0.0,0.0,0.0,0.0,0.0,0.0,0.0,0.0,0.0,0.0,0.0,0.0,0.0,0.0,0.0,0.0,0.0,0.0,-2.2942,-2.2785,-2.2686,-2.2586,0.0,0.0,0.0,0.0,0.0,0.0,0.0,0.0,0.0,0.0,0.0,0.0,0.0,0.0,0.0,0.0,0.0,0.0,0.0,0.0,0.0,0.0,0.0,0.0,0.0,0.0,0.0,0.0,0.0,0.0,0.0,0.0,0.0,0.0,0.0,0.0,0.0,0.0,0.0,0.0,0.0,0.0,0.0,0.0,0.0,0.0,0.0,0.0,0.0,0.0,0.0,0.0,0.0,0.0,0.0,0.0,0.0,0.0,0.0,0.0,0.0,0.0,0.0,0.0,0.0,0.0,0.0,0.0,0.0,0.0,0.0,0.0,0.0,0.0,0.0,0.0,0.0,0.0,0.0,0.0,0.0,0.0,0.0,0.0,0.0,0.0,0.0,0.0,0.0,0.0,0.0,0.0,0.0,0.0,0.0,0.0,0.0,0.0,0.0,0.0,0.0,0.0,0.0,0.0,0.0,0.0,0.0,0.0,0.0,0.0,-2.3681,-2.3623,-2.3507,-2.3113,-2.2859,-2.2859,0.0,0.0,0.0,0.0,0.0,0.0,0.0,0.0,0.0,0.0,0.0,0.0,0.0,0.0,0.0,0.0,0.0,0.0,0.0,0.0,0.0,0.0,0.0,0.0,0.0,0.0,0.0,0.0,0.0,0.0,0.0,0.0,0.0,0.0,0.0,0.0,0.0,0.0,0.0,0.0,0.0,0.0,0.0,0.0,0.0,0.0,0.0,0.0,0.0,0.0,0.0,0.0,0.0,0.0,0.0,0.0,0.0,0.0,0.0,0.0,0.0,0.0,0.0,0.0,0.0,0.0,0.0,0.0,0.0,0.0,0.0,0.0,0.0,0.0,0.0,0.0,0.0,0.0,0.0,0.0,0.0,0.0,0.0,0.0,0.0,0.0,0.0,0.0,0.0,0.0,0.0,0.0,0.0,0.0,0.0,0.0,0.0,0.0,0.0,0.0,0.0,0.0,0.0,0.0,0.0,0.0,0.0,0.0,-2.3915,-2.3915,-2.4032,-2.4343,-2.3837,-2.3702,0.0,0.0,0.0,0.0,0.0,0.0,0.0,0.0,0.0,0.0,0.0,0.0,0.0,0.0,0.0,0.0,0.0,0.0,0.0,0.0,0.0,0.0,0.0,0.0,0.0,0.0,0.0,0.0,0.0,0.0,0.0,0.0,0.0,0.0,0.0,0.0,0.0,0.0,0.0,0.0,0.0,0.0,0.0,0.0,0.0,0.0,0.0,0.0,0.0,0.0,0.0,0.0,0.0,0.0,0.0,0.0,0.0,0.0,0.0,0.0,0.0,0.0,0.0,0.0,0.0,0.0,0.0,0.0,0.0,0.0,0.0,0.0,0.0,0.0,0.0,0.0,0.0,0.0,0.0,0.0,0.0,0.0,0.0,0.0,0.0,0.0,0.0,0.0,0.0,0.0,0.0,0.0,0.0,0.0,0.0,0.0,0.0,0.0,0.0,0.0,0.0,0.0,0.0,0.0,0.0,0.0,0.0,0.0,0.0,-2.5408,-2.5606,-2.5584,-2.5414,-2.4811,-2.437,0.0,0.0,0.0,0.0,0.0,0.0,0.0,0.0,0.0,0.0,0.0,0.0,0.0,0.0,0.0,0.0,0.0,0.0,0.0,0.0,0.0,0.0,0.0,0.0,0.0,0.0,0.0,0.0,0.0,0.0,0.0,0.0,0.0,0.0,0.0,0.0,0.0,0.0,0.0,0.0,0.0,0.0,0.0,0.0,0.0,0.0,0.0,0.0,0.0,0.0,0.0,0.0,0.0,0.0,0.0,0.0,0.0,0.0,0.0,0.0,0.0,0.0,0.0,0.0,0.0,0.0,0.0,0.0,0.0,0.0,0.0,0.0,0.0,0.0,0.0,0.0,0.0,0.0,0.0,0.0,0.0,0.0,0.0,0.0,0.0,0.0,0.0,0.0,0.0,0.0,0.0,0.0,0.0,0.0,0.0,0.0,0.0,0.0,0.0,0.0,0.0,0.0,0.0,0.0,0.0,0.0,0.0,0.0,0.0,-2.674,0.0,-2.6867,-2.6568,-2.6056,-2.554,0.0,0.0,0.0,0.0,0.0,0.0,0.0,0.0,0.0,0.0,0.0,0.0,0.0,0.0,0.0,0.0,0.0,0.0,0.0,0.0,0.0,0.0,0.0,0.0,0.0,0.0,0.0,0.0,0.0,0.0,0.0,0.0,0.0,0.0,0.0,0.0,0.0,0.0,0.0,0.0,0.0,0.0,0.0,0.0,0.0,0.0,0.0,0.0,0.0,0.0,0.0,0.0,0.0,0.0,0.0,0.0,0.0,0.0,0.0,0.0,0.0,0.0,0.0,0.0,0.0,0.0,0.0,0.0,0.0,0.0,0.0,0.0,0.0,0.0,0.0,0.0,0.0,0.0,0.0,0.0,0.0,0.0,0.0,0.0,0.0,0.0,0.0,0.0,0.0,0.0,0.0,0.0,0.0,0.0,0.0,0.0,0.0,0.0,0.0,0.0,0.0,0.0,0.0,0.0,0.0,0.0,0.0,0.0,-2.7053,-2.7652,-2.7712,-2.7708,-2.77,-2.7478,-2.7259,0.0,0.0,0.0,0.0,0.0,0.0,0.0,0.0,0.0,0.0,0.0,0.0,0.0,0.0,0.0,0.0,0.0,0.0,0.0,0.0,0.0,0.0,0.0,0.0,0.0,0.0,0.0,0.0,0.0,0.0,0.0,0.0,0.0,0.0,0.0,0.0,0.0,0.0,0.0,0.0,0.0,0.0,0.0,0.0,0.0,0.0,0.0,0.0,0.0,0.0,0.0,0.0,0.0,0.0,0.0,0.0,0.0,0.0,0.0,0.0,0.0,0.0,0.0,0.0,0.0,0.0,0.0,0.0,0.0,0.0,0.0,0.0,0.0,0.0,0.0,0.0,0.0,0.0,0.0,0.0,0.0,0.0,0.0,0.0,0.0,0.0,0.0,0.0,0.0,0.0,0.0,0.0,0.0,0.0,0.0,0.0,0.0,0.0,0.0,0.0,0.0,0.0,0.0,0.0,0.0,0.0,0.0,0.0,0.0,-2.8466,-2.8769,-2.8802,-2.8466,-2.8222,-2.7881,0.0,0.0,0.0,0.0,0.0,0.0,0.0,0.0,0.0,0.0,0.0,0.0,0.0,0.0,0.0,0.0,0.0,0.0,0.0,0.0,0.0,0.0,0.0,0.0,0.0,0.0,0.0,0.0,0.0,0.0,0.0,0.0,0.0,0.0,0.0,0.0,0.0,0.0,0.0,0.0,0.0,0.0,0.0,0.0,0.0,0.0,0.0,0.0,0.0,0.0,0.0,0.0,0.0,0.0,0.0,0.0,0.0,0.0,0.0,0.0,0.0,0.0,0.0,0.0,0.0,0.0,0.0,0.0,0.0,0.0,0.0,0.0,0.0,0.0,0.0,0.0,0.0,0.0,0.0,0.0,0.0,0.0,0.0,0.0,0.0,0.0,0.0,0.0,0.0,0.0,0.0,0.0,0.0,0.0,0.0,0.0,0.0,0.0,0.0,0.0,0.0,0.0,0.0,0.0,0.0,0.0,0.0,0.0,0.0,-2.9248,-2.9506,-2.95,-2.9216,-2.9033,-2.8758,-2.8388,0.0,0.0,0.0,0.0,0.0,0.0,0.0,0.0,0.0,0.0,0.0,0.0,0.0,0.0,0.0,0.0,0.0,0.0,0.0,0.0,0.0,0.0,0.0,0.0,0.0,0.0,0.0,0.0,0.0,0.0,0.0,0.0,0.0,0.0,0.0,0.0,0.0,0.0,0.0,0.0,0.0,0.0,0.0,0.0,0.0,0.0,0.0,0.0,0.0,0.0,0.0,0.0,0.0,0.0,0.0,0.0,0.0,0.0,0.0,0.0,0.0,0.0,0.0,0.0,0.0,0.0,0.0,0.0,0.0,0.0,0.0,0.0,0.0,0.0,0.0,0.0,0.0,0.0,0.0,0.0,0.0,0.0,0.0,0.0,0.0,0.0,0.0,0.0,0.0,0.0,0.0,0.0,0.0,0.0,0.0,0.0,0.0,0.0,0.0,0.0,0.0,0.0,0.0,0.0,0.0,0.0,0.0,0.0,-2.9896,-2.9896,-2.9896,-2.988,-2.988,-2.9792,0.0,0.0,0.0,0.0,0.0,0.0,0.0,0.0,0.0,0.0,0.0,0.0,0.0,0.0,0.0,0.0,0.0,0.0,0.0,0.0,0.0,0.0,0.0,0.0,0.0,0.0,0.0,0.0,0.0,0.0,0.0,0.0,0.0,0.0,0.0,0.0,0.0,0.0,0.0,0.0,0.0,0.0,0.0,0.0,0.0,0.0,0.0,0.0,0.0,0.0,0.0,0.0,0.0,0.0,0.0,0.0,0.0,0.0,0.0,0.0,0.0,0.0,0.0,0.0,0.0,0.0,0.0,0.0,0.0,0.0,0.0,0.0,0.0,0.0,0.0,0.0,0.0,0.0,0.0,0.0,0.0,0.0,0.0,0.0,0.0,0.0,0.0,0.0,0.0,0.0,0.0,0.0,0.0,0.0,0.0,0.0,0.0,0.0,0.0,0.0,0.0,0.0,0.0,0.0,0.0,0.0,0.0,0.0,0.0,-2.9896,-2.9896,-2.9896,-2.9896,-2.9896,-2.9874,0.0,0.0,0.0,0.0,0.0,0.0,0.0,0.0,0.0,0.0,0.0,0.0,0.0,0.0,0.0,0.0,0.0,0.0,0.0,0.0,0.0,0.0,0.0,0.0,0.0,0.0,0.0,0.0,0.0,0.0,0.0,0.0,0.0,0.0,0.0,0.0,0.0,0.0,0.0,0.0,0.0,0.0,0.0,0.0,0.0,0.0,0.0,0.0,0.0,0.0,0.0,0.0,0.0,0.0,0.0,0.0,0.0,0.0,0.0,0.0,0.0,0.0,0.0,0.0,0.0,0.0,0.0,0.0,0.0,0.0,0.0,0.0,0.0,0.0,0.0,0.0,0.0,0.0,0.0,0.0,0.0,0.0,0.0,0.0,0.0,0.0,0.0,0.0,0.0,0.0,0.0,0.0,0.0,0.0,0.0,0.0,0.0,0.0,0.0,0.0,0.0,0.0,0.0,0.0,0.0,0.0,0.0,0.0,-2.9896,-2.9896,-2.9896,-2.9896,-2.9896,-2.9896,-2.9896,0.0,0.0,0.0,0.0,0.0,0.0,0.0,0.0,0.0,0.0,0.0,0.0,0.0,0.0,0.0,0.0,0.0,0.0,0.0,0.0,0.0,0.0,0.0,0.0,0.0,0.0,0.0,0.0,0.0,0.0,0.0,0.0,0.0,0.0,0.0,0.0,0.0,0.0,0.0,0.0,0.0,0.0,0.0,0.0,0.0,0.0,0.0,0.0,0.0,0.0,0.0,0.0,0.0,0.0,0.0,0.0,0.0,0.0,0.0,0.0,0.0,0.0,0.0,0.0,0.0,0.0,0.0,0.0,0.0,0.0,0.0,0.0,0.0,0.0,0.0,0.0,0.0,0.0,0.0,0.0,0.0,0.0,0.0,0.0,0.0,0.0,0.0,0.0,0.0,0.0,0.0,0.0,0.0,0.0,0.0,0.0,0.0,0.0,0.0,0.0,0.0,0.0,0.0,0.0,0.0,0.0,0.0,0.0,-2.9896,-2.9896,-2.9896,-2.9896,-2.9896,-2.9896,-2.9896,0.0,0.0,0.0,0.0,0.0,0.0,0.0,0.0,0.0,0.0,0.0,0.0,0.0,0.0,0.0,0.0,0.0,0.0,0.0,0.0,0.0,0.0,0.0,0.0,0.0,0.0,0.0,0.0,0.0,0.0,0.0,0.0,0.0,0.0,0.0,0.0,0.0,0.0,0.0,0.0,0.0,0.0,0.0,0.0,0.0,0.0,0.0,0.0,0.0,0.0,0.0,0.0,0.0,0.0,0.0,0.0,0.0,0.0,0.0,0.0,0.0,0.0,0.0,0.0,0.0,0.0,0.0,0.0,0.0,0.0,0.0,0.0,0.0,0.0,0.0,0.0,0.0,0.0,0.0,0.0,0.0,0.0,0.0,0.0,0.0,0.0,0.0,0.0,0.0,0.0,0.0,0.0,0.0,0.0,0.0,0.0,0.0,0.0,0.0,0.0,0.0,0.0,0.0,0.0,0.0,0.0,0.0,0.0,-2.9896,-2.9896,-2.9896,-2.9896,-2.9896,-2.9896,-2.9896,0.0,0.0,0.0,0.0,0.0,0.0,0.0,0.0,0.0,0.0,0.0,0.0,0.0,0.0,0.0,0.0,0.0,0.0,0.0,0.0,0.0,0.0,0.0,0.0,0.0,0.0,0.0,0.0,0.0,0.0,0.0,0.0,0.0,0.0,0.0,0.0,0.0,0.0,0.0,0.0,0.0,0.0,0.0,0.0,0.0,0.0,0.0,0.0,-2.8563,0.0,0.0,0.0,0.0,0.0,0.0,0.0,0.0,0.0,0.0,0.0,0.0,0.0,0.0,0.0,0.0,0.0,0.0,0.0,0.0,0.0,0.0,0.0,0.0,0.0,0.0,0.0,0.0,0.0,0.0,0.0,0.0,0.0,0.0,0.0,0.0,0.0,0.0,0.0,0.0,0.0,0.0,0.0,0.0,0.0,0.0,0.0,0.0,0.0,0.0,0.0,0.0,0.0,0.0,0.0,0.0,0.0,0.0,0.0,-2.9896,-2.9896,-2.9896,-2.9896,-2.9896,-2.9896,-2.9896,0.0,0.0,0.0,0.0,0.0,0.0,0.0,0.0,0.0,0.0,0.0,0.0,0.0,0.0,0.0,0.0,0.0,0.0,0.0,0.0,0.0,0.0,0.0,0.0,0.0,0.0,0.0,0.0,0.0,0.0,0.0,0.0,0.0,0.0,0.0,0.0,0.0,0.0,0.0,0.0,0.0,0.0,0.0,0.0,0.0,0.0,0.0,0.0,0.0,0.0,0.0,0.0,0.0,0.0,0.0,0.0,0.0,0.0,0.0,0.0,0.0,0.0,0.0,0.0,0.0,0.0,0.0,0.0,0.0,0.0,0.0,0.0,0.0,0.0,0.0,0.0,0.0,0.0,0.0,0.0,0.0,0.0,0.0,0.0,0.0,0.0,0.0,0.0,0.0,0.0,0.0,0.0,0.0,0.0,0.0,0.0,0.0,0.0,0.0,0.0,0.0,0.0,0.0,0.0,0.0,0.0,0.0,-3.0044,-2.9946,-2.9918,-2.9896,-2.9896,-2.9896,-2.9896,-2.9896,-2.9896,0.0,0.0,0.0,0.0,0.0,0.0,0.0,0.0,0.0,0.0,0.0,0.0,0.0,0.0,0.0,0.0,0.0,0.0,0.0,0.0,0.0,0.0,0.0,0.0,0.0,0.0,0.0,0.0,0.0,0.0,0.0,0.0,0.0,0.0,0.0,0.0,0.0,0.0,-2.7891,-2.8005,0.0,0.0,0.0,0.0,0.0,0.0,0.0,0.0,-2.971,0.0,0.0,0.0,0.0,0.0,0.0,0.0,0.0,0.0,0.0,0.0,0.0,0.0,0.0,0.0,0.0,0.0,0.0,0.0,0.0,0.0,0.0,0.0,0.0,0.0,0.0,0.0,0.0,0.0,0.0,0.0,0.0,0.0,0.0,0.0,0.0,0.0,0.0,0.0,0.0,0.0,0.0,0.0,0.0,0.0,0.0,0.0,0.0,0.0,0.0,0.0,0.0,0.0,0.0,0.0,0.0,-2.9968,-3.0151,-3.013,-2.9918,-2.9896,-2.9896,-2.9896,-2.9896,-2.9896,-2.9896,0.0,0.0,0.0,0.0,0.0,0.0,0.0,0.0,0.0,0.0,0.0,0.0,0.0,0.0,0.0,0.0,0.0,0.0,0.0,0.0,0.0,0.0,0.0,0.0,0.0,0.0,0.0,0.0,0.0,0.0,0.0,0.0,0.0,0.0,0.0,0.0,0.0,0.0,0.0,-2.9305,-2.9572,0.0,0.0,0.0,0.0,0.0,0.0,0.0,0.0,-2.982,0.0,0.0,0.0,0.0,0.0,0.0,0.0,0.0,0.0,0.0,0.0,0.0,0.0,0.0,0.0,0.0,0.0,0.0,0.0,0.0,0.0,0.0,0.0,0.0,0.0,0.0,0.0,0.0,0.0,0.0,0.0,0.0,0.0,0.0,0.0,0.0,0.0,0.0,0.0,0.0,0.0,0.0,0.0,0.0,0.0,0.0,0.0,0.0,0.0,0.0,0.0,0.0,0.0,0.0,0.0,-3.0669,-3.062,-3.0727,-3.0982,-3.0998,-3.0975,-3.0998,-3.0998,-3.1089,0.0,0.0,0.0,0.0,0.0,0.0,0.0,0.0,0.0,0.0,0.0,0.0,0.0,0.0,0.0,0.0,0.0,0.0,0.0,0.0,0.0,0.0,0.0,0.0,0.0,0.0,0.0,0.0,0.0,0.0,0.0,0.0,0.0,0.0,0.0,0.0,0.0,0.0,0.0,0.0,-2.9912,-2.9852,-2.971,0.0,0.0,0.0,0.0,0.0,0.0,-2.9896,-2.9896,0.0,0.0,0.0,0.0,0.0,0.0,0.0,0.0,0.0,0.0,0.0,0.0,0.0,0.0,0.0,0.0,0.0,0.0,0.0,0.0,0.0,0.0,0.0,0.0,0.0,0.0,0.0,0.0,0.0,0.0,0.0,0.0,0.0,0.0,0.0,0.0,0.0,0.0,0.0,0.0,0.0,0.0,0.0,0.0,0.0,0.0,0.0,0.0,0.0,0.0,0.0,0.0,0.0,0.0,0.0,-3.1594,-3.1371,-3.1459,-3.1979,-3.2028,-3.2028,-3.2028,-3.2028,-3.2136,0.0,0.0,0.0,0.0,0.0,0.0,0.0,0.0,0.0,0.0,0.0,0.0,0.0,0.0,0.0,0.0,0.0,0.0,0.0,0.0,0.0,0.0,0.0,0.0,0.0,0.0,0.0,0.0,0.0,0.0,0.0,0.0,0.0,0.0,0.0,0.0,0.0,0.0,0.0,0.0,0.0,-2.9892,-2.9677,-2.9848,0.0,0.0,0.0,0.0,-2.9918,-2.9896,0.0,0.0,0.0,0.0,0.0,0.0,0.0,0.0,0.0,0.0,0.0,0.0,0.0,0.0,0.0,0.0,0.0,0.0,0.0,0.0,0.0,0.0,0.0,0.0,0.0,0.0,0.0,0.0,0.0,0.0,0.0,0.0,0.0,0.0,0.0,0.0,0.0,0.0,0.0,0.0,0.0,0.0,0.0,0.0,0.0,0.0,0.0,0.0,0.0,0.0,0.0,0.0,0.0,0.0,0.0,0.0,-3.2368,-3.2317,-3.2217,-3.2035,-3.2028,-3.2028,-3.2028,-3.2028,-3.2012,0.0,0.0,0.0,0.0,0.0,0.0,0.0,0.0,0.0,0.0,0.0,0.0,0.0,0.0,0.0,0.0,0.0,0.0,0.0,0.0,0.0,0.0,0.0,0.0,0.0,0.0,0.0,0.0,0.0,0.0,0.0,0.0,0.0,0.0,0.0,0.0,0.0,0.0,0.0,0.0,0.0,-3.0246,-3.0225,-3.023,-3.0177,0.0,0.0,-3.0177,-2.9946,-2.9896,0.0,0.0,0.0,0.0,0.0,0.0,0.0,0.0,0.0,0.0,0.0,0.0,0.0,0.0,0.0,0.0,0.0,0.0,0.0,0.0,0.0,0.0,0.0,0.0,0.0,0.0,0.0,0.0,0.0,0.0,0.0,0.0,0.0,0.0,0.0,0.0,0.0,0.0,0.0,0.0,0.0,0.0,0.0,0.0,0.0,0.0,0.0,0.0,0.0,0.0,0.0,0.0,0.0,0.0,0.0,-3.2708,-3.311,-3.295,-3.2973,-3.3178,-3.3194,-3.3194,-3.3194,-3.321,-3.3291,0.0,0.0,0.0,0.0,0.0,0.0,0.0,0.0,0.0,0.0,0.0,0.0,0.0,0.0,0.0,0.0,0.0,0.0,0.0,0.0,0.0,0.0,0.0,0.0,0.0,0.0,0.0,0.0,0.0,0.0,0.0,0.0,0.0,0.0,0.0,0.0,0.0,0.0,0.0,0.0,0.0,0.0,-3.0293,-3.0177,0.0,0.0,0.0,-3.0038,-2.9902,0.0,0.0,0.0,0.0,0.0,0.0,0.0,0.0,0.0,0.0,0.0,0.0,0.0,0.0,0.0,0.0,0.0,0.0,0.0,0.0,0.0,0.0,0.0,0.0,0.0,0.0,0.0,0.0,0.0,0.0,0.0,0.0,0.0,0.0,0.0,0.0,0.0,0.0,0.0,0.0,0.0,0.0,0.0,0.0,0.0,0.0,0.0,0.0,0.0,0.0,0.0,0.0,0.0,0.0,0.0,0.0,0.0,-3.3844,-3.3518,-3.3582,-3.4068,-3.4101,-3.4101,-3.4101,-3.4101,0.0,0.0,0.0,0.0,0.0,0.0,0.0,0.0,0.0,0.0,0.0,0.0,0.0,0.0,0.0,0.0,0.0,0.0,0.0,0.0,0.0,0.0,0.0,0.0,0.0,0.0,0.0,-3.0925,0.0,0.0,0.0,0.0,0.0,0.0,0.0,0.0,0.0,0.0,0.0,0.0,0.0,0.0,-3.0377,-3.0314,-3.013,-2.9989,0.0,0.0,-2.9989,-2.9902,-3.0042,-3.0156,0.0,0.0,0.0,0.0,0.0,0.0,0.0,0.0,0.0,0.0,0.0,0.0,0.0,0.0,0.0,0.0,0.0,0.0,0.0,0.0,0.0,0.0,0.0,0.0,0.0,0.0,0.0,0.0,0.0,0.0,0.0,0.0,0.0,0.0,0.0,0.0,0.0,0.0,0.0,0.0,0.0,0.0,0.0,0.0,0.0,0.0,0.0,0.0,0.0,0.0,0.0,0.0,0.0,0.0,0.0,-3.4601,-3.4235,-3.4036,-3.4101,-3.4101,-3.4101,-3.4101,-3.4101,-3.43,0.0,0.0,0.0,0.0,0.0,0.0,0.0,0.0,0.0,0.0,0.0,0.0,0.0,0.0,0.0,0.0,0.0,0.0,0.0,0.0,0.0,0.0,0.0,0.0,0.0,0.0,0.0,0.0,0.0,0.0,0.0,0.0,0.0,0.0,0.0,0.0,0.0,0.0,0.0,0.0,0.0,-3.0662,-3.0335,-3.0288,-3.0177,0.0,0.0,-3.0199,-2.994,-3.0425,-3.0823,-3.0839,0.0,0.0,0.0,0.0,0.0,0.0,0.0,0.0,0.0,0.0,0.0,0.0,0.0,0.0,0.0,0.0,0.0,0.0,0.0,0.0,0.0,0.0,0.0,0.0,0.0,0.0,0.0,0.0,0.0,0.0,0.0,0.0,0.0,0.0,0.0,0.0,0.0,0.0,0.0,0.0,0.0,0.0,0.0,0.0,0.0,0.0,0.0,0.0,0.0,0.0,0.0,0.0,0.0,-3.43,-3.4691,-3.43,-3.4101,-3.4101,-3.4101,-3.4101,-3.4101,-3.4101,-3.4176,0.0,0.0,0.0,0.0,0.0,0.0,0.0,0.0,0.0,0.0,0.0,0.0,0.0,0.0,0.0,0.0,0.0,0.0,0.0,0.0,0.0,0.0,0.0,0.0,0.0,0.0,0.0,0.0,-3.1411,-3.156,-3.1781,0.0,0.0,0.0,0.0,0.0,0.0,0.0,0.0,0.0,0.0,-3.0605,-3.0924,-3.0789,0.0,0.0,-3.1268,-3.1329,-3.1209,-3.1413,-3.1568,-3.1568,-3.181,0.0,0.0,0.0,0.0,0.0,0.0,0.0,0.0,0.0,0.0,0.0,0.0,0.0,0.0,0.0,0.0,0.0,0.0,0.0,0.0,0.0,0.0,0.0,0.0,0.0,0.0,0.0,0.0,0.0,0.0,0.0,0.0,0.0,0.0,0.0,0.0,0.0,0.0,0.0,0.0,0.0,0.0,0.0,0.0,0.0,0.0,0.0,0.0,0.0,0.0,0.0,0.0,-3.425,-3.4497,-3.425,-3.4101,-3.4101,-3.4101,-3.4101,-3.4101,-3.4101,-3.4151,0.0,0.0,0.0,0.0,0.0,0.0,0.0,0.0,0.0,0.0,0.0,0.0,0.0,0.0,0.0,0.0,0.0,0.0,0.0,0.0,0.0,0.0,0.0,0.0,0.0,0.0,0.0,0.0,-3.1466,-3.1627,-3.2074,0.0,0.0,0.0,0.0,0.0,0.0,0.0,0.0,0.0,0.0,-3.1122,-3.1505,-3.1378,-3.1422,-3.1931,-3.2028,-3.2028,-3.2028,-3.2206,-3.2319,-3.2336,0.0,0.0,0.0,0.0,0.0,0.0,0.0,0.0,0.0,0.0,0.0,0.0,0.0,0.0,0.0,0.0,0.0,0.0,0.0,0.0,0.0,0.0,0.0,0.0,0.0,0.0,0.0,0.0,0.0,0.0,-3.401,0.0,0.0,0.0,0.0,0.0,0.0,0.0,0.0,0.0,0.0,0.0,0.0,0.0,0.0,0.0,0.0,0.0,0.0,0.0,0.0,0.0,0.0,-3.4101,-3.4101,-3.4101,-3.4101,-3.4101,-3.4101,-3.4101,-3.4101,-3.4101,-3.4259,-3.4659,0.0,0.0,0.0,0.0,0.0,0.0,0.0,0.0,0.0,0.0,0.0,0.0,0.0,0.0,0.0,0.0,0.0,0.0,0.0,0.0,0.0,0.0,0.0,0.0,0.0,0.0,-3.1815,-3.1817,-3.2092,0.0,0.0,0.0,0.0,0.0,0.0,0.0,0.0,0.0,0.0,-3.2478,-3.2341,-3.205,-3.1996,-3.2012,-3.2021,-3.206,-3.2044,-3.2077,-3.2627,-3.308,0.0,0.0,0.0,0.0,0.0,0.0,0.0,0.0,0.0,0.0,0.0,0.0,0.0,0.0,0.0,0.0,0.0,0.0,0.0,0.0,0.0,0.0,0.0,0.0,0.0,0.0,0.0,-3.3683,-3.3683,0.0,0.0,0.0,0.0,0.0,0.0,0.0,0.0,0.0,0.0,0.0,-3.4124,-3.3957,0.0,0.0,0.0,0.0,0.0,0.0,0.0,0.0,0.0,0.0,0.0,0.0,-3.4101,-3.4101,-3.4101,-3.4101,-3.4101,-3.4101,-3.4101,-3.4101,-3.4101,-3.4176,-3.43,0.0,0.0,0.0,0.0,0.0,0.0,0.0,0.0,0.0,0.0,0.0,0.0,0.0,0.0,0.0,0.0,0.0,0.0,0.0,0.0,0.0,0.0,0.0,0.0,0.0,-3.2636,0.0,0.0,0.0,0.0,0.0,0.0,0.0,0.0,0.0,0.0,0.0,-3.2475,-3.25,-3.2298,-3.2292,-3.2683,-3.2724,-3.2886,0.0,0.0,0.0,0.0,0.0,0.0,0.0,0.0,0.0,0.0,0.0,0.0,0.0,0.0,-3.4101,-3.4101,-3.4101,-3.4101,-3.4101,0.0,0.0,0.0,0.0,0.0,0.0,0.0,0.0,0.0,0.0,0.0,0.0,0.0,0.0,0.0,0.0,-3.409,0.0,0.0,0.0,0.0,0.0,0.0,0.0,0.0,-3.4539,-3.4513,-3.4472,-3.4226,-3.4101,0.0,-3.4101,-3.4226,0.0,0.0,0.0,0.0,0.0,0.0,0.0,0.0,-3.4101,-3.4101,-3.4101,-3.4101,-3.4101,-3.4101,-3.4101,-3.4101,-3.4101,-3.4101,-3.4101,-3.4101,-3.4101,0.0,0.0,0.0,0.0,0.0,0.0,0.0,0.0,0.0,0.0,0.0,0.0,0.0,0.0,0.0,0.0,0.0,0.0,0.0,0.0,0.0,0.0,0.0,-3.3257,0.0,0.0,0.0,0.0,0.0,0.0,0.0,0.0,0.0,-3.3714,-3.3195,-3.2902,-3.3048,-3.2868,-3.2902,-3.3372,0.0,0.0,0.0,0.0,0.0,0.0,0.0,-3.4101,-3.4101,-3.4101,-3.4101,-3.4101,-3.4101,-3.4101,-3.4101,0.0,0.0,-3.4101,-3.4101,-3.4101,-3.4101,-3.3728,-3.3607,-3.4003,-3.3761,-3.3566,0.0,0.0,0.0,0.0,0.0,0.0,0.0,0.0,-3.5485,-3.5128,0.0,-3.5111,0.0,0.0,0.0,0.0,0.0,-3.5345,0.0,0.0,-3.4284,-3.4101,-3.4101,-3.4101,-3.4117,-3.4133,-3.4149,-3.4182,-3.4198,-3.4198,0.0,0.0,0.0,0.0,0.0,0.0,-3.4101,-3.4101,-3.4101,-3.4101,-3.4101,-3.4101,-3.4101,-3.4101,-3.4101,-3.4101,-3.4101,-3.4101,-3.4101,-3.4101,-3.4448,0.0,0.0,0.0,0.0,0.0,0.0,0.0,0.0,0.0,0.0,0.0,0.0,0.0,0.0,0.0,0.0,0.0,0.0,0.0,0.0,-3.3552,0.0,0.0,0.0,0.0,0.0,0.0,0.0,0.0,0.0,0.0,-3.4157,-3.376,-3.3654,-3.4037,0.0,0.0,0.0,0.0,-3.4084,-3.4101,-3.4101,-3.4101,-3.4101,-3.4101,-3.4101,-3.4101,0.0,0.0,-3.4101,-3.4101,-3.4117,-3.4133,-3.4165,-3.4133,-3.4198,-3.4165,-3.4101,-3.4101,-3.4068,-3.4084,-3.4101,-3.4068,-3.4052,-3.5405,0.0,0.0,0.0,0.0,-3.5788,-3.5496,-3.5157,-3.4958,-3.4842,-3.4842,-3.4842,0.0,0.0,0.0,0.0,0.0,0.0,-3.4787,-3.4667,-3.43,-3.4101,-3.4101,-3.4101,-3.4376,-3.4862,-3.4903,-3.5137,-3.5671,-3.5671,-3.5137,-3.4117,0.0,0.0,0.0,0.0,-3.4101,-3.4101,-3.4101,-3.4101,-3.4101,-3.4101,-3.4101,-3.4101,-3.4101,-3.4101,-3.4101,-3.4101,-3.4101,-3.4101,-3.4201,0.0,0.0,0.0,0.0,0.0,0.0,0.0,0.0,0.0,0.0,0.0,0.0,0.0,0.0,0.0,0.0,0.0,0.0,0.0,-3.4658,-3.4706,-3.479,0.0,0.0,0.0,0.0,0.0,0.0,0.0,0.0,0.0,-3.453,-3.4186,-3.3973,0.0,0.0,-3.4101,-3.4101,-3.4101,-3.4101,-3.4101,0.0,0.0,0.0,-3.4101,-3.4101,-3.4101,-3.4101,-3.4101,-3.4101,-3.4101,-3.4262,-3.4764,-3.4878,-3.5065,-3.5509,-3.4797,-3.4165,-3.4101,-3.4101,-3.4101,-3.4101,-3.4101,-3.4117,-3.5728,-3.6274,-3.5535,-3.5275,-3.5407,-3.54,-3.5365,-3.5331,-3.5315,-3.5331,-3.5331,-3.5331,-3.5539,-3.5856,-3.6,0.0,0.0,0.0,-3.5465,-3.5331,-3.5078,-3.4991,-3.4975,-3.4975,-3.5202,-3.5606,-3.5623,-3.5849,-3.6276,-3.6276,-3.5866,-3.5007,0.0,0.0,-3.4975,-3.4975,-3.4975,-3.4975,-3.4975,-3.4975,-3.4975,-3.4975,-3.4975,-3.4975,-3.4683,-3.4522,-3.4522,-3.4246,-3.4101,-3.4101,-3.4101,-3.4101,0.0,0.0,0.0,0.0,0.0,0.0,0.0,0.0,0.0,0.0,0.0,-3.4068,0.0,0.0,0.0,0.0,-3.429,-3.452,-3.496,-3.4996,0.0,0.0,0.0,0.0,0.0,0.0,0.0,-3.4183,-3.4315,-3.4472,-3.4472,-3.425,-3.4101,-3.4101,-3.4101,-3.4101,-3.4101,0.0,-3.4101,-3.4101,-3.4101,-3.4101,-3.4101,-3.4101,-3.4198,-3.4473,-3.4781,-3.4975,-3.4959,-3.4975,-3.5121,-3.5509,-3.5623,-3.5768,-3.6222,-3.5558,-3.4975,-3.4975,-3.4975,-3.4975,-3.4975,-3.4975,-3.4975,-3.6448,-3.6324,-3.5645,-3.551,-3.5736,-3.5753,-3.596,-3.6287,-3.6287,-3.6276,-3.6276,-3.6276,-3.6482,-3.6781,-3.7153,0.0,-3.6755,-3.6755,-3.6591,-3.6303,-3.6276,-3.6276,-3.6276,-3.6287,-3.6335,-3.6384,-3.6384,-3.6432,-3.6497,-3.6497,-3.6465,-3.6481,-3.6481,-3.6432,-3.6319,-3.626,-3.6276,-3.6303,-3.6287,-3.626,-3.6276,-3.6276,-3.6276,-3.626,-3.5639,-3.5292,-3.5276,-3.4635,-3.4246,-3.4198,-3.4182,-3.4165,-3.4117,0.0,0.0,0.0,0.0,0.0,0.0,0.0,0.0,0.0,0.0,0.0,0.0,0.0,0.0,0.0,-3.4842,0.0,-3.4739,-3.4715,0.0,0.0,0.0,-3.5062,-3.4691,-3.4667,-3.4546,-3.4151,0.0,0.0,-3.4101,0.0,-3.4101,-3.4101,-3.4101,-3.4101,-3.4101,-3.4101,-3.4101,-3.4101,-3.4165,-3.4198,-3.4262,-3.4327,-3.4619,-3.5185,-3.5849,-3.6189,-3.6222,-3.6222,-3.626,-3.6384,-3.6384,-3.6432,-3.6465,-3.6513,-3.6465,-3.6481,-3.6335,-3.6254,-3.6189,-3.6189,-3.6157,-3.7582,-3.7048,-3.6879,-3.6564,-3.6143,-3.6143,-3.6204,-3.6303,-3.6276,-3.6276,-3.6276,-3.6276,-3.634,-3.6446,-3.6525,-3.6525,-3.6403,-3.6419,-3.6366,-3.6303,-3.6276,-3.6276,-3.6276,-3.6276,-3.6578,-3.7064,-3.7053,-3.7328,-3.7873,-3.7906,-3.789,-3.7906,-3.7906,-3.7371,-3.6351,-3.6276,-3.6276,-3.6276,-3.6276,-3.6276,-3.6276,-3.6276,-3.6276,-3.6276,-3.6141,-3.6044,-3.6027,-3.5882,-3.5525,-3.4959,-3.4952,-3.4693,-3.4133,-3.4101,0.0,0.0,0.0,0.0,0.0,0.0,0.0,0.0,0.0,-3.4602,-3.5155,0.0,-3.4913,0.0,-3.4456,-3.448,-3.5015,-3.4859,0.0,0.0,-3.5008,-3.4944,-3.4308,-3.4497,-3.4546,-3.4151,-3.4101,-3.4101,-3.4101,-3.4101,-3.4101,-3.4101,-3.4101,-3.4101,-3.4101,-3.4101,-3.4101,-3.4149,-3.4586,-3.4952,-3.4975,-3.5428,-3.5833,-3.6011,-3.6206,-3.6276,-3.6303,-3.6276,-3.6448,-3.695,-3.7053,-3.729,-3.776,-3.789,-3.789,-3.7825,-3.7064,-3.6276,-3.6276,-3.6292,-3.6292,-3.9104,-3.8732,-3.8732,-3.8505,-3.81,-3.7134,-3.695,-3.7242,-3.7242,-3.7242,-3.7242,-3.7258,-3.7242,-3.7226,-3.7242,-3.7242,-3.7242,-3.7226,-3.7242,-3.7242,-3.7242,-3.7242,-3.7242,-3.7242,-3.7436,-3.7792,-3.7792,-3.8003,-3.8375,-3.8391,-3.8391,-3.8391,-3.8391,-3.8019,-3.7274,-3.7242,-3.7242,-3.7226,-3.7242,-3.7242,-3.7242,-3.7226,-3.7242,-3.7242,-3.6918,-3.6756,-3.6772,-3.6465,-3.6108,-3.5704,-3.5687,-3.5347,-3.4635,-3.4586,-3.4424,0.0,0.0,0.0,0.0,0.0,0.0,0.0,0.0,0.0,0.0,0.0,-3.4763,0.0,-3.4431,-3.4333,-3.4897,-3.4626,-3.4423,-3.4423,-3.4602,-3.4554,-3.4134,-3.43,-3.4366,-3.4126,-3.4101,-3.4101,-3.4101,-3.4101,-3.423,-3.4538,-3.4586,-3.4457,-3.4198,-3.4385,-3.4586,-3.4603,-3.5228,-3.5687,-3.5687,-3.6287,-3.6729,-3.6788,-3.7048,-3.7242,-3.7242,-3.7242,-3.7371,-3.7711,-3.7765,-3.7922,-3.8311,-3.8391,-3.8391,-3.8294,-3.7792,-3.7307,-3.7242,-3.7242,-3.7258,-4.0982,-4.0901,-4.0901,-4.0853,-4.061,-3.8683,-3.8181,-3.8667,-3.8667,-3.8683,-3.8667,-3.8667,-3.8667,-3.8667,-3.8683,-3.8667,-3.8667,-3.8667,-3.8667,-3.8683,-3.8667,-3.8667,-3.8667,-3.8667,-3.8667,-3.8667,-3.8586,-3.8537,-3.8537,-3.844,-3.8391,-3.8391,-3.8391,-3.8391,-3.8391,-3.8391,-3.8391,-3.8391,-3.8391,-3.8391,-3.8391,-3.8391,-3.8391,-3.8375,-3.7776,-3.7441,-3.7409,-3.6902,-3.6529,-3.6422,-3.6432,-3.6108,-3.5406,-3.5331,-3.504,0.0,-3.4295,0.0,0.0,0.0,0.0,0.0,0.0,0.0,0.0,-3.4423,-3.4747,-3.5038,-3.448,-3.425,-3.4594,-3.43,-3.4101,-3.4101,-3.4101,-3.4101,-3.4101,-3.4101,-3.4101,-3.4101,-3.4182,-3.4246,-3.4262,-3.4311,-3.4651,-3.5228,-3.5331,-3.5137,-3.4619,-3.4959,-3.5357,-3.5357,-3.5963,-3.6465,-3.6643,-3.7096,-3.7452,-3.7533,-3.789,-3.8391,-3.8311,-3.8327,-3.8375,-3.8375,-3.8343,-3.8375,-3.8391,-3.8391,-3.8391,-3.8391,-3.8327,-3.8294,-3.8294,-3.8278,-3.8391,-4.3638,-4.3103,-4.3087,-4.2732,-4.2117,-4.1193,-4.0513,-4.0092,-4.0092,-4.0092,-4.0092,-4.0108,-4.0108,-4.0092,-4.0108,-4.0092,-4.0108,-4.0092,-4.0092,-4.0092,-4.0092,-4.0092,-4.0092,-4.0108,-4.0108,-4.0059,-3.9541,-3.9266,-3.9295,-3.8683,-3.8391,-3.8391,-3.8391,-3.8391,-3.8391,0.0,0.0,0.0,-3.8391,-3.8391,-3.8391,-3.8391,-3.8391,-3.8391,-3.8262,0.0,-3.8197,-3.8068,-3.7728,-3.7134,-3.7101,0.0,0.0,0.0,0.0,0.0,0.0,0.0,0.0,0.0,0.0,0.0,-3.4101,-3.4101,-3.4101,-3.4176,-3.425,-3.43,-3.4176,-3.4126,-3.4201,-3.4151,-3.4101,-3.4101,-3.4101,-3.4101,-3.4101,-3.4101,-3.4101,-3.4101,-3.4603,-3.4975,-3.5007,-3.5493,-3.5914,-3.6044,-3.6092,-3.6044,-3.593,-3.6011,-3.6092,-3.6141,-3.6707,-3.7311,-3.7922,-3.8068,-3.8116,-3.823,-3.8262,-3.8391,-3.8391,-3.8391,-3.8391,-3.8391,-3.8391,-3.8391,-3.8391,-3.8391,-3.8391,-3.8391,-3.8391,-3.8391,-3.8391,-3.8391,-3.8391,-4.4577,0.0,-4.4237,-4.4043,0.0,-4.3314,-4.2958,-4.2552,-4.1112,-4.0496,-4.0496,-4.0496,-4.0496,-4.0496,-4.0496,-4.0496,-4.0496,-4.0496,-4.0496,-4.0496,-4.0496,-4.0496,-4.0496,-4.0496,-4.0496,-4.048,-4.0156,-4.0008,-3.9962,-3.9606,-3.9266,-3.8942,-3.8942,-3.8748,-3.8408,-3.8391,-3.8391,-3.8391,-3.8391,-3.8391,-3.8391,-3.8391,-3.8391,-3.8391,0.0,0.0,0.0,0.0,0.0,0.0,0.0,0.0,0.0,0.0,0.0,-3.6319,-3.5946,-3.5736,-3.5736,-3.5412,-3.5185,-3.5185,-3.5185,-3.4878,-3.4165,-3.4101,-3.4101,-3.4101,-3.4101,-3.4101,-3.4101,-3.4101,-3.4101,-3.4101,-3.4101,-3.423,-3.4554,-3.4635,-3.4781,-3.5153,-3.5509,-3.5736,-3.5752,-3.6027,-3.6448,-3.6756,-3.6778,-3.6934,-3.7226,-3.7015,-3.6875,-3.7258,-3.7582,-3.797,-3.8294,-3.8391,-3.8391,-3.8391,-3.8391,-3.8391,-3.8391,-3.8391,-3.8391,-3.8391,-3.8391,-3.8391,-3.8391,-3.8391,-3.8391,-3.8391,-3.8391,-3.8391,-3.8391,-3.8391,-3.8278,-4.4804,-4.4804,-4.4804,-4.4804,-4.4804,-4.4804,-4.4804,-4.4625,0.0,0.0,0.0,-4.1047,-4.0982,-4.0869,-4.0869,-4.0869,-4.0869,-4.0869,-4.0869,-4.0869,-4.0885,-4.0869,-4.0869,-4.0869,-4.0869,-4.0869,-4.0739,-4.0675,-4.0675,-4.0561,-4.0235,-3.9732,-3.957,-3.912,-3.844,-3.8391,-3.8391,-3.8391,-3.8391,-3.8391,-3.8391,-3.8391,-3.8391,-3.8391,-3.8391,-3.8391,-3.8391,-3.8391,-3.8391,-3.8391,-3.8391,-3.8132,-3.7549,-3.7489,-3.7258,-3.6724,-3.6535,-3.6481,-3.6481,-3.6367,-3.6276,-3.6276,-3.6276,-3.5801,-3.457,-3.4489,-3.4489,-3.4489,-3.4489,-3.4489,-3.4489,-3.4489,-3.4489,-3.4489,-3.4489,-3.4748,-3.5309,-3.538,-3.5606,-3.6189,-3.6384,-3.6481,-3.6481,-3.6643,-3.6869,-3.7371,-3.7517,-3.7711,-3.8165,-3.7857,-3.7651,-3.8165,-3.8278,-3.8375,-3.8391,-3.8391,-3.8391,-3.8391,-3.8391,-3.8391,-3.8391,-3.8391,-3.8391,-3.8391,-3.8391,-3.8391,-3.8391,-3.8391,-3.8391,-3.8391,-3.8391,-3.8391,-3.8391,-3.8391,-3.825,-4.4804,-4.4804,-4.4804,-4.4804,-4.4804,-4.4804,-4.4804,-4.4771,-4.435,-4.3832,-4.3265,-4.3249,-4.2925,-4.2311,-4.2311,-4.2295,-4.2295,-4.2295,-4.2295,0.0,-4.2295,-4.2295,-4.2295,-4.2295,-4.2295,-4.2246,-4.1711,-4.145,-4.1385,-4.0834,-4.0448,-4.0302,-3.9797,-3.912,-3.8472,-3.8391,-3.8391,-3.8391,-3.8391,-3.8391,-3.8391,-3.8391,-3.8391,-3.8391,-3.8391,-3.8391,-3.8391,-3.8391,-3.8391,-3.8391,-3.8391,-3.8359,-3.8262,-3.8246,-3.8197,-3.8084,-3.7489,-3.715,-3.7161,-3.6643,-3.6276,-3.6276,-3.6276,-3.6179,-3.6027,-3.5995,-3.5995,-3.5995,-3.593,-3.5995,-3.5995,-3.5946,-3.5898,-3.5904,-3.5979,-3.6044,-3.6125,-3.6157,-3.6206,-3.6384,-3.681,-3.715,-3.7198,-3.7663,-3.8003,-3.8181,-3.8132,-3.8262,-3.8327,-3.8311,-3.8294,-3.8375,-3.8391,-3.8391,-3.8391,-3.8391,-3.8391,-3.8391,-3.8391,-3.8391,-3.8391,-3.8391,-3.8391,-3.8391,-3.8391,-3.8391,-3.8391,-3.8391,-3.8391,-3.8391,-3.8391,-3.8391,-3.8391,-3.8363,-3.8323,-4.4804,-4.4804,-4.4804,-4.4804,-4.482,-4.5176,-4.5338,-4.537,-4.5775,-4.5305,-4.4334,-4.4302,-4.4107,-4.3783,-4.3347,-4.3185,-4.3169,-4.278,-4.2602,-4.2602,-4.2602,-4.2602,-4.2602,-4.2602,-4.2602,-4.2586,-4.2326,-4.2148,-4.2099,-4.1808,-4.1452,-4.1061,-4.0056,-3.9343,-3.8991,-3.8586,-3.8391,-3.8391,-3.8391,-3.8391,-3.8391,-3.8391,-3.8391,-3.8391,-3.8391,-3.8391,-3.8391,-3.8391,-3.8391,-3.8391,-3.8391,-3.8391,-3.8391,-3.8391,-3.8391,-3.8391,-3.81,-3.7906,-3.7906,-3.763,-3.7436,-3.7452,-3.7436,-3.7436,-3.7436,-3.674,-3.6303,-3.6276,-3.6276,-3.6276,-3.6276,-3.6276,-3.6276,-3.6276,-3.6276,-3.6465,-3.6745,-3.6826,-3.6999,-3.7371,-3.7695,-3.7906,-3.7906,-3.8197,-3.8391,-3.8391,-3.8391,-3.8391,-3.8391,-3.8391,-3.8391,-3.8391,-3.8391,-3.8391,-3.8391,-3.8391,-3.8391,-3.8391,-3.8391,-3.8391,-3.8391,-3.8391,-3.8391,-3.8391,-3.8391,-3.8391,-3.8391,-3.8391,-3.8391,-3.8391,-3.8391,-3.8391,-3.8379,-3.8164,-3.7756,-4.4302,-4.4302,-4.4302,-4.4399,-4.4593,-4.5111,-4.5419,-4.5646,-4.6326,-4.6034,-4.5095,-4.5014,-4.4933,-4.4739,-4.4204,-4.3962,-4.3864,-4.3169,-4.2845,-4.2829,-4.2667,-4.2602,-4.2602,-4.2602,-4.2602,-4.2602,-4.2602,-4.2602,-4.2602,-4.2602,-4.2261,-4.1563,-4.051,-3.9894,-3.9687,-3.8991,-3.8651,-3.8634,-3.8489,-3.8391,-3.8391,-3.8391,-3.8391,-3.8391,-3.8391,-3.8391,-3.8391,-3.8391,-3.8391,-3.8391,-3.8391,-3.8391,-3.8391,-3.8391,-3.8391,-3.8391,-3.8391,-3.8391,-3.8391,-3.8391,-3.8391,-3.8391,-3.8391,-3.8391,-3.8311,-3.742,-3.6772,-3.6788,-3.6837,-3.6821,-3.6837,-3.6805,-3.6772,-3.6772,-3.6772,-3.7004,-3.7441,-3.7522,-3.776,-3.8311,-3.8391,-3.8375,-3.8391,-3.8391,-3.8391,-3.8391,-3.8391,-3.8391,-3.8391,-3.8391,-3.8391,-3.8391,-3.8391,-3.8391,-3.8391,-3.8391,-3.8391,-3.8391,-3.8391,-3.8391,-3.8391,-3.8391,-3.8391,-3.8391,-3.8391,-3.8391,-3.8391,-3.8391,-3.8391,-3.8391,-3.8391,-3.8456,-3.8667,-3.7984,-3.735,-4.2829,-4.2797,-4.2861,-4.3185,-4.38,-4.3913,-4.4302,-4.4933,-4.5613,-4.5856,-4.5678,-4.571,-4.537,-4.4836,-4.4723,-4.469,-4.4625,-4.3945,-4.3622,-4.3524,-4.2894,-4.2602,-4.2635,-4.2602,-4.2602,-4.2602,-4.2602,-4.2602,-4.2602,-4.2602,-4.2278,-4.1677,-4.1466,-4.1045,-4.0383,-3.9748,-3.9392,-3.9392,-3.8732,-3.8391,-3.8391,-3.8391,-3.8391,-3.8391,-3.8391,-3.8391,-3.8391,-3.8391,-3.8391,-3.8391,-3.8391,-3.8391,-3.8391,-3.8391,-3.8391,-3.8391,-3.8391,-3.8391,-3.8391,-3.8391,-3.8391,-3.8391,-3.8391,-3.8391,-3.8391,-3.8262,-3.8197,-3.8132,-3.8149,-3.81,-3.8197,-3.8132,-3.8051,-3.8019,-3.8068,-3.8246,-3.823,-3.8294,-3.8327,-3.8375,-3.8391,-3.8391,-3.8391,-3.8391,-3.8391,-3.8391,-3.8391,-3.8391,-3.8391,-3.8391,-3.8391,-3.8391,-3.8391,-3.8391,-3.8391,-3.8391,-3.8391,-3.8391,-3.8391,-3.8391,-3.8391,-3.8391,-3.8391,-3.8391,-3.8391,-3.8391,-3.8391,-3.8408,-3.8456,-3.8541,-3.8574,-3.8594,-3.9008,-3.8288,-3.7452,-4.2602,-4.2602,-4.2602,-4.2748,-4.3072,-4.3492,-4.3881,-4.4221,-4.4917,-4.5419,-4.5775,-4.5824,-4.5872,-4.5986,-4.5597,-4.5386,-4.5338,-4.4674,-4.435,-4.4269,-4.3605,-4.325,-4.3233,-4.278,-4.2602,-4.2602,-4.2602,-4.2602,-4.2602,-4.2602,-4.2441,-4.2164,-4.1808,-4.145,-4.1126,-4.0461,-4.0075,-4.0089,-3.9784,-3.9638,-3.9541,-3.8829,-3.8391,-3.8391,-3.8391,-3.8391,-3.8391,-3.8391,-3.8391,-3.8391,-3.8391,-3.8391,-3.8391,-3.8391,-3.8391,-3.8391,-3.8391,-3.8391,-3.8391,-3.8391,-3.8391,-3.8391,-3.8391,-3.8391,-3.8391,-3.8391,-3.8391,-3.8391,-3.8391,-3.8391,-3.8391,-3.8391,-3.8391,-3.8391,-3.8391,-3.8391,-3.8391,-3.8391,-3.8391,-3.8391,-3.8391,-3.8391,-3.8391,-3.8391,-3.8391,-3.8391,-3.8391,-3.8391,-3.8391,-3.8391,-3.8391,-3.8391,-3.8391,-3.8391,-3.8391,-3.8391,-3.8391,-3.8391,-3.8391,-3.8391,-3.8391,-3.8391,-3.8391,-3.8408,-3.8456,-3.8456,-3.8391,-3.8812,-3.9055,-3.8956,-3.8942,-3.9019,-3.8873,-3.8015,-3.7456,-4.2602,-4.2602,-4.2602,-4.2602,-4.2651,-4.3153,-4.3379,-4.3508,-4.4172,-4.4771,-4.5257,-4.5613,-4.6083,-4.6488,-4.6228,-4.6099,-4.6002,-4.537,-4.5079,-4.4982,-4.4318,-4.3913,-4.367,-4.3169,-4.278,-4.2619,-4.2602,-4.2602,-4.2602,-4.2602,-4.2602,-4.2522,-4.2116,-4.1873,-4.1823,-4.1144,-4.0818,-4.0802,-4.0626,-4.0496,-4.0351,-3.9509,-3.8877,-3.8699,-3.8505,-3.8391,-3.8391,-3.8391,-3.8391,-3.8391,-3.8391,-3.8391,-3.8391,-3.8391,-3.8391,-3.8391,-3.8391,-3.8391,-3.8391,-3.8391,-3.8391,-3.8391,-3.8391,-3.8391,-3.8391,-3.8391,-3.8391,-3.8391,-3.8391,-3.8391,-3.8391,-3.8391,-3.8391,-3.8391,-3.8391,-3.8391,-3.8391,-3.8391,-3.8391,-3.8391,-3.8391,-3.8391,-3.8391,-3.8391,-3.8391,-3.8391,-3.8391,-3.8391,-3.8391,-3.8391,-3.8391,-3.8391,-3.8391,-3.8391,-3.8391,-3.8391,-3.8391,-3.8391,-3.8391,-3.8391,-3.8391,-3.8391,-3.8618,-3.8748,-3.8683,-3.8849,-3.9143,-3.9531,-3.9262,-3.9114,-3.9014,-3.8931,-3.876,-3.7975,-3.7719,-4.2602,-4.2602,-4.2602,-4.2602,-4.2619,-4.2651,-4.2667,-4.2764,-4.3428,-4.38,-4.4075,-4.5176,-4.5791,-4.5888,-4.6423,-4.6795,-4.6749,-4.6083,-4.5775,-4.5694,-4.5063,-4.4383,-4.3735,-4.367,-4.3298,-4.2829,-4.2813,-4.2732,-4.2667,-4.2619,-4.2602,-4.2586,-4.2522,-4.2538,-4.2408,-4.1857,-4.1563,-4.1498,-4.0966,-4.0561,-4.0545,-4.0464,-4.0075,-3.9522,-3.8796,-3.8505,-3.844,-3.8408,-3.8408,-3.8408,-3.8391,-3.8391,-3.8391,-3.8391,-3.8391,-3.8391,-3.8391,-3.8391,-3.8391,-3.8391,-3.8391,-3.8391,-3.8391,-3.8391,-3.8391,-3.8391,-3.8391,-3.8391,-3.8391,-3.8391,-3.8391,-3.8391,-3.8391,-3.8391,-3.8391,-3.8391,-3.8391,-3.8391,-3.8391,-3.8391,-3.8391,-3.8391,-3.8391,-3.8391,-3.8391,-3.8391,-3.8391,-3.8391,-3.8391,-3.8391,-3.8424,-3.8472,-3.8489,-3.8424,-3.8424,-3.8408,-3.8408,-3.8553,-3.8634,-3.8537,-3.844,-3.8472,-3.8861,-3.9127,-3.9169,-3.9462,-3.9978,-3.981,-3.9093,-3.869,-3.8358,-3.8228,-3.8456,-3.8287,-3.8089,-4.2602,-4.2602,-4.2602,-4.2602,-4.2602,-4.2602,-4.2602,-4.2619,-4.2861,-4.3266,-4.3735,-4.4253,-4.4706,-4.5176,-4.5872,-4.6455,-4.6844,-4.6601,-4.6488,-4.6423,-4.5759,-4.5305,-4.503,-4.4625,-4.4302,-4.4059,-4.3994,-4.3767,-4.3266,-4.2845,-4.2602,-4.2602,-4.2602,-4.2602,-4.2554,-4.2344,-4.2245,-4.2229,-4.1954,-4.1842,-4.1776,-4.1419,-4.1077,-4.0834,-4.0108,-3.9541,-3.9104,-3.9088,-3.8893,-3.8424,-3.8408,-3.8391,-3.8391,-3.8391,-3.8391,-3.8391,-3.8391,-3.8391,-3.8391,-3.8391,-3.8391,-3.8391,-3.8391,-3.8391,-3.8391,-3.8391,-3.8391,-3.8391,-3.8391,-3.8391,-3.8391,-3.8391,-3.8391,-3.8391,-3.8391,-3.8391,-3.8391,-3.8391,-3.8391,-3.8391,-3.8391,-3.8391,-3.8391,-3.8408,-3.8391,-3.8391,-3.8408,-3.844,-3.8424,-3.8408,-3.8602,-3.9003,-3.9104,-3.9233,-3.9735,-3.8877,-3.8521,-3.8926,-3.9153,-3.9428,-3.9476,-3.9437,-3.9777,-3.956,-3.9598,-3.9342,-3.9598,-3.9383,-3.8748,-3.8522,-3.8145,-3.7916,-3.8135,-3.7974,-3.8062,-4.2602,-4.2602,-4.2602,-4.2602,-4.2602,-4.2602,-4.2602,-4.2602,-4.2602,-4.2877,-4.333,-4.3589,-4.3994,-4.4512,-4.5176,-4.5856,-4.6536,-4.6763,-4.6911,-4.6878,-4.6374,-4.6018,-4.5759,-4.5338,-4.4998,-4.4804,-4.4804,-4.4528,-4.4075,-4.3557,-4.3185,-4.2958,-4.2942,-4.2829,-4.2651,-4.2602,-4.2602,-4.2602,-4.2602,-4.2586,-4.2538,-4.2164,-4.1921,-4.184,-4.1419,-4.0739,-3.9849,-3.9846,-3.9606,-3.9136,-3.8861,-3.8634,-3.844,-3.8391,-3.8391,-3.8391,-3.8391,-3.8391,-3.8391,-3.8391,-3.8391,-3.8391,-3.8391,-3.8391,-3.8391,-3.8391,-3.8391,-3.8391,-3.8391,-3.8391,-3.8391,-3.8391,-3.8391,-3.8391,-3.8391,-3.8391,-3.8391,-3.8391,-3.8391,-3.8391,-3.8391,-3.8391,-3.844,-3.8634,-3.8748,-3.8764,-3.891,-3.9072,-3.9072,-3.9088,-3.9201,-3.9687,-3.9829,-3.9962,-4.0189,-3.9658,-3.9334,-3.9674,-3.9712,-4.0051,-4.0084,-4.0212,-4.0188,-3.999,-3.966,-3.924,-3.8928,-3.8804,-3.8594,-3.8355,-3.7947,-3.7601,-3.7658,-3.7668,-3.781,-4.2602,-4.2602,-4.2602,-4.2602,-4.2602,-4.2602,-4.2602,-4.2602,-4.2602,-4.2651,-4.2813,-4.3362,-4.3638,-4.3848,-4.4464,-4.5144,-4.5726,-4.6342,-4.6781,-4.6844,-4.6862,-4.6455,-4.5921,-4.5856,-4.5532,-4.5014,-4.4868,-4.482,-4.4787,-4.4625,-4.4269,-4.38,-4.3638,-4.3266,-4.2651,-4.2651,-4.2602,-4.2602,-4.2602,-4.2602,-4.2602,-4.2538,-4.2505,-4.2538,-4.2457,-4.1842,-4.061,-4.0529,-4.0461,-4.0302,-3.9829,-3.9197,-3.8683,-3.8586,-3.8472,-3.8505,-3.8456,-3.844,-3.8391,-3.8391,-3.8391,-3.8391,-3.8391,-3.8391,-3.8391,-3.8391,-3.8391,-3.8391,-3.8408,-3.8424,-3.8472,-3.8521,-3.8472,-3.8391,-3.8391,-3.8391,-3.8391,-3.8424,-3.844,-3.8553,-3.8634,-3.8472,-3.8602,-3.9072,-3.946,-3.9573,-3.9881,-4.0205,-4.0127,-4.0035,-4.0291,-4.0391,-4.0196,-4.0111,-4.0323,-4.0483,-4.0423,-4.0425,-4.0319,-4.0387,-4.0039,-3.9976,-3.9941,-3.9773,-3.9318,-3.8864,-3.8302,-3.8143,-3.7936,-3.772,-3.7429,-3.7313,-3.7327,-3.738,-3.7534,-4.2602,-4.2602,-4.2602,-4.2602,-4.2602,-4.2602,-4.2602,-4.2602,-4.2602,-4.2602,-4.2651,-4.2829,-4.2942,-4.3104,-4.3719,-4.4172,-4.4415,-4.5111,-4.5937,-4.6749,-4.6894,-4.673,-4.6552,-4.6536,-4.6473,-4.618,-4.571,-4.5484,-4.5419,-4.503,-4.4642,-4.4415,-4.3962,-4.3622,-4.3298,-4.2877,-4.2602,-4.2602,-4.2602,-4.2602,-4.2602,-4.2602,-4.2602,-4.2602,-4.2602,-4.2344,-4.197,-4.15,-4.1045,-4.0561,-4.0286,-4.0059,-3.9865,-3.9849,-3.9622,-3.9201,-3.9181,-3.8877,-3.8472,-3.8424,-3.8456,-3.8424,-3.8424,-3.8391,-3.8391,-3.844,-3.8456,-3.844,-3.8424,-3.857,-3.9007,-3.9136,-3.8958,-3.8456,-3.8391,-3.8489,-3.857,-3.8877,-3.9331,-3.9752,-3.9833,-3.9833,-3.9849,-4.0094,-4.0038,-4.01,-4.0326,-4.0488,-4.0455,-4.0126,-4.002,-4.0355,-4.0119,-4.0084,-4.0307,-4.0419,-4.0402,-4.0356,-4.0357,-4.0277,-3.9982,-3.9743,-3.9724,-3.9352,-3.8912,-3.8435,-3.7832,-3.7529,-3.739,-3.7275,-3.7173,-3.7134,-3.7095,-3.7226,-3.738,-4.2174,-4.2174,-4.19,-4.1803,-4.177,-4.177,-4.1803,-4.177,-4.177,-4.177,-4.1803,-4.2093,-4.2174,-4.235,-4.2944,-4.3428,-4.3751,-4.4204,-4.4998,-4.5969,-4.6099,-4.6228,-4.6488,-4.683,-4.6703,-4.6413,-4.5977,-4.5768,-4.5736,-4.5351,-4.515,-4.5045,-4.4425,-4.391,-4.3654,-4.2945,-4.2559,-4.2588,-4.2602,-4.2602,-4.2602,-4.2602,-4.2602,-4.2602,-4.2602,-4.2602,-4.2554,-4.2197,-4.1759,-4.1322,-4.1063,-4.0788,-4.0545,-4.0448,-4.0286,-4.0008,-3.9833,-3.9667,-3.9233,-3.925,-3.9185,-3.9169,-3.9185,-3.9185,-3.9185,-3.9169,-3.9169,-3.9185,-3.9217,-3.9363,-3.9768,-3.9865,-3.9622,-3.9266,-3.9233,-3.9185,-3.925,-3.9573,-3.9946,-4.0289,-4.019,-4.0118,-4.0103,-4.0084,-4.007,-4.0133,-4.0293,-4.0483,-4.0372,-4.0085,-4.0206,-4.0278,-4.0206,-4.0223,-4.0346,-4.0339,-4.0286,-4.0238,-4.0192,-4.0056,-3.9807,-3.9664,-3.9576,-3.8705,-3.8133,-3.782,-3.7275,-3.7197,-3.7095,-3.6978,-3.6978,-3.7017,-3.7056,-3.7095,-3.7226,-4.1426,-4.1344,-4.0724,-4.0519,-4.0519,-4.0519,-4.0588,-4.0485,-4.0519,-4.0569,-4.0656,-4.1178,-4.1459,-4.1591,-4.2109,-4.2671,-4.3364,-4.3298,-4.3685,-4.4332,-4.4558,-4.4849,-4.5743,-4.6175,-4.607,-4.5703,-4.5491,-4.5498,-4.5482,-4.5435,-4.5651,-4.5463,-4.4722,-4.423,-4.358,-4.2831,-4.2453,-4.2559,-4.2525,-4.246,-4.2571,-4.2602,-4.2602,-4.2602,-4.2602,-4.2602,-4.2586,-4.2522,-4.2538,-4.2473,-4.1905,-4.1371,-4.082,-4.0626,-4.0739,-4.0594,-4.0561,-4.0494,-4.0464,-4.0254,-4.0286,-4.027,-4.0254,-4.0496,-4.0286,-4.0205,-4.0205,-4.0254,-4.0286,-4.0399,-4.0496,-4.0425,-4.0379,-4.0428,-4.0112,-4.0123,-4.0437,-4.0379,-4.028,-4.0297,-3.9909,-3.9487,-3.9677,-3.9663,-3.9617,-3.972,-4.0112,-4.0349,-4.0344,-4.0232,-4.0274,-4.0167,-3.9871,-3.9687,-3.9591,-3.9591,-3.9484,-3.9439,-3.9461,-3.9379,-3.926,-3.9145,-3.8979,-3.8121,-3.7582,-3.7211,-3.7017,-3.6978,-3.6978,-3.6978,-3.6978,-3.6978,-3.7017,-3.7056,-3.7056,-4.069,-4.0656,-4.0485,-4.0416,-4.0416,-4.0416,-4.0382,-4.0382,-4.0382,-4.0313,-4.0451,-4.0603,-4.069,-4.0724,-4.0909,-4.1086,-4.1359,-4.1375,-4.1675,-4.2262,-4.2359,-4.344,-4.4621,-4.4703,-4.4725,-4.4752,-4.4382,-4.4338,-4.4765,-4.4803,-4.4822,-4.483,-4.4153,-4.3692,-4.3334,-4.2295,-4.2044,-4.2386,-4.1993,-4.2077,-4.2492,-4.2523,-4.2602,-4.2602,-4.2571,-4.2571,-4.2602,-4.2602,-4.2602,-4.2602,-4.2441,-4.2263,-4.1971,-4.1939,-4.1743,-4.1385,-4.1304,-4.1061,-4.0642,-4.0561,-4.0529,-4.0496,-4.0642,-4.0496,-4.0496,-4.0513,-4.0496,-4.0496,-4.0513,-4.0726,-4.1069,-4.0797,-4.0547,-4.0393,-4.0039,-3.9944,-4.0293,-4.0021,-3.9836,-4.0288,-4.0186,-4.0055,-4.0019,-3.9973,-3.9937,-4.0017,-4.009,-4.0243,-4.0034,-3.9788,-3.9591,-3.9391,-3.9116,-3.8855,-3.8716,-3.8716,-3.8642,-3.8546,-3.8465,-3.8405,-3.8248,-3.8098,-3.7886,-3.7404,-3.7327,-3.7017,-3.6978,-3.6978,-3.6978,-3.6978,-3.6978,-3.6978,-3.6978,-3.7017,-3.7017,-3.9945,-3.9894,-3.9591,-3.9484,-3.9484,-3.9484,-3.9484,-3.9484,-3.9484,-3.9484,-3.9555,-3.9839,-3.9945,-3.998,-4.0278,-4.0416,-4.0416,-4.0416,-4.0672,-4.0977,-4.1091,-4.2305,-4.3762,-4.3862,-4.3743,-4.3633,-4.3267,-4.3284,-4.3602,-4.3875,-4.418,-4.4349,-4.3716,-4.3381,-4.334,-4.2062,-4.1709,-4.2184,-4.1621,-4.1393,-4.2077,-4.1835,-4.19,-4.1933,-4.19,-4.1754,-4.2045,-4.2126,-4.2254,-4.2492,-4.2602,-4.2602,-4.2602,-4.2602,-4.2408,-4.2019,-4.2019,-4.1808,-4.1517,-4.1387,-4.1387,-4.1403,-4.1387,-4.1387,-4.1436,-4.1387,-4.1326,-4.1003,-4.0924,-4.0975,-4.0975,-4.0697,-4.0487,-4.0337,-3.9776,-3.9683,-4.0368,-4.0099,-4.0016,-4.0205,-4.0139,-3.9929,-3.9894,-3.9682,-3.952,-3.9433,-3.926,-3.9341,-3.9305,-3.903,-3.8863,-3.8752,-3.8657,-3.8509,-3.8449,-3.8449,-3.8375,-3.8202,-3.8014,-3.7815,-3.7663,-3.7457,-3.738,-3.7264,-3.7095,-3.6978,-3.6978,-3.6978,-3.6978,-3.6978,-3.6978,-3.6978,-3.6978,-3.6978,-3.6978,-3.9175,-3.9124,-3.8472,-3.8202,-3.8277,-3.824,-3.8375,-3.8277,-3.8337,-3.8337,-3.8449,-3.8936,-3.9175,-3.9247,-3.9682,-4.0104,-4.0104,-3.9929,-4.0139,-4.0278,-4.0531,-4.1502,-4.2858,-4.2813,-4.2567,-4.2247,-4.2205,-4.2069,-4.2211,-4.2743,-4.3426,-4.3593,-4.3253,-4.319,-4.281,-4.1753,-4.1602,-4.1872,-4.0905,-4.0687,-4.1178,-4.0943,-4.0927,-4.1245,-4.0927,-4.1028,-4.1377,-4.1508,-4.1705,-4.246,-4.2492,-4.2429,-4.2429,-4.246,-4.2333,-4.2189,-4.2029,-4.2061,-4.2221,-4.1933,-4.2173,-4.2013,-4.2077,-4.2381,-4.1997,-4.1869,-4.1661,-4.1158,-4.1362,-4.0937,-4.0396,-4.0232,-4.0078,-3.9899,-3.9409,-3.9561,-3.998,-4.0174,-4.0174,-4.0139,-3.952,-3.9233,-3.903,-3.8694,-3.8277,-3.8789,-3.8694,-3.8716,-3.8716,-3.8583,-3.8486,-3.8375,-3.8315,-3.8277,-3.824,-3.824,-3.8165,-3.8052,-3.7839,-3.761,-3.7457,-3.7341,-3.7264,-3.7187,-3.707,-3.6993,-3.6978,-3.6978,-3.6978,-3.6978,-3.6978,-3.6978,-3.6978,-3.6978,-3.6978,-3.8449,-3.8412,-3.8263,-3.8202,-3.8202,-3.8202,-3.8202,-3.8202,-3.8202,-3.8202,-3.824,-3.8412,-3.8486,-3.8472,-3.8716,-3.8679,-3.8789,-3.8826,-3.8957,-3.9591,-4.0189,-4.0547,-4.0988,-4.0664,-4.0525,-4.0581,-4.0203,-4.0215,-4.0651,-4.1332,-4.1666,-4.1911,-4.2353,-4.236,-4.2214,-4.1204,-4.0716,-4.1106,-4.0194,-3.996,-4.0451,-4.0416,-4.0347,-4.0554,-4.0451,-4.0808,-4.1211,-4.0943,-4.101,-4.1525,-4.1705,-4.1672,-4.1722,-4.1722,-4.1509,-4.1129,-4.0961,-4.0943,-4.0894,-4.101,-4.0894,-4.1044,-4.1078,-4.0844,-4.086,-4.0977,-4.0876,-4.0638,-4.0622,-4.0278,-3.9647,-3.9505,-3.9305,-3.8936,-3.8657,-3.856,-3.8657,-3.8716,-3.8826,-3.873,-3.8657,-3.8449,-3.8472,-3.8412,-3.8202,-3.8202,-3.8202,-3.8202,-3.8202,-3.8202,-3.8202,-3.8202,-3.8202,-3.8202,-3.8202,-3.8165,-3.8052,-3.7953,-3.7725,-3.7457,-3.7303,-3.7187,-3.7148,-3.7109,-3.7031,-3.6993,-3.6978,-3.6978,-3.6978,-3.6978,-3.6978,-3.6978,-3.6978,-3.6978,-3.6978,-3.8142,-3.8202,-3.8202,-3.8202,-3.8202,-3.8202,-3.8202,-3.8202,-3.8202,-3.8202,-3.8202,-3.8202,-3.8202,-3.8202,-3.8202,-3.824,-3.8202,-3.8202,-3.8412,-3.8826,-3.9211,-3.9305,-3.9341,-3.9081,-3.9121,-3.9675,-3.9506,-3.9463,-3.978,-4.0373,-4.0911,-4.1116,-4.1468,-4.1855,-4.1874,-4.0786,-4.0602,-4.0731,-3.9617,-3.9139,-3.9753,-3.952,-3.9391,-3.9591,-3.9964,-4.0519,-4.0382,-4.012,-4.0328,-4.0706,-4.0672,-4.0656,-4.0927,-4.101,-4.0758,-4.0519,-4.0416,-4.0416,-4.0416,-4.0416,-4.0451,-4.0382,-4.0382,-4.0416,-4.0416,-4.0416,-4.0174,-3.998,-3.9839,-3.9591,-3.8884,-3.8789,-3.8523,-3.8352,-3.8202,-3.8202,-3.8202,-3.8202,-3.8202,-3.8202,-3.8277,-3.824,-3.8202,-3.8202,-3.8202,-3.8202,-3.8202,-3.8202,-3.8202,-3.8202,-3.8202,-3.8202,-3.8202,-3.8202,-3.8202,-3.8127,-3.7976,-3.7839,-3.7649,-3.738,-3.7134,-3.7056,-3.7017,-3.6993,-3.6993,-3.6993,-3.6978,-3.6978,-3.6978,-3.6978,-3.6978,-3.6978,-3.6978,-3.6978,-3.6978,-3.8005,-3.8165,-3.8202,-3.8202,-3.8202,-3.8202,-3.8202,-3.8202,-3.8202,-3.8202,-3.8202,-3.8202,-3.8202,-3.8202,-3.8202,-3.8202,-3.8202,-3.8202,-3.8315,-3.8337,-3.8412,-3.8449,-3.8412,-3.8427,-3.8575,-3.9118,-3.9046,-3.9083,-3.9232,-3.9747,-4.0226,-4.0735,-4.1076,-4.1381,-4.1541,-4.0986,-4.0597,-4.0888,-3.9484,-3.8772,-3.9135,-3.8737,-3.8412,-3.862,-3.9233,-3.9753,-3.952,-3.9341,-3.9484,-4.0104,-3.952,-3.9555,-3.9894,-4.0209,-4.0154,-4.0069,-3.9894,-3.9824,-3.9788,-3.9894,-3.9945,-4.0069,-4.0034,-3.9999,-3.9964,-3.9859,-3.9591,-3.9356,-3.9103,-3.8899,-3.8277,-3.8315,-3.8277,-3.8202,-3.8202,-3.8202,-3.8202,-3.8202,-3.8202,-3.8202,-3.8202,-3.8202,-3.8202,-3.8202,-3.8202,-3.8202,-3.8202,-3.8202,-3.8202,-3.8202,-3.8202,-3.8202,-3.8202,-3.8127,-3.8104,-3.8066,-3.7915,-3.7687,-3.7534,-3.7341,-3.7095,-3.7017,-3.6978,-3.6978,-3.6978,-3.6978,-3.6978,-3.6978,-3.6978,-3.6978,-3.6978,-3.6978,-3.6978,-3.6978,-3.6978,-3.7929,-3.7967,-3.8142,-3.8202,-3.8202,-3.8202,-3.8202,-3.8202,-3.8202,-3.8202,-3.8202,-3.8202,-3.8202,-3.8202,-3.8202,-3.8202,-3.8202,-3.8202,-3.8202,-3.8202,-3.8202,-3.8202,-3.8202,-3.8202,-3.8315,-3.8337,-3.8449,-3.8491,-3.8612,-3.9028,-3.9483,-3.978,-4.051,-4.1091,-4.1207,-4.0989,-4.0851,-4.0944,-3.977,-3.9197,-3.9016,-3.8614,-3.8202,-3.8188,-3.8642,-3.8899,-3.9103,-3.8716,-3.8716,-3.9305,-3.8752,-3.8546,-3.8804,-3.9211,-3.9211,-3.8899,-3.8804,-3.8863,-3.8826,-3.8694,-3.862,-3.8546,-3.873,-3.8679,-3.8694,-3.8694,-3.873,-3.862,-3.8486,-3.8337,-3.824,-3.8202,-3.8202,-3.8202,-3.8202,-3.8202,-3.8202,-3.8202,-3.8202,-3.8202,-3.8202,-3.8202,-3.8202,-3.8202,-3.8202,-3.8202,-3.8202,-3.8202,-3.8202,-3.8202,-3.8179,-3.8217,-3.8202,-3.8104,-3.7953,-3.7915,-3.7815,-3.7534,-3.738,-3.7303,-3.7095,-3.7017,-3.6978,-3.6978,-3.6978,-3.6978,-3.6978,-3.6978,-3.6978,-3.6978,-3.6978,-3.6978,-3.6978,-3.6978,-3.6978,-3.7701,-3.7891,-3.7991,-3.8104,-3.8202,-3.8202,-3.8202,-3.8202,-3.8202,-3.8202,-3.8202,-3.8202,-3.8202,-3.8202,-3.8202,-3.8202,-3.8202,-3.8202,-3.8202,-3.8202,-3.8202,-3.8202,-3.8202,-3.8202,-3.8202,-3.8202,-3.8202,-3.8202,-3.8231,-3.8492,-3.887,-3.9291,-3.9886,-4.0408,-4.0858,-4.0728,-4.0873,-4.0771,-4.0191,-3.9494,-3.9175,-3.8551,-3.826,-3.8202,-3.8202,-3.8412,-3.856,-3.8486,-3.8375,-3.8583,-3.8427,-3.824,-3.8315,-3.8449,-3.8583,-3.8277,-3.8202,-3.8202,-3.8202,-3.8202,-3.824,-3.824,-3.8202,-3.8202,-3.8202,-3.8277,-3.8202,-3.8202,-3.8202,-3.8202,-3.8202,-3.8202,-3.8202,-3.8202,-3.8202,-3.8202,-3.8202,-3.8202,-3.8202,-3.8165,-3.8165,-3.8165,-3.8202,-3.8202,-3.8202,-3.8202,-3.8202,-3.8202,-3.8165,-3.8104,-3.8066,-3.8104,-3.8104,-3.7915,-3.7801,-3.7725,-3.7663,-3.738,-3.7264,-3.7173,-3.7095,-3.7017,-3.6978,-3.6978,-3.6978,-3.6978,-3.6978,-3.6978,-3.6978,-3.6978,-3.6978,-3.6978,-3.6978,-3.6978,-3.6978,-3.7495,-3.7853,-3.7906,-3.8005,-3.8217,-3.8202,-3.8202,-3.8202,-3.8202,-3.8202,-3.8202,-3.8202,-3.8202,-3.8202,-3.8202,-3.8202,-3.8202,-3.8202,-3.8202,-3.8202,-3.8202,-3.8202,-3.8202,-3.8202,-3.8202,-3.8202,-3.8202,-3.8202,-3.8202,-3.8275,-3.8522,-3.8942,-3.9146,-3.9799,-4.0554,-4.0815,-4.0844,-4.0902,-4.0626,-3.9987,-3.9233,-3.8696,-3.8304,-3.8217,-3.8202,-3.8188,-3.8277,-3.824,-3.8202,-3.8277,-3.824,-3.8202,-3.8202,-3.8202,-3.8202,-3.8202,-3.8202,-3.8202,-3.8202,-3.8202,-3.8202,-3.8202,-3.8202,-3.8202,-3.8202,-3.8202,-3.8202,-3.8202,-3.8202,-3.8202,-3.8202,-3.8202,-3.8202,-3.8202,-3.8202,-3.8202,-3.8142,-3.8104,-3.8066,-3.8066,-3.8089,-3.8127,-3.8127,-3.8202,-3.8202,-3.8127,-3.8127,-3.8066,-3.8028,-3.7929,-3.7891,-3.7953,-3.7915,-3.7763,-3.761,-3.7534,-3.7419,-3.7264,-3.7134,-3.7095,-3.7056,-3.6978,-3.6978,-3.6978,-3.6978,-3.6978,-3.6978,-3.6978,-3.6978,-3.6978,-3.6978,-3.6978,-3.6978,-3.6978,-3.6978,-3.7419,-3.7663,-3.7815,-3.7991,-3.8202,-3.8202,-3.8202,-3.8202,-3.8202,-3.8202,-3.8202,-3.8202,-3.8202,-3.8202,-3.8202,-3.8202,-3.8202,-3.8202,-3.8202,-3.8202,-3.8202,-3.8202,-3.8202,-3.8202,-3.8202,-3.8202,-3.8202,-3.8202,-3.8202,-3.8202,-3.8275,-3.8594,-3.9407,-4.0133,-4.0481,-4.1091,-4.1889,-4.1831,-4.1265,-4.0365,-3.9421,-3.9088,-3.8667,-3.8347,-3.8202,-3.8202,-3.8202,-3.8202,-3.8202,-3.8202,-3.8202,-3.8202,-3.8202,-3.8202,-3.8202,-3.8202,-3.8202,-3.8202,-3.8202,-3.8202,-3.8202,-3.8202,-3.8202,-3.8202,-3.8202,-3.8202,-3.8202,-3.8202,-3.8202,-3.8202,-3.8202,-3.8202,-3.8202,-3.8165,-3.8165,-3.8066,-3.7991,-3.7915,-3.7877,-3.7839,-3.7839,-3.7976,-3.8052,-3.8127,-3.8202,-3.8142,-3.8066,-3.7991,-3.7929,-3.7777,-3.7586,-3.761,-3.7687,-3.7572,-3.7419,-3.7341,-3.7264,-3.7095,-3.7056,-3.7056,-3.7017,-3.6978,-3.6978,-3.6978,-3.6978,-3.6978,-3.6978,-3.6978,-3.6978,-3.6978,-3.6978,-3.6978,-3.6978,-3.6978,-3.6978,-3.7303,-3.7625,-3.7701,-3.7915,-3.8202,-3.8202,-3.8202,-3.8202,-3.8202,-3.8202,-3.8202,-3.8202,-3.8202,-3.8202,-3.8202,-3.8202,-3.8202,-3.8202,-3.8202,-3.8202,-3.8202,-3.8202,-3.8202,-3.8202,-3.8202,-3.8202,-3.8202,-3.8202,-3.8202,-3.826,-3.8333,-3.8812,-3.9349,-4.0017,-4.0525,-4.1221,-4.17,-4.1657,-4.1105,-4.0292,-3.9683,-3.9044,-3.8507,-3.8217,-3.8202,-3.8202,-3.8202,-3.8202,-3.8202,-3.8202,-3.8202,-3.8202,-3.8202,-3.8202,-3.8202,-3.8202,-3.8202,-3.8202,-3.8202,-3.8202,-3.8202,-3.8202,-3.8202,-3.8202,-3.8202,-3.8202,-3.8202,-3.8202,-3.8202,-3.8202,-3.8202,-3.8202,-3.8142,-3.8066,-3.8052,-3.7915,-3.7763,-3.7725,-3.7701,-3.761,-3.7572,-3.7725,-3.7801,-3.7839,-3.7877,-3.7877,-3.7801,-3.7725,-3.7725,-3.7701,-3.7457,-3.7264,-3.7341,-3.7341,-3.7226,-3.7148,-3.7148,-3.7017,-3.7017,-3.7017,-3.7017,-3.6978,-3.6978,-3.6978,-3.6978,-3.6978,-3.6978,-3.6978,-3.6978,-3.6978,-3.6978,-3.6978,-3.6978,-3.6978,-3.6978,-3.7226,-3.7548,-3.7572,-3.7839,-3.8202,-3.8202,-3.8202,-3.8202,-3.8142,-3.8127,-3.8127,-3.8142,-3.8104,-3.8089,-3.8104,-3.8104,-3.8142,-3.8052,-3.8127,-3.8165,-3.8165,-3.8142,-3.8165,-3.8202,-3.8202,-3.8202,-3.8202,-3.8202,-3.826,-3.842,-3.8768,-3.9218,-3.9726,-4.022,-4.0873,-4.1352,-4.1671,-4.1613,-4.0713,-4.006,-3.9668,-3.8971,-3.8507,-3.8275,-3.8202,-3.8202,-3.8202,-3.8202,-3.8202,-3.8202,-3.8202,-3.8202,-3.8202,-3.8202,-3.8202,-3.8202,-3.8202,-3.8179,-3.8165,-3.8165,-3.8202,-3.8202,-3.8202,-3.8202,-3.8202,-3.8202,-3.8202,-3.8202,-3.8202,-3.8202,-3.8202,-3.8165,-3.8081,-3.7967,-3.7891,-3.7701,-3.7572,-3.7534,-3.7457,-3.7341,-3.7341,-3.7394,-3.7471,-3.7471,-3.751,-3.7572,-3.7572,-3.7495,-3.7495,-3.7457,-3.7341,-3.7095,-3.7095,-3.7187,-3.7109,-3.7031,-3.6978,-3.6978,-3.6978,-3.6978,-3.6978,-3.6978,-3.6978,-3.6978,-3.6978,-3.6978,-3.6978,-3.6978,-3.6978,-3.6978,-3.6978,-3.6978,-3.6978,-3.6978,-3.6978,-3.7134,-3.7341,-3.751,-3.7839,-3.8165,-3.8202,-3.8202,-3.8142,-3.7991,-3.7929,-3.7929,-3.7929,-3.7815,-3.7777,-3.7853,-3.7929,-3.7891,-3.7739,-3.7877,-3.8028,-3.8028,-3.8028,-3.8066,-3.8127,-3.8165,-3.8127,-3.8127,-3.8179,-3.8347,-3.873,-3.903,-3.9305,-4.0147,-4.0757,-4.1221,-4.1541,-4.1482,-4.125,-4.0394,-3.977,-3.9465,-3.903,-3.8725,-3.8304,-3.8202,-3.8202,-3.8202,-3.8202,-3.8165,-3.8165,-3.8165,-3.8127,-3.8089,-3.8089,-3.8089,-3.8104,-3.8089,-3.8028,-3.7991,-3.8104,-3.8202,-3.8202,-3.8202,-3.8165,-3.8127,-3.8165,-3.8202,-3.8127,-3.8104,-3.8127,-3.8089,-3.8028,-3.7891,-3.7777,-3.7663,-3.7534,-3.738,-3.7341,-3.7226,-3.7109,-3.7109,-3.7187,-3.7187,-3.7226,-3.7303,-3.738,-3.738,-3.7303,-3.7187,-3.7187,-3.7134,-3.7017,-3.7017,-3.7017,-3.7017,-3.6978,-3.6978,-3.6978,-3.6978,-3.6978,-3.6978,-3.6978,-3.6978,-3.6978,-3.6978,-3.6978,-3.6978,-3.6978,-3.6978,-3.6978,-3.6978,-3.6978,-3.6978,-3.6978,-3.6978,-3.7109,-3.7303,-3.738,-3.7572,-3.7839,-3.7839,-3.7839,-3.7801,-3.7739,-3.7701,-3.7701,-3.7701,-3.7663,-3.7625,-3.7663,-3.7739,-3.7701,-3.7663,-3.7725,-3.7763,-3.7763,-3.7763,-3.7839,-3.7877,-3.7839,-3.7877,-3.7953,-3.8005,-3.8077,-3.877,-3.9078,-3.9581,-4.0412,-4.1236,-4.1613,-4.1439,-4.1221,-4.0873,-4.0118,-3.9392,-3.9233,-3.8754,-3.8463,-3.826,-3.8202,-3.8202,-3.8202,-3.8202,-3.8127,-3.8066,-3.8028,-3.7953,-3.7877,-3.7863,-3.7877,-3.7877,-3.7877,-3.7801,-3.7815,-3.7991,-3.8202,-3.8165,-3.8104,-3.8005,-3.7991,-3.7915,-3.7839,-3.7839,-3.7839,-3.7863,-3.7801,-3.7777,-3.7663,-3.7548,-3.7419,-3.7303,-3.7226,-3.7187,-3.7148,-3.7031,-3.7031,-3.7031,-3.7017,-3.7017,-3.7109,-3.7187,-3.7134,-3.7095,-3.7017,-3.6978,-3.6978,-3.6978,-3.6978,-3.6978,-3.6978,-3.6978,-3.6978,-3.6978,-3.6978,-3.6978,-3.6978,-3.6978,-3.6978,-3.6978,-3.6978,-3.6978,-3.6978,-3.6978,-3.6978,-3.6978,-3.6978,-3.6978,-3.6978,-3.6978,-3.6978,-3.7109,-3.7226,-3.724,-3.738,-3.7572,-3.761,-3.761,-3.7572,-3.7548,-3.7457,-3.7419,-3.7457,-3.7457,-3.7457,-3.7495,-3.7495,-3.7457,-3.7457,-3.7495,-3.7548,-3.7586,-3.7534,-3.7572,-3.761,-3.7649,-3.7663,-3.7701,-3.7815,-3.7844,-3.8654,-3.89,-3.9275,-4.0047,-4.077,-4.1091,-4.0902,-4.0554,-4.0249,-3.9581,-3.889,-3.8735,-3.8469,-3.8171,-3.8127,-3.8179,-3.8202,-3.8202,-3.8202,-3.8104,-3.7991,-3.7891,-3.783,-3.7701,-3.761,-3.761,-3.7572,-3.7572,-3.7572,-3.761,-3.7801,-3.8014,-3.7938,-3.7877,-3.7815,-3.7777,-3.7701,-3.7663,-3.7663,-3.761,-3.7572,-3.7572,-3.7548,-3.751,-3.738,-3.7264,-3.7148,-3.7095,-3.7056,-3.7017,-3.6978,-3.6978,-3.6978,-3.6978,-3.6978,-3.7017,-3.7056,-3.7056,-3.7056,-3.7017,-3.6978,-3.6978,-3.6978,-3.6978,-3.6978,-3.6978,-3.6978,-3.6978,-3.6978,-3.6978,-3.6978,-3.6978,-3.6978,-3.6978,-3.6978,-3.6978,-3.6978,-3.6978,-3.6978,-3.6978,-3.6978,-3.6978,-3.6978,-3.6978,-3.6978,-3.6978,-3.6993,-3.6978,-3.7017,-3.7226,-3.7534,-3.7586,-3.7572,-3.7495,-3.738,-3.7226,-3.7109,-3.7226,-3.7226,-3.7134,-3.7264,-3.7303,-3.7264,-3.7134,-3.7226,-3.7419,-3.738,-3.7419,-3.7495,-3.7534,-3.7457,-3.7572,-3.761,-3.761,-3.7625,-3.8212,-3.8513,-3.8685,-3.9169,-3.9805,-4.0064,-3.9581,-3.9291,-3.9189,-3.86,-3.8216,-3.8083,-3.811,-3.8043,-3.7991,-3.8028,-3.8089,-3.8089,-3.8104,-3.7953,-3.7815,-3.7777,-3.7701,-3.7534,-3.7495,-3.7495,-3.7534,-3.7534,-3.7457,-3.738,-3.7534,-3.761,-3.7687,-3.7663,-3.761,-3.7625,-3.7586,-3.7534,-3.7457,-3.751,-3.7534,-3.7495,-3.7419,-3.7303,-3.7264,-3.7109,-3.7056,-3.7017,-3.6978,-3.6978,-3.6978,-3.6978,-3.6978,-3.6978,-3.6978,-3.6978,-3.6978,-3.6978,-3.6978,-3.6978,-3.6978,-3.6978,-3.6978,-3.6978,-3.6978,-3.6978,-3.6978,-3.6978,-3.6978,-3.6978,-3.6978,-3.6978,-3.6978,-3.6978,-3.6978,-3.6978,-3.6978,-3.6978,-3.6978,-3.6978,-3.6978,-3.6978,-3.6978,-3.6978,-3.6978,-3.6978,-3.6978,-3.6978,-3.6978,-3.7056,-3.7187,-3.7226,-3.7226,-3.7187,-3.7134,-3.7056,-3.7031,-3.7109,-3.7056,-3.7056,-3.7056,-3.7109,-3.7109,-3.7056,-3.7134,-3.7187,-3.7134,-3.7134,-3.7187,-3.7264,-3.724,-3.7264,-3.7303,-3.7419,-3.7433,-3.7809,-3.7872,-3.8025,-3.8271,-3.8789,-3.9294,-3.9147,-3.8802,-3.8701,-3.8189,-3.7777,-3.7739,-3.7763,-3.7801,-3.7701,-3.7801,-3.7839,-3.7825,-3.7877,-3.7763,-3.7572,-3.7534,-3.7457,-3.7264,-3.7226,-3.7226,-3.7226,-3.7226,-3.7187,-3.7134,-3.7226,-3.7356,-3.7419,-3.7457,-3.7419,-3.7419,-3.7264,-3.7226,-3.7226,-3.7264,-3.7264,-3.7134,-3.7134,-3.7095,-3.7109,-3.7031,-3.7017,-3.6978,-3.6978,-3.6978,-3.6978,-3.6978,-3.6978,-3.6978,-3.6978,-3.6978,-3.6978,-3.6978,-3.6978,-3.6978,-3.6978,-3.6978,-3.6978,-3.6978,-3.6978,-3.6978,-3.6978,-3.6978,-3.6978,-3.6978,-3.6978,-3.6978,-3.6978,-3.6978,-3.6978,-3.6978,-3.6978,-3.6978,-3.6978,-3.6978,-3.6978,-3.6978,-3.6978,-3.6978,-3.6978,-3.6978,-3.6978,-3.6978,-3.6978,-3.6978,-3.6978,-3.6978,-3.6978,-3.6978,-3.6978,-3.6978,-3.6978,-3.6978,-3.6978,-3.6978,-3.6978,-3.6978,-3.6978,-3.6978,-3.6978,-3.6978,-3.6978,-3.7017,-3.7017,-3.6978,-3.707,-3.7017,-3.7095,-3.7226,-3.7187,-3.7303,-3.737,-3.7423,-3.7394,-3.7848,-3.8296,-3.8261,-3.8221,-3.8106,-3.7777,-3.7572,-3.7534,-3.7572,-3.7586,-3.7548,-3.7572,-3.761,-3.761,-3.7572,-3.7495,-3.7341,-3.7264,-3.7187,-3.707,-3.6978,-3.6978,-3.6978,-3.6978,-3.7017,-3.7017,-3.7017,-3.7187,-3.7317,-3.7264,-3.7226,-3.7187,-3.7095,-3.7056,-3.7017,-3.6978,-3.6978,-3.7017,-3.6978,-3.6978,-3.6993,-3.6993,-3.6978,-3.6978,-3.6978,-3.6978,-3.6978,-3.6978,-3.6978,-3.6978,-3.6978,-3.6978,-3.6978,-3.6978,-3.6978,-3.6978,-3.6978,-3.6978,-3.6978,-3.6978,-3.6978,-3.6978,-3.6978,-3.6978,-3.6978,-3.6978,-3.6978,-3.6978,-3.6978,-3.6978,-3.6978,-3.6978,-3.6978,-3.6978,-3.6978,-3.6978,-3.6978,-3.6978,-3.6978,-3.6978,-3.6978,-3.6978,-3.6978,-3.6978,-3.6978,-3.6978,-3.6978,-3.6978,-3.6978,-3.6993,-3.7021,-3.7049,-3.7035,-3.7147,-3.7203,-3.7077,-3.7049,-3.7035,-3.6978,-3.6978,-3.6978,-3.6978,-3.6978,-3.6978,-3.6978,-3.6978,-3.6978,-3.6978,-3.7017,-3.7056,-3.7017,-3.7095,-3.7095,-3.7056,-3.7095,-3.7278,-3.7423,-3.7554,-3.7628,-3.7585,-3.7557,-3.738,-3.7341,-3.7419,-3.738,-3.738,-3.7419,-3.7457,-3.7457,-3.7457,-3.7419,-3.7303,-3.7264,-3.7148,-3.707,-3.6978,-3.6978,-3.6978,-3.6978,-3.6978,-3.6978,-3.6978,-3.6978,-3.7109,-3.7056,-3.7017,-3.7017,-3.7017,-3.6978,-3.6978,-3.6978,-3.6978,-3.6978,-3.6978,-3.6978,-3.6978,-3.6978,-3.6978,-3.6978,-3.6978,-3.6978,-3.6978,-3.6978,-3.6978,-3.6978,-3.6978,-3.6978,-3.6978,-3.6978,-3.6978,-3.6978,-3.6978,-3.6978,-3.6978,-3.6978,-3.6978,-3.6978,-3.6978,-3.6978,-3.6978,-3.6978,-3.6978,-3.6978,-3.6978,-3.6978,-3.6978,-3.6978,-3.6978,-3.6978,-3.6978,-3.6978,-3.6978,-3.6978,-3.6978,-3.6978,-3.6978,-3.6978,-3.6978,-3.6978,-3.6978,-3.6978,-3.6978,-3.6978,-3.6978,-3.7035,-3.7414,-3.7639,-3.7667,-3.8157,-3.799,-3.7653,-3.7639,-3.7358,-3.7133,-3.6978,-3.6978,-3.6978,-3.6978,-3.6978,-3.6978,-3.6978,-3.6978,-3.6978,-3.6978,-3.6978,-3.6978,-3.6978,-3.6978,-3.6978,-3.6978,-3.6978,-3.7017,-3.7095,-3.7187,-3.7226,-3.7226,-3.7187,-3.7134,-3.7187,-3.7134,-3.7187,-3.7187,-3.7226,-3.7226,-3.7226,-3.7134,-3.7095,-3.7095,-3.7031,-3.7031,-3.6978,-3.6978,-3.6978,-3.6978,-3.6978,-3.6978,-3.6978,-3.6978,-3.6978,-3.6978,-3.6978,-3.6978,-3.6978,-3.6978,-3.6978,-3.6978,-3.6978,-3.6978,-3.6978,-3.6978,-3.6978,-3.6978,-3.6978,-3.6978,-3.6978,-3.6978,-3.6978,-3.6978,-3.6978,-3.6978,-3.6978,-3.6978,-3.6978,-3.6978,-3.6978,-3.6978,-3.6978,-3.6978,-3.6978,-3.6978,-3.6978,-3.6978,-3.6978,-3.6978,-3.6978,-3.6978,-3.6978,-3.6978,-3.6978,-3.6978,-3.6978,-3.6978,-3.6978,-3.6978,-3.6978,-3.6978,-3.6978,-3.6978,-3.6978,-3.6978,-3.6978,-3.6978,-3.6978,-3.6978,-3.6978,-3.6978,-3.6978,-3.6978,-3.6978,-3.7105,-3.7639,-3.7892,-3.7976,-3.8579,-3.8691,-3.8271,-3.8004,-3.7695,-3.7386,-3.7091,-3.6978,-3.6978,-3.6978,-3.6978,-3.6978,-3.6978,-3.6978,-3.6978,-3.6978,-3.6978,-3.6978,-3.6978,-3.6978,-3.6978,-3.6978,-3.6978,-3.7017,-3.7017,-3.7017,-3.7017,-3.7017,-3.6978,-3.6978,-3.6978,-3.6978,-3.6978,-3.6978,-3.6978,-3.6978,-3.6978,-3.6978,-3.6978,-3.6978,-3.6978,-3.6978,-3.6978,-3.6978,-3.6978,-3.6978,-3.6978,-3.6978,-3.6978,-3.6978,-3.6978,-3.6978,-3.6978,-3.6978,-3.6978,-3.6978,-3.6978,-3.6978,-3.6978,-3.6978,-3.6978,-3.6978,-3.6978,-3.6978,-3.6978,-3.6978,-3.6978,-3.6978,-3.6978,-3.6978,-3.6978,-3.6978,-3.6978,-3.6978,-3.6978,-3.6978,-3.6978,-3.6978,-3.6978,-3.6978,-3.6978,-3.6978,-3.6978,-3.6978,-3.6978,-3.6978,-3.6978,-3.6978,-3.6978,-3.6978,-3.6978,-3.6978,-3.6978,-3.6978,-3.6978,-3.6978,-3.6978,-3.6978,-3.6978,-3.6978,-3.6978,-3.6978,-3.6978,-3.6978,-3.6852,-3.6894,-3.7003,-3.6978,-3.6978,-3.6978,-3.6978,-3.7063,-3.7639,-3.7948,-3.8116,-3.8719,-3.8988,-3.8847,-3.8524,-3.8102,-3.7737,-3.7372,-3.7105,-3.7007,-3.6978,-3.6978,-3.6978,-3.6978,-3.6978,-3.6978,-3.6978,-3.6978,-3.6978,-3.6978,-3.6978,-3.6978,-3.6978,-3.6978,-3.6978,-3.6978,-3.6978,-3.6978,-3.6978,-3.6978,-3.6978,-3.6978,-3.6978,-3.6978,-3.6978,-3.6978,-3.6978,-3.6978,-3.6978,-3.6978,-3.6978,-3.6978,-3.6978,-3.6978,-3.6978,-3.6978,-3.6978,-3.6978,-3.6978,-3.6978,-3.6978,-3.6978,-3.6978,-3.6978,-3.6978,-3.6978,-3.6978,-3.6978,-3.6978,-3.6978,-3.6978,-3.6978,-3.6978,-3.6978,-3.6978,-3.6978,-3.6978,-3.6978,-3.6978,-3.6978,-3.6978,-3.6978,-3.6978,-3.6978,-3.6978,-3.6978,-3.6978,-3.6978,-3.6978,-3.6978,-3.6978,-3.6978,-3.6978,-3.6978,-3.6978,-3.6978,-3.6978,-3.6978,-3.6978,-3.6978,-3.6978,-3.6978,-3.6978,-3.6978,-3.6978,-3.6978,-3.6978,-3.6978,-3.6978,-3.6978,-3.6978,-3.6978,-3.6978,-3.6978,-3.6978,-3.5906,-3.6332,-3.6835,-3.6978,-3.6978,-3.6978,-3.6964,-3.7035,-3.7639,-3.8145,-3.8719,-3.9254,-3.9591,-3.9493,-3.9311,-3.8833,-3.8046,-3.7723,-3.74,-3.7147,-3.7021,-3.6978,-3.6978,-3.6978,-3.6978,-3.6978,-3.6978,-3.6978,-3.6978,-3.6978,-3.6978,-3.6978,-3.6978,-3.6978,-3.6978,-3.6978,-3.6978,-3.6978,-3.6978,-3.6978,-3.6978,-3.6978,-3.6978,-3.6978,-3.6978,-3.6978,-3.6978,-3.6978,-3.6978,-3.6978,-3.6978,-3.6978,-3.6978,-3.6978,-3.6978,-3.6978,-3.6978,-3.6978,-3.6978,-3.6978,-3.6978,-3.6978,-3.6978,-3.6978,-3.6978,-3.6978,-3.6978,-3.6978,-3.6978,-3.6978,-3.6978,-3.6978,-3.6978,-3.6978,-3.6978,-3.6978,-3.6978,-3.6978,-3.6978,-3.6978,-3.6978,-3.6978,-3.6978,-3.6978,-3.6978,-3.6978,-3.6978,-3.6978,-3.6978,-3.6978,-3.6978,-3.6978,-3.6978,-3.6978,-3.6978,-3.6978,-3.6978,-3.6978,-3.6978,-3.6978,-3.6978,-3.6978,-3.6978,-3.6978,-3.6978,-3.6978,-3.6978,-3.6978,-3.6978,-3.6978,-3.6978,-3.6978,-3.6978,-3.6978,-3.6978,-3.5386,-3.5738,-3.6061,-3.6216,-3.6258,-3.6497,-3.6585,-3.6736,-3.7231,-3.785,-3.8538,-3.938,-3.9915,-4.0027,-3.9929,-3.9564,-3.8622,-3.8102,-3.7779,-3.7442,-3.7119,-3.6993,-3.6978,-3.6978,-3.6978,-3.6978,-3.6978,-3.6978,-3.6978,-3.6978,-3.6978,-3.6978,-3.6978,-3.6978,-3.6978,-3.6978,-3.6978,-3.6978,-3.6978,-3.6978,-3.6978,-3.6978,-3.6978,-3.6978,-3.6978,-3.6978,-3.6978,-3.6978,-3.6978,-3.6978,-3.6978,-3.6978,-3.6978,-3.6978,-3.6978,-3.6978,-3.6978,-3.6978,-3.6978,-3.6978,-3.6978,-3.6978,-3.6978,-3.6978,-3.6978,-3.6978,-3.6978,-3.6978,-3.6978,-3.6978,-3.6978,-3.6978,-3.6978,-3.6978,-3.6978,-3.6978,-3.6978,-3.6978,-3.6978,-3.6978,-3.6978,-3.6978,-3.6978,-3.6978,-3.6978,-3.6978,-3.6978,-3.6978,-3.6978,-3.6978,-3.6978,-3.6978,-3.6978,-3.6978,-3.6978,-3.6978,-3.6978,-3.6978,-3.6978,-3.6978,-3.6978,-3.6978,-3.6978,-3.6978,-3.6978,-3.6978,-3.6978,-3.6978,-3.6978,-3.6978,-3.6978,-3.6978,-3.6978,-3.6978,-3.6978,-3.4978,-3.5062,-3.5175,-3.5203,-3.5259,-3.5752,-3.5991,-3.6075,-3.6515,-3.7063,-3.7709,-3.8805,-3.9774,-4.0196,-4.0196,-3.9957,-3.9521,-3.8819,-3.8313,-3.7737,-3.7358,-3.7161,-3.7035,-3.6978,-3.6978,-3.6978,-3.6978,-3.6978,-3.6978,-3.6978,-3.6978,-3.6978,-3.6978,-3.6978,-3.6978,-3.6978,-3.6978,-3.6978,-3.6978,-3.6978,-3.6978,-3.6978,-3.6978,-3.6978,-3.6978,-3.6978,-3.6978,-3.6978,-3.6978,-3.6978,-3.6978,-3.6978,-3.6978,-3.6978,-3.6978,-3.6978,-3.6978,-3.6978,-3.6978,-3.6978,-3.6978,-3.6978,-3.6978,-3.6978,-3.6978,-3.6978,-3.6978,-3.6978,-3.6978,-3.6978,-3.6978,-3.6978,-3.6978,-3.6978,-3.6978,-3.6978,-3.6978,-3.6978,-3.6978,-3.6978,-3.6978,-3.6978,-3.6978,-3.6978,-3.6978,-3.6978,-3.6978,-3.6978,-3.6978,-3.6978,-3.6978,-3.6978,-3.6978,-3.6978,-3.6978,-3.6978,-3.6978,-3.6978,-3.6978,-3.6978,-3.6978,-3.6978,-3.6978,-3.6978,-3.6978,-3.6978,-3.6978,-3.6978,-3.6978,-3.6978,-3.6978,-3.6978,-3.6978,-3.6978,-3.6978,-3.3958,-3.4413,-3.4964,-3.5175,-3.5189,-3.5316,-3.5372,-3.5386,-3.5498,-3.5878,-3.6557,-3.7245,-3.8327,-3.9971,-4.0435,-4.0336,-3.9859,-3.9325,-3.8636,-3.7962,-3.7737,-3.7414,-3.7133,-3.7035,-3.6993,-3.6978,-3.6978,-3.6978,-3.6978,-3.6978,-3.6978,-3.6978,-3.6978,-3.6978,-3.6978,-3.6978,-3.6978,-3.6978,-3.6978,-3.6978,-3.6978,-3.6978,-3.6978,-3.6978,-3.6978,-3.6978,-3.6978,-3.6978,-3.6978,-3.6978,-3.6978,-3.6978,-3.6978,-3.6978,-3.6978,-3.6978,-3.6978,-3.6978,-3.6978,-3.6978,-3.6978,-3.6978,-3.6978,-3.6978,-3.6978,-3.6978,-3.6978,-3.6978,-3.6978,-3.6978,-3.6978,-3.6978,-3.6978,-3.6978,-3.6978,-3.6978,-3.6978,-3.6978,-3.6978,-3.6978,-3.6978,-3.6978,-3.6978,-3.6978,-3.6978,-3.6978,-3.6978,-3.6978,-3.6978,-3.6978,-3.6978,-3.6978,-3.6978,-3.6978,-3.6978,-3.6978,-3.6978,-3.6978,-3.6978,-3.6978,-3.6978,-3.6978,-3.6978,-3.6978,-3.6978,-3.6978,-3.6978,-3.6978,-3.6978,-3.6978,-3.6978,-3.6978,-3.6978,-3.6978,-3.6978]}]]